GFSSE_con_sbcape_000.txt.gz
CAPE
0 11 202 162 408 60 15 0 0 0 0 0 1 10 13 18 1 0 6 10 10 0 1 4 5 8 16 6 14 20 7 0 0 0 0 0 0 9 1 20 25 39 3
0 9 449 514 385 20 0 0 0 0 0 3 4 16 18 13 19 15 16 18 20 11 6 8 9 15 11 20 34 27 3 0 0 0 1 12 0 2 20 2 0 3 62
0 21 483 693 285 19 0 0 0 0 3 2 0 15 29 9 6 6 8 1 10 16 8 5 5 4 5 9 32 27 0 0 0 0 22 1 0 9 0 0 7 14 29
0 2 315 820 359 18 1 0 0 0 4 0 2 21 26 16 10 6 13 1 0 5 0 0 1 1 4 3 10 9 0 0 0 1 0 15 0 4 13 6 4 1 10
1 0 269 908 223 19 8 0 0 0 3 3 29 33 24 21 5 1 1 0 0 0 0 0 0 2 6 17 9 9 0 0 0 0 0 13 0 0 0 0 0 0 0
0 32 730 951 317 54 27 3 0 0 6 8 5 34 35 26 13 0 0 0 2 0 0 0 0 0 2 3 3 2 0 0 0 0 0 0 0 0 0 0 0 0 0
0 21 366 1069 203 28 5 7 0 0 10 6 13 14 7 21 15 3 0 0 0 0 0 0 0 0 3 0 4 0 0 0 0 0 0 0 0 0 0 0 0 0 0
0 7 171 385 77 29 15 7 9 12 17 14 12 0 0 3 13 7 4 22 7 7 0 0 0 0 3 0 0 0 0 0 0 0 0 0 0 0 0 0 0 0 0
0 0 0 0 1 10 26 22 27 22 27 31 12 0 0 0 18 17 27 27 25 0 0 0 0 0 0 1 0 0 0 0 0 0 0 0 0 0 0 0 0 0 0
0 0 0 0 0 0 0 25 22 32 24 30 25 10 1 8 15 19 24 17 1 0 0 0 0 0 0 0 0 0 0 0 0 0 0 0 0 0 0 0 0 0 0
0 0 0 0 0 0 0 0 12 25 15 19 10 0 0 0 0 0 0 5 0 0 0 0 0 0 0 0 0 0 0 0 0 0 0 0 0 0 0 0 0 0 0
0 0 0 0 0 0 0 0 0 0 0 0 0 0 0 0 0 0 0 0 0 0 0 0 0 0 0 0 0 0 0 0 0 0 0 0 0 0 0 0 0 0 0
0 0 0 0 0 0 0 0 0 0 0 0 0 0 0 0 0 0 0 0 0 0 0 0 0 0 0 0 0 0 0 0 0 0 0 0 0 0 0 0 0 0 0
0 0 0 0 0 0 0 0 0 0 0 0 0 0 0 0 0 0 0 0 0 0 0 0 0 0 0 0 0 0 0 0 0 0 0 0 0 0 0 0 0 0 0
0 0 0 0 0 0 0 0 0 0 0 0 0 0 0 0 0 0 0 0 0 0 0 0 0 0 0 0 0 0 0 0 0 0 0 0 0 0 0 0 0 0 0
0 0 0 0 0 0 0 0 0 0 0 0 0 0 0 0 0 0 0 0 0 0 0 0 0 0 0 0 0 0 0 0 0 0 0 0 0 0 0 0 0 0 0
0 0 0 0 0 0 0 0 0 0 0 0 0 0 0 0 0 0 0 0 0 0 0 0 0 0 0 0 0 0 0 0 0 0 0 0 0 0 0 0 0 0 0
0 0 0 0 0 0 0 0 0 0 0 0 0 0 0 0 0 0 0 0 0 0 0 0 0 0 0 0 0 0 0 0 0 0 0 0 0 0 0 0 0 0 0
0 0 0 0 0 0 0 0 0 0 0 0 0 0 0 0 0 0 0 0 0 0 0 0 0 0 0 0 0 0 0 0 0 0 0 0 0 0 0 0 0 0 0
0 0 0 0 0 0 0 0 0 0 0 0 0 0 0 0 0 0 0 0 0 0 0 0 0 0 0 0 0 0 0 0 0 0 0 0 0 0 0 0 0 0 0
0 0 0 0 0 0 0 0 0 0 0 0 0 0 0 0 0 0 0 0 0 0 0 0 0 0 0 0 0 0 0 0 0 0 0 0 0 0 0 0 0 0 0
0 0 0 0 0 0 0 0 0 0 0 0 0 0 0 0 0 0 0 0 0 0 0 0 0 0 0 0 0 0 0 0 0 0 0 0 0 0 0 0 0 0 0
0 0 0 0 0 0 0 0 0 0 0 0 0 0 0 0 0 0 0 0 0 0 0 0 0 0 0 0 0 0 0 0 0 0 0 0 0 0 0 0 0 0 0
0 0 0 0 0 0 0 0 0 0 0 0 0 0 0 0 0 0 0 0 0 0 1 0 0 0 0 0 0 1 0 0 0 0 0 0 0 0 0 0 0 0 0
0 0 0 0 0 0 0 0 0 0 0 0 0 0 0 0 0 0 0 0 0 1 7 4 6 1 0 0 0 0 2 0 0 0 0 0 0 0 0 0 0 0 0
0 0 0 0 0 0 0 0 0 0 0 0 0 0 0 0 0 0 0 0 0 0 7 27 53 43 22 7 11 2 1 1 0 0 0 0 0 0 0 0 0 0 0

GFSSE_con_sbcape_003.txt.gz
CAPE
2 27 514 394 633 316 40 6 0 0 0 0 12 10 18 19 10 13 20 24 18 16 7 14 13 30 14 14 26 23 2 0 0 0 0 0 8 13 32 8 6 25 27
7 147 700 501 631 221 19 1 0 0 0 0 2 7 26 28 24 20 42 40 32 14 16 9 13 24 11 16 35 19 2 0 0 0 4 19 15 22 7 0 0 40 46
78 266 480 1028 516 21 1 0 0 0 0 3 5 29 29 28 19 15 19 15 30 12 6 9 11 7 5 33 42 26 0 0 0 0 6 0 0 0 1 3 13 25 41
118 323 582 1137 640 15 0 0 0 0 3 0 12 37 32 29 23 25 12 1 1 6 2 0 2 2 2 2 29 9 0 0 0 3 0 0 0 10 4 2 5 10 10
126 280 628 1136 766 44 2 0 0 0 16 7 28 29 39 24 20 13 1 0 0 1 0 0 1 8 5 4 26 1 0 0 0 0 0 0 0 0 0 0 0 0 0
0 64 925 1188 664 327 56 0 0 0 4 7 33 35 33 40 18 1 0 0 0 0 0 0 0 0 3 3 8 0 0 0 0 0 0 0 0 0 0 0 0 0 0
50 339 817 1206 751 280 2 6 0 1 11 6 24 23 17 20 4 9 0 0 0 0 0 0 0 0 7 0 4 0 0 0 0 0 0 0 0 0 0 0 0 0 0
56 356 685 916 582 235 35 13 7 0 20 7 15 12 2 2 3 11 0 4 0 0 0 0 0 0 4 1 0 0 0 0 0 0 0 0 0 0 0 0 0 0 0
129 296 350 149 41 203 70 25 22 37 18 28 14 4 0 0 1 4 1 14 5 10 0 0 0 0 1 3 0 0 0 0 0 0 0 0 0 0 0 0 0 0 0
7 33 0 0 0 0 0 16 27 28 22 26 26 9 0 0 11 14 17 28 19 0 0 0 0 0 0 1 3 0 0 0 0 0 0 0 0 0 0 0 0 0 0
0 0 0 0 0 0 0 0 7 17 14 15 11 5 0 0 0 0 0 18 16 0 0 0 0 0 0 3 0 0 0 0 0 0 0 0 0 0 0 0 0 0 0
0 0 0 0 0 0 0 0 0 0 0 0 0 0 0 0 0 0 0 7 1 0 0 0 0 0 0 0 0 0 0 0 0 0 0 0 0 0 0 0 0 0 0
0 0 0 0 0 0 0 0 0 0 0 0 0 0 0 0 0 0 0 0 0 0 0 0 0 0 0 0 0 0 0 0 0 0 0 0 0 0 0 0 0 0 0
0 0 0 0 0 0 0 0 0 0 0 0 0 0 0 0 0 0 0 0 0 0 0 0 0 0 0 0 0 0 0 0 0 0 0 0 0 0 0 0 0 0 0
0 0 0 0 0 0 0 0 0 0 0 0 0 0 0 0 0 0 0 0 0 0 0 0 0 0 0 0 0 0 0 0 0 0 0 0 0 0 0 0 0 0 0
0 0 0 0 0 0 0 0 0 0 0 0 0 0 0 0 0 0 0 0 0 0 0 0 0 0 0 0 0 0 0 0 0 0 0 0 0 0 0 0 0 0 0
0 0 0 0 0 0 0 0 0 0 0 0 0 0 0 0 0 0 0 0 0 0 0 0 0 0 0 0 0 0 0 0 0 0 0 0 0 0 0 0 0 0 0
0 0 0 0 0 0 0 0 0 0 0 0 0 0 0 0 0 0 0 0 0 0 0 0 0 0 0 0 0 0 0 0 0 0 0 0 0 0 0 0 0 0 0
0 0 0 0 0 0 0 0 0 0 0 0 0 0 0 0 0 0 0 0 0 0 0 0 0 0 0 0 0 0 0 0 0 0 0 0 0 0 0 0 0 0 0
0 0 0 0 0 0 0 0 0 0 0 0 0 0 0 0 0 0 0 0 0 0 0 0 0 0 0 0 0 0 0 0 0 0 0 0 0 0 0 0 0 0 0
0 0 0 0 0 0 0 0 0 0 0 0 0 0 0 0 0 0 0 0 0 0 0 0 0 0 0 0 0 0 0 0 0 0 0 0 0 0 0 0 0 0 0
0 0 0 0 0 0 0 0 0 0 0 0 0 0 0 0 0 0 0 0 0 0 0 0 0 0 0 0 0 0 0 0 0 0 0 0 0 0 0 0 0 0 0
0 0 0 0 0 0 0 0 0 0 0 0 0 0 0 0 0 0 0 0 0 0 0 0 0 0 0 0 0 0 0 0 0 0 0 0 0 0 0 0 0 0 0
0 0 0 0 0 0 0 0 0 0 0 0 0 0 0 0 0 0 0 0 0 0 0 0 0 0 0 0 0 0 0 0 0 0 0 0 0 0 0 0 0 0 0
0 0 0 0 0 0 0 0 0 0 0 0 0 0 0 0 0 0 0 0 0 1 0 1 14 14 2 0 0 0 0 0 0 0 0 0 0 0 0 0 0 0 0
0 0 0 0 0 0 0 0 0 0 0 0 0 0 0 0 0 0 0 1 3 5 10 16 45 73 83 53 14 2 0 0 0 0 0 0 0 0 0 0 0 0 0

GFSSE_con_sbcape_006.txt.gz
CAPE
1 2 560 674 666 447 140 17 3 0 0 0 6 12 8 17 4 21 22 22 16 8 5 7 10 47 27 42 32 22 1 0 0 0 0 1 6 27 14 0 28 14 23
13 122 742 611 765 486 118 17 5 0 0 0 2 3 21 23 18 16 28 29 22 14 7 9 5 20 19 16 31 4 0 0 0 0 3 5 12 8 0 0 26 26 49
70 222 529 948 802 387 23 8 2 0 0 0 10 13 37 31 17 10 6 20 32 24 5 4 1 12 14 49 34 9 0 0 0 0 1 0 0 0 2 3 14 39 41
190 319 367 1259 651 206 24 2 0 0 0 0 6 41 42 33 27 23 12 0 9 6 4 3 4 4 1 14 37 12 0 0 0 2 0 0 0 2 2 1 4 13 15
246 390 628 1332 780 174 0 6 0 0 0 3 23 45 53 34 27 11 0 0 0 1 0 7 2 1 1 1 20 3 0 0 0 0 0 0 0 0 0 0 3 1 0
152 409 993 1287 830 424 4 0 0 0 0 12 33 60 40 38 31 3 0 0 0 0 0 0 0 0 1 2 3 0 0 0 0 0 0 0 0 0 0 0 0 0 0
16 330 939 1349 930 314 9 0 0 0 4 2 22 30 35 35 11 4 0 0 0 0 0 0 0 0 0 1 4 1 0 0 0 0 0 0 0 0 0 0 0 0 0
36 330 780 1138 976 586 89 11 0 0 3 5 23 21 10 9 0 0 1 0 0 3 1 0 0 0 0 3 0 3 0 0 0 0 0 0 0 0 0 0 0 0 0
237 518 672 720 610 459 202 128 4 0 16 27 18 8 0 0 0 0 0 17 16 14 1 0 0 0 0 6 3 1 0 0 0 0 0 0 0 0 0 0 0 0 0
150 309 414 202 55 11 4 126 0 0 16 25 25 17 0 0 0 9 17 19 15 21 3 0 0 0 0 2 5 1 0 0 0 0 0 0 0 0 0 0 0 0 0
22 76 63 0 0 0 0 0 0 0 1 10 15 7 0 0 0 0 0 5 22 0 0 0 0 0 0 0 4 12 1 0 0 0 0 0 0 0 0 0 0 0 0
0 0 0 0 0 0 0 0 0 0 0 0 0 0 0 0 0 0 0 0 0 0 0 0 0 0 0 0 0 0 0 0 0 0 0 0 0 0 0 0 0 0 0
0 0 0 0 0 0 0 0 0 0 0 0 0 0 0 0 0 0 0 0 0 0 0 0 0 0 0 0 0 0 0 0 0 0 0 0 0 1 2 0 0 0 0
0 0 0 0 0 0 0 0 0 0 0 0 0 0 0 0 0 0 0 0 0 0 0 0 0 0 0 0 0 0 0 0 0 0 0 0 0 0 1 0 0 0 0
0 0 0 0 0 0 0 0 0 0 0 0 0 0 0 0 0 0 0 0 0 0 0 0 0 0 0 0 0 0 0 0 0 0 0 0 0 0 0 0 0 0 2
0 0 0 0 0 0 0 0 0 0 0 0 0 0 0 0 0 0 0 0 0 0 0 0 0 0 0 0 0 0 0 0 0 0 0 0 0 0 0 0 0 0 2
0 0 0 0 0 0 0 0 0 0 0 0 0 0 0 0 0 0 0 0 0 0 0 0 0 0 0 0 0 0 0 0 0 0 0 0 0 0 0 0 0 0 6
0 0 0 0 0 0 0 0 0 0 0 0 0 0 0 0 0 0 0 0 0 0 0 0 0 0 0 0 0 0 0 0 0 0 0 0 0 0 0 0 0 0 0
0 0 0 0 0 0 0 0 0 0 0 0 0 0 0 0 0 0 0 0 0 0 0 0 0 0 0 0 0 0 0 0 0 0 0 0 0 0 0 0 0 0 0
0 0 0 0 0 0 0 0 0 0 0 0 0 0 0 0 0 0 0 0 0 0 0 0 0 0 0 0 0 0 0 0 0 0 0 0 0 0 0 0 0 0 0
0 0 0 0 0 0 0 0 0 0 0 0 0 0 0 0 0 0 0 0 0 0 0 0 0 0 0 0 0 0 0 0 0 0 0 0 0 0 0 0 0 0 0
0 0 0 0 0 0 0 0 0 0 0 0 0 0 0 0 0 0 0 0 0 0 0 0 0 0 0 0 0 0 0 0 0 0 0 0 0 0 0 0 0 0 0
0 0 0 0 0 0 0 0 0 0 0 0 0 0 0 0 0 0 0 0 0 0 0 0 0 0 0 0 0 0 0 0 0 0 0 0 0 0 0 0 0 0 0
0 0 0 0 0 0 0 0 0 0 0 0 0 0 0 0 0 0 0 0 0 0 0 0 0 0 0 0 0 0 0 0 0 1 0 0 0 0 0 0 0 0 0
0 0 0 0 0 0 0 0 0 0 0 0 0 0 0 0 0 0 0 0 0 0 4 1 1 2 5 7 2 1 0 0 0 0 1 0 0 0 0 0 0 0 0
0 0 0 0 0 0 0 0 0 0 0 0 0 0 0 0 0 0 0 0 0 0 13 32 50 50 79 86 69 47 12 8 2 1 3 1 0 0 0 0 0 0 0

GFSSE_con_sbcape_009.txt.gz
CAPE
1 0 432 754 592 573 246 109 20 1 0 0 3 7 6 6 0 25 5 17 18 5 0 0 15 46 43 51 43 25 4 0 0 0 0 1 7 27 15 18 12 4 10
4 2 666 668 709 494 266 53 6 0 0 0 4 1 19 25 12 9 20 28 22 12 3 3 2 38 29 15 35 13 2 0 0 0 0 0 23 21 1 3 39 37 36
34 131 409 934 776 545 298 57 10 0 0 0 5 7 40 30 33 20 18 22 27 19 1 1 2 23 15 43 26 13 0 0 0 0 0 0 2 4 17 7 26 37 28
114 234 326 987 888 685 308 23 6 0 0 0 1 15 39 25 21 25 10 1 5 2 4 6 3 5 4 34 38 18 0 0 0 0 0 0 0 11 6 0 12 13 18
183 264 338 1080 979 480 256 17 0 0 0 1 0 29 57 41 29 25 10 2 0 4 1 9 6 1 0 1 1 12 0 0 0 0 0 0 0 0 1 1 2 0 0
173 229 444 1312 827 475 209 52 0 0 0 0 12 17 70 28 22 16 2 0 0 0 0 1 0 2 0 0 0 7 0 0 0 0 0 0 0 0 0 0 0 0 0
102 217 659 1272 933 507 195 30 0 0 0 0 36 32 31 42 22 5 0 0 0 0 0 0 0 0 0 1 0 9 1 0 0 0 0 0 0 0 0 0 0 0 0
47 252 714 1123 1106 840 364 51 0 0 0 0 3 17 16 27 13 1 8 3 2 3 1 0 0 0 2 3 4 6 11 0 0 0 0 0 0 0 0 0 0 0 0
6 233 554 827 823 788 506 341 181 0 0 10 21 18 19 22 6 2 1 1 12 10 15 8 1 0 0 2 6 2 11 1 0 0 0 0 0 0 0 0 0 0 0
67 261 419 540 508 326 114 356 206 27 12 29 24 15 7 0 0 9 24 0 6 16 17 15 1 0 0 0 4 13 10 3 0 0 0 0 0 1 0 0 0 0 0
26 156 264 227 113 21 0 15 146 30 5 0 5 2 1 0 0 0 0 0 0 12 24 21 6 1 0 0 0 12 18 0 0 0 0 0 0 0 1 4 0 0 0
8 29 75 27 0 0 0 0 0 0 0 0 0 0 0 0 0 0 0 0 0 0 13 7 5 6 5 0 0 0 0 0 0 0 0 0 0 0 3 3 3 0 0
0 0 4 0 0 0 0 0 0 0 0 0 0 0 0 0 0 0 0 0 0 0 0 0 0 0 0 0 0 0 0 0 0 0 0 0 0 0 4 11 12 4 0
0 0 0 0 0 0 0 0 0 0 0 0 0 0 0 0 0 0 0 0 0 0 0 0 0 0 0 0 0 0 0 0 0 0 0 0 0 0 0 8 24 24 5
0 0 0 0 0 0 0 0 0 0 0 0 0 0 0 0 0 0 0 0 0 0 0 0 0 0 0 0 0 0 0 0 0 0 0 0 0 0 0 0 24 39 27
0 0 0 0 0 0 0 0 0 0 0 0 0 0 0 0 0 0 0 0 0 0 0 0 0 0 0 0 0 0 0 0 0 0 0 0 0 0 0 0 2 19 45
0 0 0 0 0 0 0 0 0 0 0 0 0 0 0 0 0 0 0 0 0 0 0 0 0 0 0 0 0 0 0 0 0 0 0 0 0 0 0 0 0 2 44
0 0 0 0 0 0 0 0 0 0 0 0 0 0 0 0 0 0 0 0 0 0 0 0 0 0 0 0 0 0 0 0 0 0 0 0 0 0 0 0 0 0 0
0 0 0 0 0 0 0 0 0 0 0 0 0 0 0 0 0 0 0 0 0 0 0 0 0 0 0 0 0 0 0 0 0 0 0 0 0 0 0 0 0 0 0
0 0 0 0 0 0 0 0 0 0 0 0 0 0 0 0 0 0 0 0 0 0 0 0 0 0 0 0 0 0 0 0 0 0 0 0 0 0 0 0 0 0 0
0 0 0 0 0 0 0 0 0 0 0 0 0 0 0 0 0 0 0 0 0 0 0 0 0 0 0 0 0 0 0 0 0 0 0 0 0 0 0 0 0 0 0
0 0 0 0 0 0 0 0 0 0 0 0 0 0 0 0 0 0 0 0 0 0 0 0 0 0 0 0 0 0 0 0 0 0 0 0 0 0 0 0 0 0 0
0 0 0 0 0 0 0 0 0 0 0 0 0 0 0 0 0 0 0 0 0 0 0 0 0 0 0 0 0 0 0 0 0 0 0 0 0 0 0 0 0 0 0
0 0 0 0 0 0 0 0 0 0 0 0 0 0 0 0 0 0 0 0 0 0 0 0 0 0 0 0 0 0 0 1 9 16 0 0 0 0 0 0 0 0 0
0 0 0 0 0 0 0 0 0 0 0 0 0 0 0 0 0 0 0 0 0 0 0 0 0 29 51 33 32 34 21 0 0 1 1 2 0 0 0 0 0 0 0
0 0 0 0 0 0 0 0 0 0 0 0 0 0 0 0 0 0 0 0 0 0 0 0 0 0 0 26 61 69 74 60 68 41 32 27 12 2 0 0 0 0 0

GFSSE_con_sbcape_012.txt.gz
CAPE
0 0 471 949 408 423 413 152 43 22 0 0 0 1 4 3 0 0 6 15 13 9 4 0 0 66 56 49 40 21 0 0 0 0 0 0 10 30 17 23 2 0 0
1 0 652 958 642 544 285 155 23 1 0 0 0 3 8 11 13 0 7 21 4 1 3 0 0 28 22 20 17 19 6 0 0 0 0 0 4 18 1 11 29 18 22
4 9 384 1046 747 632 355 233 23 1 0 0 0 0 16 25 32 14 20 24 24 9 2 5 0 7 4 32 36 21 9 0 0 0 0 0 0 0 2 12 46 51 43
19 69 254 965 770 583 484 250 36 4 0 0 0 1 54 35 10 6 6 1 6 1 1 1 4 1 4 16 55 16 3 0 0 0 0 0 0 3 12 1 23 28 26
91 165 243 961 896 750 464 224 64 0 0 0 0 0 52 20 21 31 6 1 0 0 1 0 11 10 1 3 7 14 4 0 0 0 0 0 0 3 10 3 9 6 0
98 158 286 947 991 690 449 213 64 0 1 0 0 13 54 38 22 30 7 0 2 0 0 0 10 6 7 0 0 6 8 0 0 0 0 0 0 0 4 0 0 0 0
93 123 232 744 997 639 496 286 81 0 0 0 17 22 36 53 34 11 0 0 0 0 1 1 0 5 3 1 0 2 9 4 0 0 0 0 0 0 4 1 0 0 0
86 144 274 939 1074 881 522 304 122 0 0 0 6 15 16 18 38 2 0 0 0 4 6 8 6 1 1 9 8 8 12 24 0 0 0 0 0 0 13 7 0 0 0
42 156 342 678 796 834 682 506 289 20 5 0 2 14 9 13 6 3 2 9 3 12 22 32 25 19 6 3 5 9 18 23 0 0 0 0 0 0 16 9 4 0 0
14 112 260 424 527 438 352 513 426 303 88 48 43 26 9 4 0 5 12 18 0 11 33 30 35 27 17 5 1 7 18 18 1 0 0 0 0 0 9 10 5 1 0
7 67 166 268 312 225 103 62 359 264 78 30 12 8 4 0 0 0 0 0 4 8 15 32 43 32 35 19 0 0 4 0 0 0 0 0 0 0 7 22 16 10 2
2 50 107 130 113 46 82 1 2 0 0 0 0 0 0 0 0 0 0 0 0 17 17 12 20 36 28 0 0 0 0 0 0 0 0 0 0 0 3 14 21 22 13
0 5 51 25 1 0 1 0 0 0 0 0 0 0 0 0 0 0 0 0 0 0 0 0 0 0 0 0 0 0 0 0 0 0 0 0 0 0 0 3 14 40 29
0 0 4 2 0 0 0 0 0 0 0 0 0 0 0 0 0 0 0 0 0 0 0 0 0 0 0 0 0 0 0 0 0 0 0 0 0 0 0 0 5 31 139
0 0 0 0 0 0 0 0 0 0 0 0 0 0 0 0 0 0 0 0 0 0 0 0 0 0 0 0 0 0 0 0 0 0 0 0 0 0 0 0 0 5 21
0 0 0 0 0 0 0 0 0 0 0 0 0 0 0 0 0 0 0 0 0 0 0 0 0 0 0 0 0 0 0 0 0 0 0 0 0 0 0 0 0 0 2
0 0 0 0 0 0 0 0 0 0 0 0 0 0 0 0 0 0 0 0 0 0 0 0 0 0 0 0 0 0 0 0 0 0 0 0 0 0 0 0 0 0 0
0 0 0 0 0 0 0 0 0 0 0 0 0 0 0 0 0 0 0 0 0 0 0 0 0 0 0 0 0 0 0 0 0 0 0 0 0 0 0 0 0 0 0
0 0 0 0 0 0 0 0 0 0 0 0 0 0 0 0 0 0 0 0 0 0 0 0 0 0 0 0 0 0 0 0 0 0 0 0 0 0 0 0 0 0 0
0 0 0 0 0 0 0 0 0 0 0 0 0 0 0 0 0 0 0 0 0 0 0 0 0 0 0 0 0 0 0 0 0 0 0 0 0 0 0 0 0 0 0
0 0 0 0 0 0 0 0 0 0 0 0 0 0 0 0 0 0 0 0 0 0 0 0 0 0 0 0 0 0 0 0 0 0 0 0 0 0 0 0 0 0 0
0 0 0 0 0 0 0 0 0 0 0 0 0 0 0 0 0 0 0 0 0 0 0 0 0 0 0 0 0 0 0 1 0 0 0 0 0 0 0 0 0 0 0
0 0 0 0 0 0 0 0 0 0 0 0 0 0 0 0 0 0 0 0 0 0 0 0 0 7 12 1 0 0 9 36 39 5 0 0 0 0 0 0 0 0 0
0 0 0 0 0 0 0 0 0 0 0 0 0 0 0 0 0 0 0 0 0 0 0 0 0 0 5 20 21 26 20 25 53 30 26 0 0 0 0 0 0 0 0
0 0 0 0 0 0 0 0 0 0 0 0 0 0 0 0 0 0 0 0 0 0 0 0 0 0 0 0 0 1 4 0 6 37 12 1 0 10 1 0 0 0 0
0 0 0 0 0 0 0 0 0 0 0 0 0 0 0 0 0 0 0 0 0 0 0 0 0 0 0 0 0 0 0 7 11 18 15 6 9 1 1 9 11 0 0

GFSSE_con_sbcape_015.txt.gz
CAPE
8 0 417 924 764 454 184 100 48 14 0 0 0 0 0 0 0 0 3 5 8 2 0 0 0 56 43 40 31 22 2 0 0 0 0 0 0 18 9 8 0 0 0
13 5 645 1167 482 536 342 144 95 28 0 0 0 3 0 6 0 0 3 6 9 2 0 0 0 27 27 6 15 22 6 0 0 0 0 0 0 12 1 3 25 5 15
22 23 452 1204 953 649 343 231 77 17 0 0 0 0 3 14 17 12 15 10 13 12 1 0 0 4 10 5 19 21 16 2 0 0 0 0 0 9 0 8 44 59 52
30 63 370 1261 892 665 440 304 133 24 0 0 0 3 13 30 11 2 0 0 7 2 3 0 0 3 13 6 61 17 8 1 0 0 0 0 2 1 5 16 31 42 35
50 91 317 1050 975 739 577 366 158 22 0 0 0 13 51 35 18 6 3 0 0 0 0 0 1 4 9 2 8 19 4 0 0 0 0 0 0 0 20 8 8 33 8
99 153 331 988 961 981 492 309 165 34 0 0 0 6 36 57 21 8 0 0 0 0 0 0 0 14 10 8 6 8 20 13 0 0 0 0 0 0 6 13 10 12 5
150 227 273 670 866 941 486 290 173 40 0 0 5 22 23 87 32 4 0 0 0 0 0 2 2 1 11 12 9 10 11 23 5 0 0 0 0 10 19 12 6 3 2
169 221 246 571 1125 953 629 383 238 60 0 0 1 23 29 23 14 7 1 0 0 2 10 11 12 4 2 4 13 10 24 11 7 2 0 0 0 2 0 17 9 5 4
147 213 264 369 882 872 788 588 455 195 24 14 11 12 5 8 2 1 0 6 18 19 10 22 38 33 30 17 12 9 25 30 13 18 0 0 0 0 13 20 28 21 13
108 193 283 386 838 782 614 515 481 373 242 145 69 30 15 6 0 7 15 17 22 21 20 36 38 43 37 39 23 27 29 30 10 15 5 0 0 0 18 29 35 22 17
42 119 238 386 698 676 532 366 399 314 220 73 20 10 5 2 0 0 0 0 0 11 14 18 32 44 50 42 16 9 5 0 0 2 4 0 0 0 0 19 26 36 29
21 96 183 298 495 580 430 371 314 225 135 5 0 0 0 0 0 0 0 0 0 0 0 0 1 4 18 7 3 0 0 0 0 0 0 0 1 5 0 0 12 26 36
0 23 134 185 316 410 454 340 209 119 37 0 0 0 0 0 0 0 0 0 0 0 0 0 0 0 0 0 0 0 0 0 0 0 0 0 0 1 5 1 2 10 22
0 0 26 167 226 265 276 253 142 21 0 0 0 0 0 0 0 0 0 0 0 0 0 0 0 0 0 0 0 0 0 0 0 0 0 0 0 0 0 0 0 0 5
0 0 0 20 159 190 127 99 21 0 0 0 0 0 0 0 0 0 0 0 0 0 0 0 0 0 0 0 0 0 0 0 0 0 0 0 0 0 0 0 0 0 0
0 0 0 0 12 77 92 48 9 0 0 0 0 0 0 0 0 0 0 0 0 0 0 0 0 0 0 0 0 0 0 0 0 0 0 0 0 0 0 0 0 0 0
0 0 0 0 0 0 27 19 0 0 0 0 0 0 0 0 0 0 0 0 0 0 0 0 0 0 0 0 0 0 0 0 0 0 0 0 0 0 0 0 0 0 0
0 0 0 0 0 0 0 0 0 0 0 0 0 0 0 0 0 0 0 0 0 0 0 0 0 0 0 0 0 0 0 0 0 0 0 0 0 0 0 0 0 0 0
0 0 0 0 0 0 0 0 0 0 0 0 0 0 0 0 0 0 0 0 0 0 0 0 0 0 0 0 0 0 0 0 0 0 0 0 0 0 0 0 0 0 0
0 0 0 0 0 0 0 0 0 0 0 0 0 0 0 0 0 0 0 0 0 0 0 0 1 1 0 1 0 0 2 1 0 0 0 0 0 0 0 0 0 0 0
0 0 0 0 0 0 0 0 0 0 0 0 0 0 0 0 0 0 0 0 0 0 0 1 4 3 5 13 1 0 0 4 0 0 0 0 0 0 0 0 0 0 0
0 0 0 0 0 0 0 0 0 0 0 0 0 0 0 0 0 0 0 0 0 0 0 0 0 0 2 4 29 33 29 6 14 15 11 0 0 0 0 0 0 0 0
0 0 0 0 0 0 0 0 0 0 0 0 0 0 0 0 0 0 0 0 0 0 0 0 0 0 0 0 0 9 17 20 8 0 11 4 3 3 0 0 0 0 0
0 0 0 0 0 0 0 0 0 0 0 0 0 0 0 0 0 0 0 0 0 0 0 0 0 0 0 0 0 0 0 3 5 6 0 0 1 5 3 1 8 5 0
0 0 0 0 0 0 0 0 0 0 0 0 0 0 0 0 0 0 0 0 0 0 0 0 0 0 0 0 0 0 0 0 0 13 13 1 9 4 6 10 1 7 19
0 0 0 0 0 0 0 0 0 0 0 0 0 0 0 0 0 0 0 0 0 0 0 0 0 0 0 0 0 0 7 22 35 47 36 11 14 2 14 25 32 29 48

GFSSE_con_sbcape_018.txt.gz
CAPE
25 9 662 930 903 539 256 114 45 2 0 0 0 0 0 0 0 0 0 0 4 3 0 0 0 12 48 40 29 14 7 1 0 0 0 0 0 15 10 0 0 0 0
18 5 623 814 955 564 233 137 108 21 0 0 0 0 3 0 0 0 0 1 12 2 0 0 0 11 33 4 8 16 13 2 0 0 0 0 0 2 6 0 4 8 4
31 4 490 1322 1000 628 332 222 159 66 7 0 0 0 5 18 16 4 13 5 9 2 0 0 0 5 9 7 22 15 14 3 0 0 0 0 0 0 0 0 7 45 34
35 22 350 1365 1025 843 435 308 167 56 6 0 0 0 12 33 15 18 0 0 1 0 0 0 0 0 1 14 35 27 5 3 1 0 0 0 0 0 0 0 9 31 53
57 63 179 1395 1024 865 580 354 189 85 23 0 0 0 12 62 13 3 1 0 0 0 0 0 0 0 4 11 9 11 15 2 1 0 0 0 7 0 0 24 0 15 30
72 96 397 1270 1007 973 783 449 219 100 34 0 0 0 15 97 32 13 0 0 0 0 0 0 0 6 11 12 0 16 24 19 9 12 0 0 3 6 0 11 12 6 19
90 113 172 823 1051 987 742 342 237 116 15 0 0 11 25 33 133 17 0 0 0 0 0 0 3 2 0 4 10 8 16 20 3 16 5 0 0 16 29 25 22 9 6
130 149 104 506 1041 1210 743 392 263 136 40 3 0 14 28 70 10 6 2 0 0 4 8 14 14 15 10 4 3 7 9 35 6 9 12 2 0 0 27 37 22 19 11
146 165 125 132 386 948 928 748 459 231 116 11 0 13 16 4 0 0 0 5 16 32 18 20 28 39 40 37 29 20 32 29 12 6 7 8 0 0 3 30 19 36 24
177 201 171 181 318 694 623 619 580 462 316 224 187 76 16 0 0 0 1 8 0 13 14 2 7 32 44 41 20 24 18 7 0 0 1 0 0 0 0 2 23 23 32
143 249 299 264 372 561 521 441 424 358 291 201 76 13 0 2 6 1 0 0 0 0 0 0 0 0 11 16 18 6 0 1 0 0 0 0 0 3 1 1 4 21 28
106 203 313 405 410 575 489 494 451 287 238 132 26 2 0 0 2 0 0 0 0 0 0 0 0 0 0 2 3 0 4 0 0 0 0 0 0 0 1 1 1 4 14
16 91 194 366 458 524 581 529 427 353 247 143 55 4 0 0 0 0 0 0 0 0 0 0 0 0 0 0 2 2 2 2 1 0 0 0 0 0 0 0 2 0 2
0 1 45 197 378 473 553 563 456 373 288 200 74 3 0 0 0 0 0 0 0 0 0 0 0 0 0 1 1 0 2 2 1 0 0 0 0 0 0 0 0 2 4
2 9 11 44 192 350 496 498 490 374 276 163 112 11 0 0 0 0 0 0 0 0 0 1 1 1 0 1 1 0 1 0 0 0 0 0 0 0 0 0 0 0 0
0 0 1 2 22 165 347 440 436 369 255 165 70 16 0 0 0 0 0 0 0 0 0 0 0 0 0 0 0 0 0 2 2 2 2 0 0 0 0 0 0 0 0
0 0 0 0 0 46 181 273 343 315 156 122 36 0 0 0 0 0 0 0 0 1 0 0 0 2 3 4 5 4 5 6 4 5 7 3 2 0 0 0 1 1 1
0 0 0 0 0 0 87 134 149 97 64 39 2 0 0 0 0 0 0 1 1 0 1 3 7 9 12 14 13 14 14 10 4 5 4 3 2 0 0 0 0 0 1
0 0 0 0 0 0 12 18 6 0 0 0 0 0 0 0 0 0 0 2 3 5 6 6 4 5 7 10 5 7 7 5 5 7 9 5 1 0 0 0 0 0 0
0 0 0 0 0 0 0 1 0 0 1 2 1 2 0 0 0 0 0 0 0 0 0 0 0 0 1 6 4 5 3 0 1 4 11 15 22 17 15 13 6 1 0
0 0 0 0 2 5 40 47 0 0 0 0 0 0 0 0 0 0 0 0 0 0 0 0 0 0 0 0 0 0 0 0 7 1 33 36 18 22 31 57 58 46 25
0 0 0 0 0 3 18 0 0 0 0 0 0 0 0 0 0 0 0 0 0 0 0 0 0 0 0 0 0 0 0 0 0 0 0 0 0 0 1 33 55 74 96
0 0 0 0 0 0 0 0 0 0 0 0 0 0 0 0 0 0 0 0 0 0 0 0 0 0 0 0 0 0 0 0 0 0 0 0 0 0 0 0 3 7 19
0 0 0 0 0 0 0 0 0 0 0 0 0 0 0 0 0 0 0 0 0 0 0 0 0 0 0 0 0 0 0 0 0 0 0 0 0 0 0 0 0 0 1
0 0 0 0 0 0 0 0 0 0 0 0 0 0 0 0 0 0 0 0 0 0 0 0 0 0 0 0 0 0 0 0 0 0 0 0 0 0 0 0 0 3 2
0 0 0 0 0 0 0 0 0 0 0 0 0 0 0 0 0 0 0 0 0 0 0 0 0 0 0 0 0 0 0 0 0 0 0 0 0 0 0 0 0 14 31

GFSSE_con_sbcape_021.txt.gz
CAPE
3 357 1238 1122 804 451 310 147 56 1 0 0 0 0 0 0 0 0 2 0 0 2 0 0 0 0 41 39 20 18 9 7 0 0 0 0 0 5 16 0 0 5 0
1 67 1319 1326 882 527 353 140 87 6 0 0 0 0 0 0 0 0 0 0 17 2 0 0 0 5 29 5 14 25 10 13 2 0 0 0 0 0 6 0 0 15 8
0 29 642 1382 1356 675 262 165 143 42 0 0 0 0 1 12 12 1 19 13 23 6 0 0 0 0 3 19 39 41 20 6 0 0 0 0 0 0 0 0 0 6 40
0 26 125 1518 1101 704 377 326 171 89 17 0 0 0 5 18 15 16 0 0 4 5 0 0 0 0 0 4 15 20 8 3 0 0 0 0 0 17 0 0 0 1 41
0 17 852 1526 1150 981 608 346 158 92 14 0 0 0 10 37 51 8 6 0 0 0 0 0 0 0 0 0 3 8 22 20 5 0 0 0 0 2 0 0 11 0 18
17 40 859 1549 1166 988 717 440 174 99 61 0 0 0 15 20 116 16 0 0 0 0 0 0 0 0 0 8 0 0 13 28 14 2 3 0 0 0 3 0 10 9 3
43 66 403 1336 1069 941 935 461 215 111 23 0 0 3 28 51 173 17 5 0 0 0 0 1 1 0 0 0 0 0 7 25 0 0 0 8 0 0 9 14 11 16 8
66 79 126 765 1156 996 984 410 260 134 38 6 0 4 34 78 14 14 12 0 0 0 3 6 18 18 14 6 3 0 1 9 0 0 0 0 3 0 0 5 20 14 19
100 105 96 100 383 826 956 721 423 196 73 26 1 0 10 1 0 0 0 0 0 2 16 0 1 16 18 15 9 7 13 9 0 0 0 0 3 0 0 0 7 23 34
130 142 120 145 179 518 482 650 517 468 298 154 147 102 10 0 0 0 0 0 0 0 0 0 0 0 0 3 16 20 9 0 0 0 0 0 0 0 0 0 0 7 23
99 198 200 195 260 473 458 551 419 332 248 168 90 16 0 0 0 1 0 0 0 0 0 0 0 0 0 0 0 0 1 0 0 0 0 0 0 0 0 1 0 2 7
80 148 268 286 296 452 357 457 389 302 203 144 65 20 13 0 0 0 0 0 0 0 0 0 0 0 0 0 2 3 0 0 1 0 0 0 0 0 0 0 2 4 4
36 108 164 308 356 414 501 406 391 277 196 115 43 7 0 0 0 0 0 0 0 0 0 0 0 0 0 0 0 0 0 0 0 0 0 0 0 0 0 0 0 0 3
0 6 69 130 317 370 471 467 399 310 250 172 76 14 0 0 0 0 0 0 0 0 0 0 0 0 0 0 0 0 0 0 1 1 0 0 0 0 0 0 2 0 0
0 13 20 51 158 292 406 447 446 351 287 199 168 90 11 0 0 0 0 0 0 0 0 0 0 0 3 6 7 6 10 10 13 14 10 1 5 4 0 0 5 12 8
0 9 20 27 39 123 293 419 420 402 304 248 182 151 60 10 2 2 1 3 3 4 4 6 6 10 13 10 15 14 17 26 24 22 23 16 7 9 4 0 0 10 52
0 0 0 0 1 52 188 338 426 421 304 265 215 133 51 12 3 3 3 5 11 14 12 9 11 8 8 8 8 6 22 19 13 8 8 12 23 18 25 29 15 0 11
0 0 0 0 0 0 136 277 354 353 273 233 159 77 26 6 3 4 9 9 9 4 9 6 3 12 8 7 6 0 0 0 0 0 0 5 23 21 22 49 53 30 10
0 0 0 0 0 3 152 223 196 121 86 47 18 12 7 6 4 5 4 1 0 2 1 0 0 0 0 0 0 0 0 0 0 0 0 1 9 37 37 23 24 36 38
0 0 0 4 14 46 82 76 84 80 14 0 0 0 0 0 0 0 0 0 0 0 0 0 0 0 0 0 0 0 0 0 0 0 6 19 21 18 9 20 63 75 40
0 0 0 7 33 74 119 99 0 0 0 0 0 0 0 0 0 0 0 0 0 0 0 0 0 0 0 0 0 0 0 0 0 0 0 0 0 0 0 0 0 22 44
0 0 0 0 16 17 0 0 0 0 0 0 0 0 0 0 0 0 0 0 0 0 0 0 0 0 0 0 0 0 0 0 0 0 0 0 0 0 0 0 0 0 0
0 0 0 0 0 0 0 0 0 0 0 0 0 0 0 0 0 0 0 0 0 0 0 0 0 0 0 0 0 0 0 0 0 0 0 0 0 0 0 0 0 0 0
0 0 0 0 0 0 0 0 0 0 0 0 0 0 0 0 0 0 0 0 0 0 0 0 0 0 0 0 0 0 0 0 0 0 0 0 0 0 0 0 0 0 0
0 0 0 0 0 0 0 0 0 0 0 0 0 0 0 0 0 0 0 0 0 0 0 0 0 0 0 0 0 0 0 0 0 0 0 0 0 0 0 0 0 0 0
0 0 0 0 0 0 0 0 0 0 0 0 0 0 0 0 0 0 0 0 0 0 0 0 0 0 0 0 0 0 0 0 0 0 0 0 0 0 0 0 0 0 14

GFSSE_con_sbcape_024.txt.gz
CAPE
80 580 1680 1074 809 532 334 153 46 1 0 0 0 0 0 0 0 0 0 0 13 9 11 13 16 1 48 40 10 13 21 11 0 0 0 0 0 0 17 0 0 10 0
301 453 1679 1377 812 477 429 164 85 18 5 0 0 0 0 0 0 0 0 11 17 13 11 15 35 43 22 11 22 28 15 22 3 0 0 0 0 0 0 0 0 10 34
103 680 1337 1640 1331 788 485 168 98 30 0 0 0 0 1 4 5 1 3 11 24 8 1 0 1 6 18 21 21 37 17 10 4 0 0 0 0 0 0 0 0 0 39
20 533 732 1616 1386 827 507 276 154 56 6 0 0 0 9 21 17 9 0 0 0 0 0 0 0 0 0 0 0 2 17 8 3 0 0 0 0 14 6 0 0 0 3
1 91 664 1712 1504 1042 699 359 169 84 0 0 0 0 14 21 40 1 5 0 0 0 0 0 0 0 0 0 0 0 10 27 17 0 0 0 0 0 17 0 0 0 0
0 973 1399 1578 1553 1460 1149 323 148 93 45 0 0 0 11 14 110 20 6 0 0 0 0 0 0 0 0 0 0 0 0 0 0 0 0 0 0 0 0 4 0 0 0
41 680 1226 1598 1497 1296 1076 467 196 92 28 0 0 0 30 42 94 28 9 0 0 0 0 0 0 0 0 0 0 0 0 0 0 0 0 0 0 0 0 6 11 4 3
36 237 786 1314 1346 1268 1133 564 281 110 28 4 0 0 12 36 29 53 17 0 0 0 0 0 0 2 13 5 1 1 1 0 0 0 0 0 0 0 0 0 2 5 23
59 72 154 636 896 843 1094 706 558 224 84 36 1 0 5 3 0 0 0 0 0 0 0 0 0 0 1 9 17 20 18 2 0 0 0 0 0 0 1 0 0 1 9
86 76 69 55 243 267 655 672 561 425 228 103 65 30 3 0 0 6 5 20 0 0 0 0 0 0 0 0 0 2 8 0 0 0 0 0 0 0 0 0 0 0 2
83 92 66 67 101 309 411 444 498 379 253 130 59 29 4 0 0 0 0 0 0 0 0 0 0 0 0 0 0 0 0 0 0 0 0 0 0 0 0 0 0 2 2
63 95 129 101 131 272 288 287 198 115 103 71 33 4 0 0 0 0 0 0 0 0 0 0 0 0 0 0 0 0 0 0 0 0 0 0 0 0 0 0 0 1 4
35 47 100 159 142 245 226 192 271 140 113 79 35 1 0 0 0 0 0 0 0 0 0 0 0 0 0 0 0 0 0 0 0 0 0 10 29 3 0 0 0 1 7
3 13 71 70 180 165 284 223 199 147 116 65 27 1 0 0 0 0 0 0 0 0 0 0 0 0 0 0 0 0 0 0 0 0 0 3 45 37 20 23 34 21 22
0 0 0 35 36 179 173 260 239 161 132 103 76 37 0 0 0 0 0 0 0 0 0 0 0 0 1 1 2 4 5 2 5 3 0 8 26 89 95 49 43 47 53
0 0 0 0 5 34 161 229 239 224 167 128 126 88 44 6 0 0 0 1 2 3 2 1 2 1 5 5 4 8 3 5 3 1 0 0 4 62 136 102 69 112 126
0 0 0 0 0 0 35 224 244 270 205 198 139 90 46 18 2 0 1 7 6 2 1 1 0 1 2 0 0 0 0 0 0 0 0 0 0 0 50 163 279 181 104
0 0 0 0 0 0 22 172 247 248 199 161 87 41 15 0 0 0 0 0 0 1 0 0 0 0 0 0 0 0 0 0 0 0 0 0 0 0 20 132 212 164 189
0 0 0 0 0 0 77 72 70 72 35 8 0 0 0 0 0 0 0 0 0 0 0 0 0 0 0 0 0 0 0 0 0 0 0 0 0 0 0 0 28 98 160
0 0 0 0 1 17 14 0 0 0 0 0 0 0 0 0 0 0 0 0 0 0 0 0 0 0 0 0 0 0 0 0 0 0 0 0 0 0 0 0 0 0 1
0 0 0 0 0 0 3 0 0 0 0 0 0 0 0 0 0 0 0 0 0 0 0 0 0 0 0 0 0 0 0 0 0 0 0 0 0 0 0 0 0 0 0
0 0 0 0 0 0 0 0 0 0 0 0 0 0 0 0 0 0 0 0 0 0 0 0 0 0 0 0 0 0 0 0 0 0 0 0 0 0 0 0 0 0 0
0 0 0 0 0 0 0 0 0 0 0 0 0 0 0 0 0 0 0 0 0 0 0 0 0 0 0 0 0 0 0 0 0 0 0 0 0 0 0 0 0 0 0
0 0 0 0 0 0 0 0 0 0 0 0 0 0 0 0 0 0 0 0 0 0 0 0 0 0 0 0 0 0 0 0 0 0 0 0 0 0 0 0 0 0 0
0 0 0 0 0 0 0 0 0 0 0 0 0 0 0 0 0 0 0 0 0 0 0 0 0 0 0 0 0 0 0 0 0 0 0 0 0 0 0 0 0 0 0
0 0 0 0 0 0 0 0 0 0 0 0 0 0 0 0 0 0 0 0 0 0 0 0 0 0 0 0 0 0 0 0 0 0 0 0 0 0 0 0 0 0 0

GFSSE_con_sbcape_027.txt.gz
CAPE
345 1172 1709 1033 830 599 298 153 22 5 0 0 0 0 0 0 0 1 0 0 14 12 12 34 22 22 65 30 11 23 22 12 1 0 0 0 0 0 3 0 0 0 5
380 1174 1663 1429 825 667 435 168 35 15 0 0 0 0 0 0 0 0 0 15 6 9 1 16 25 26 36 32 32 19 25 15 7 0 0 0 0 0 0 0 0 0 31
680 1186 1259 1564 1290 783 527 201 68 21 0 0 0 0 3 13 8 14 6 4 5 6 0 0 0 2 17 17 3 5 7 15 6 0 0 0 0 0 0 1 0 0 3
589 1052 1172 1593 1452 960 528 160 75 29 0 0 0 0 3 28 20 8 0 0 0 0 0 0 0 0 0 0 0 0 0 3 0 0 0 0 0 0 2 8 0 0 0
789 974 1155 1711 1613 1378 773 319 98 51 0 0 0 0 9 26 33 5 5 0 0 0 0 0 0 0 0 0 0 0 0 0 0 0 0 0 0 0 6 10 0 0 0
125 378 1330 1805 1718 1498 1149 488 115 46 6 0 0 0 0 11 60 13 6 0 0 0 0 0 0 0 0 0 0 0 0 0 0 0 0 0 0 0 0 3 0 0 1
633 749 1249 1781 1784 1633 1099 310 149 72 36 0 0 0 19 33 92 28 9 0 0 0 0 0 0 0 0 0 0 0 0 0 0 0 0 0 0 0 1 0 13 15 7
710 1012 1249 1507 1670 1571 1041 536 237 94 35 0 0 5 15 37 130 56 2 0 0 0 0 0 0 0 12 17 12 5 4 0 0 0 0 0 0 0 3 4 1 4 11
365 684 849 1051 1084 1183 1160 721 560 180 78 41 0 0 22 5 2 0 31 0 0 0 0 0 0 0 0 3 8 28 36 1 0 0 0 0 0 0 0 4 4 1 2
73 161 529 682 730 616 654 614 568 383 242 145 58 9 2 0 0 27 34 31 3 0 0 0 0 0 0 0 0 1 0 0 0 0 0 0 0 0 0 1 2 3 5
5 29 104 204 308 219 550 470 454 332 201 112 53 27 0 0 0 0 0 0 47 0 0 0 0 0 0 0 0 0 0 0 0 0 0 0 0 0 0 0 2 0 4
33 12 1 47 48 81 571 373 264 204 106 45 20 0 0 0 0 0 0 0 0 0 0 0 0 16 0 0 0 0 0 0 0 0 0 0 0 5 13 64 47 24 0
4 23 5 0 2 78 260 203 158 57 35 26 14 0 0 0 0 0 0 0 0 0 0 0 0 0 0 0 0 0 0 0 0 0 0 11 52 51 90 148 142 127 59
0 17 40 16 0 10 103 109 87 40 24 24 14 0 0 0 0 0 0 0 0 0 0 0 0 0 0 0 0 0 0 0 0 0 0 11 81 92 87 221 292 242 298
0 0 12 9 5 0 20 35 31 65 30 0 0 0 0 0 0 0 0 0 0 0 0 0 0 0 0 1 2 5 4 0 0 0 0 0 20 80 66 54 80 321 201
0 0 0 0 0 0 10 68 68 35 41 27 42 24 0 0 0 0 0 0 0 0 0 0 0 0 2 0 0 0 0 0 0 0 0 0 0 0 26 24 79 105 87
0 0 0 0 0 0 6 38 71 91 82 79 47 49 23 3 0 0 0 0 0 0 0 0 0 0 0 0 0 0 0 0 0 0 0 0 0 0 0 0 0 6 42
0 0 0 0 0 0 0 34 80 73 23 2 0 0 0 0 0 0 0 0 0 0 0 0 0 0 0 0 0 0 0 0 0 0 0 0 0 0 0 0 0 0 0
0 0 0 0 0 0 0 0 0 0 0 0 0 0 0 0 0 0 0 0 0 0 0 0 0 0 0 0 0 0 0 0 0 0 0 0 0 0 0 0 0 0 0
0 0 0 0 0 0 0 0 0 0 0 0 0 0 0 0 0 0 0 0 0 0 0 0 0 0 0 0 0 0 0 0 0 0 0 0 0 0 0 0 0 0 0
0 0 0 0 0 0 0 0 0 0 0 0 0 0 0 0 0 0 0 0 0 0 0 0 0 0 0 0 0 0 0 0 0 0 0 0 0 0 0 0 0 0 0
0 0 0 0 0 0 0 0 0 0 0 0 0 0 0 0 0 0 0 0 0 0 0 0 0 0 0 0 0 0 0 0 0 0 0 0 0 0 0 0 0 0 0
0 0 0 0 0 0 0 0 0 0 0 0 0 0 0 0 0 0 0 0 0 0 0 0 0 0 0 0 0 0 0 0 0 0 0 0 0 0 0 0 0 0 0
0 0 0 0 0 0 0 0 0 0 0 0 0 0 0 0 0 0 0 0 0 0 0 0 0 0 0 0 0 0 0 0 0 0 0 0 0 0 0 0 0 0 0
0 0 0 0 0 0 0 0 0 0 0 0 0 0 0 0 0 0 0 0 0 0 0 0 0 0 0 0 0 0 0 0 0 0 0 0 0 0 0 0 0 0 0
0 0 0 0 0 0 0 0 0 0 0 0 0 0 0 0 0 0 0 0 0 0 0 0 0 0 0 0 0 0 0 0 0 0 0 0 0 0 0 0 0 0 0

GFSSE_con_sbcape_030.txt.gz
CAPE
276 1140 1808 1105 933 594 302 63 2 0 0 0 0 0 6 5 29 9 0 3 4 7 10 39 1 108 93 21 18 26 9 1 0 0 0 0 0 0 0 0 0 0 8
450 1261 1699 1341 959 622 374 54 22 0 0 0 0 0 0 0 0 0 0 7 1 0 0 10 7 39 24 33 17 4 0 0 0 0 0 0 0 0 0 3 0 0 15
1074 1175 1318 1591 1390 704 408 79 46 2 0 0 0 0 2 10 2 11 7 0 3 0 0 0 0 2 8 13 2 0 0 0 0 0 0 0 0 0 0 0 0 0 0
1044 1122 1130 1634 1444 793 397 106 58 15 0 0 0 0 8 11 19 8 0 0 0 0 0 0 0 0 0 0 0 0 0 0 0 0 0 0 0 0 0 7 18 0 0
927 1065 1112 1659 1628 1348 656 135 61 25 0 0 0 0 9 27 27 4 0 0 0 0 0 0 0 0 0 0 0 0 0 0 0 0 0 0 0 0 2 32 26 7 0
685 979 1251 1695 1715 1523 987 236 93 35 0 0 0 0 4 15 24 0 4 0 0 0 0 0 0 0 0 0 0 0 0 0 0 0 0 0 0 0 0 2 26 15 5
439 711 1267 1851 1879 1564 1175 378 167 48 15 0 0 0 2 19 63 17 5 0 0 0 0 0 0 0 0 0 0 0 0 0 0 0 0 0 0 0 0 15 9 35 21
328 699 1164 1696 1753 1648 1114 548 288 127 41 0 0 6 33 47 90 45 0 0 0 0 0 0 0 0 1 18 42 10 31 10 0 0 0 0 0 0 0 12 15 8 8
784 992 1136 1285 1404 1340 923 774 559 184 72 4 0 17 15 10 135 78 55 3 0 0 0 0 0 0 0 0 0 15 145 113 0 0 0 0 0 0 0 0 9 13 12
662 862 888 842 892 875 768 646 547 310 176 113 28 26 25 0 0 47 116 78 1 3 0 0 0 0 0 0 0 29 37 9 0 0 0 0 0 0 0 0 0 8 8
286 409 722 721 665 583 514 446 468 309 165 105 46 6 0 0 0 0 0 1 38 26 5 0 0 0 35 33 26 21 0 0 0 0 0 0 0 19 17 19 85 17 5
19 71 306 491 453 318 682 372 249 172 49 17 6 0 0 0 0 0 0 2 18 90 37 1 6 74 37 0 0 0 0 0 0 0 0 1 25 63 90 182 138 150 97
0 4 70 122 153 105 368 259 180 91 27 5 0 0 0 0 0 0 0 0 0 0 0 0 0 0 0 0 0 0 0 0 0 0 1 18 42 70 97 291 298 126 107
0 0 18 38 44 44 196 253 175 51 7 1 0 0 0 0 0 0 0 0 0 0 0 0 0 0 0 0 0 0 0 0 0 0 0 0 10 7 12 15 33 135 175
0 0 3 9 22 13 161 190 37 22 6 3 0 0 0 0 0 0 0 0 0 0 0 0 0 0 0 0 0 0 0 0 0 0 0 0 0 0 0 0 2 8 26
0 0 0 0 0 0 161 58 16 12 25 7 0 0 0 0 0 0 0 0 0 0 0 0 0 0 0 0 0 0 0 0 0 0 0 0 0 0 0 0 0 0 0
0 0 0 0 0 0 4 13 3 20 21 14 3 0 0 0 0 0 0 0 0 0 0 0 0 0 0 0 0 0 0 0 0 0 0 0 0 0 0 0 0 0 0
0 0 0 0 0 0 0 0 10 3 0 0 0 0 0 0 0 0 0 0 0 0 0 0 0 0 0 0 0 0 0 0 0 0 0 0 0 0 0 0 0 0 0
0 0 0 0 0 0 0 0 0 0 0 0 0 0 0 0 0 0 0 0 0 0 0 0 0 0 0 0 0 0 0 0 0 0 0 0 0 0 0 0 0 0 0
0 0 0 0 0 0 0 0 0 0 0 0 0 0 0 0 0 0 0 0 0 0 0 0 0 0 0 0 0 0 0 0 0 0 0 0 0 0 0 0 0 0 0
0 0 0 0 0 0 0 0 0 0 0 0 0 0 0 0 0 0 0 0 0 0 0 0 0 0 0 0 0 0 0 0 0 0 0 0 0 0 0 0 0 0 0
0 0 0 0 0 0 0 0 0 0 0 0 0 0 0 0 0 0 0 0 0 0 0 0 0 0 0 0 0 0 0 0 0 0 0 0 0 0 0 0 0 0 0
0 0 0 0 0 0 0 0 0 0 0 0 0 0 0 0 0 0 0 0 0 0 0 0 0 0 0 0 0 0 0 0 0 0 0 0 0 0 0 0 0 0 0
0 0 0 0 0 0 0 0 0 0 0 0 0 0 0 0 0 0 0 0 0 0 0 0 0 0 0 0 0 0 0 0 0 0 0 0 0 0 0 0 0 0 0
0 0 0 0 0 0 0 0 0 0 0 0 0 0 0 0 0 0 0 0 0 0 0 0 0 0 0 0 0 0 0 0 0 0 0 0 0 0 0 0 0 0 0
0 0 0 0 0 0 0 0 0 0 0 0 0 0 0 0 0 0 0 0 0 0 0 0 0 0 0 0 0 0 0 0 0 0 0 0 0 0 0 0 0 0 0

GFSSE_con_sbcape_036.txt.gz
CAPE
62 331 1983 1419 898 567 219 52 6 0 0 0 0 0 6 13 5 0 0 0 0 0 14 2 0 119 110 104 71 13 0 0 0 0 0 0 0 0 0 9 0 0 9
56 541 1976 1644 1210 567 202 74 9 0 0 0 0 5 11 57 9 2 0 0 0 0 7 28 63 54 113 61 35 11 0 0 0 0 0 0 0 0 0 0 7 0 5
236 1034 1432 1612 1183 600 250 84 18 0 0 0 0 0 6 8 1 0 0 3 2 0 0 8 3 14 27 15 7 2 0 0 0 0 0 0 0 0 3 1 0 0 0
779 1127 1051 1727 1468 663 211 91 35 0 0 0 0 0 7 6 2 0 0 0 0 0 0 0 0 0 0 0 0 0 0 0 0 0 0 0 0 0 0 4 12 30 28
1009 1008 1034 1802 1620 1115 305 132 66 19 0 0 0 7 13 10 14 0 0 0 0 0 0 0 0 0 0 0 0 0 0 0 2 0 0 0 0 0 0 0 18 72 28
806 791 1226 1833 1702 1398 724 237 116 50 10 0 0 2 16 31 28 9 0 0 0 0 0 0 0 0 0 0 0 0 0 0 0 0 0 0 0 0 0 0 4 6 19
657 688 1242 1922 1806 1379 742 383 180 102 34 0 0 0 10 22 73 12 7 0 0 0 0 0 0 0 0 0 4 6 5 9 0 0 0 0 0 0 0 0 7 19 20
744 805 1110 1746 1799 1727 1229 693 423 168 67 2 0 0 5 23 64 41 16 0 0 0 0 0 0 0 0 0 6 12 40 72 5 0 0 0 0 2 5 3 1 3 15
672 867 1014 1397 1565 1604 1192 1011 768 328 145 30 0 0 41 48 79 49 26 1 0 0 0 1 0 0 1 0 0 9 55 55 8 0 0 0 0 27 142 131 83 36 14
495 803 925 1180 1283 1191 912 937 797 594 396 96 58 95 33 0 63 105 69 46 0 0 0 2 0 0 0 0 0 66 58 22 0 0 0 0 2 122 259 324 346 307 237
558 725 860 1117 1063 928 716 692 681 551 322 112 41 40 10 0 0 0 0 15 41 14 17 24 11 14 74 28 4 0 0 0 0 0 0 0 17 174 298 327 334 303 331
563 649 974 913 884 775 783 522 383 278 144 49 1 0 0 0 0 0 0 0 1 21 23 17 12 12 0 0 0 0 0 0 0 0 0 0 0 6 19 18 12 14 30
308 507 774 689 695 746 873 333 207 149 68 7 0 0 0 0 0 0 0 0 0 0 0 0 0 0 0 0 0 0 0 0 0 0 0 0 0 0 0 0 0 0 0
0 228 444 623 615 571 505 397 240 152 59 6 0 0 0 0 0 0 0 0 0 0 0 0 0 0 0 0 0 0 0 0 0 0 0 0 0 0 0 0 0 0 0
0 0 98 366 518 492 457 414 244 203 94 22 0 0 0 0 0 0 0 0 0 0 0 0 0 0 0 0 0 0 0 0 0 0 0 0 0 0 0 0 0 0 0
0 0 0 109 282 239 445 328 265 165 86 36 18 0 0 0 0 0 0 0 0 0 0 0 0 0 0 0 0 0 0 0 0 0 0 0 0 0 0 0 0 0 0
0 0 0 0 66 72 244 208 139 61 73 49 16 0 0 0 0 0 0 0 0 0 0 0 0 0 0 0 0 0 0 0 0 0 0 0 0 0 0 0 0 0 0
0 0 0 0 3 8 113 51 7 54 11 0 0 0 0 0 0 0 0 0 0 0 0 0 0 0 0 0 0 0 0 0 0 0 0 0 0 0 0 0 0 0 0
0 0 0 0 0 0 0 0 0 0 0 0 0 0 0 0 0 0 0 0 0 0 0 0 0 0 0 0 0 0 0 0 0 0 0 0 0 0 0 0 0 0 0
0 0 0 0 0 0 0 0 0 0 0 0 0 0 0 0 0 0 0 0 0 0 0 0 0 0 0 0 0 0 0 0 0 0 0 0 0 0 0 0 0 0 0
0 0 0 0 0 0 0 0 0 0 0 0 0 0 0 0 0 0 0 0 0 0 0 0 0 0 0 0 0 0 0 0 0 0 0 0 0 0 0 0 0 0 0
0 0 0 0 0 0 0 0 0 0 0 0 0 0 0 0 0 0 0 0 0 0 0 0 0 0 0 0 0 0 0 0 0 0 0 0 0 0 0 0 0 0 0
0 0 0 0 0 0 0 0 0 0 0 0 0 0 0 0 0 0 0 0 0 0 0 0 0 0 0 0 0 0 0 0 0 0 0 0 0 0 0 0 0 0 0
0 0 0 0 0 0 0 0 0 0 0 0 0 0 0 0 0 0 0 0 0 0 0 0 0 0 0 0 0 0 0 0 0 0 0 0 0 0 0 0 0 0 0
0 0 0 0 0 0 0 0 0 0 0 0 0 0 0 0 0 0 0 0 0 0 0 0 0 0 0 0 0 0 0 0 0 0 0 0 0 0 0 0 0 0 0
0 0 0 0 0 0 0 0 0 0 0 0 0 0 0 0 0 0 0 0 0 0 0 0 0 0 0 0 0 0 0 0 0 0 0 0 0 0 0 0 0 0 0

GFSSE_con_sbcape_039.txt.gz
CAPE
116 395 2004 1622 866 582 304 83 35 27 8 1 23 60 51 51 5 0 0 0 0 0 12 0 0 0 109 84 62 23 1 0 0 0 0 0 0 0 0 4 0 0 0
161 594 2143 1686 1155 573 217 86 29 16 0 0 10 22 39 63 24 5 0 0 0 0 17 55 87 106 86 88 25 21 4 0 0 0 0 0 0 0 0 0 0 0 0
323 978 1345 1724 1377 695 253 108 27 0 0 0 0 3 6 24 4 0 0 3 3 0 1 5 12 39 21 19 19 16 0 0 0 0 0 0 0 0 0 0 0 0 0
773 1258 1098 1694 1389 654 271 103 31 1 0 0 0 0 0 0 0 0 0 0 0 0 0 0 0 0 2 6 1 0 0 0 0 0 0 0 0 0 0 0 0 7 11
1164 1322 1189 1613 1438 891 412 148 61 13 0 0 0 2 8 2 0 0 0 0 0 0 0 0 0 0 0 0 0 0 0 0 0 0 0 0 0 0 0 0 0 12 110
1281 1367 1571 1747 1649 1082 747 244 102 46 6 0 0 7 21 18 18 4 0 0 0 0 0 0 0 0 0 0 0 0 0 0 0 0 0 0 0 0 0 0 0 0 0
878 1315 1444 1999 1817 1233 619 392 170 113 46 0 0 0 15 20 37 11 7 0 0 0 0 0 0 0 0 0 9 12 12 12 5 1 0 0 0 1 14 3 0 10 17
1101 1267 1414 1750 1773 1474 976 694 438 175 88 8 0 0 4 23 69 28 22 1 0 0 0 0 1 4 3 0 2 4 17 30 0 0 0 0 0 9 82 51 67 1 1
1178 1272 1399 1444 1481 1501 1233 956 770 404 189 71 0 0 3 53 55 149 43 4 0 0 0 1 1 0 0 0 0 0 34 7 0 0 0 0 0 21 141 189 250 246 175
1177 1276 1353 1603 1431 1414 1140 951 834 634 365 137 42 58 20 0 53 145 52 28 1 0 0 4 3 0 0 1 9 18 15 0 0 0 0 0 0 118 252 254 266 321 365
799 1209 1301 1521 1626 1537 1194 953 769 555 362 112 48 54 15 0 0 0 0 0 24 0 10 26 18 33 54 3 0 0 0 0 0 0 0 0 2 19 73 57 20 34 63
866 969 1216 1294 1353 1473 1176 1084 911 615 478 140 24 51 19 0 0 0 0 0 0 0 0 0 0 0 0 0 0 0 0 0 0 0 0 0 0 0 0 0 0 0 0
611 897 1116 1059 965 1221 1163 1000 806 618 359 145 47 0 0 0 0 0 0 0 0 0 0 0 0 0 0 0 0 0 0 0 0 0 0 0 0 0 0 0 0 0 0
300 718 996 1086 851 894 1034 891 793 569 349 139 68 8 0 0 0 0 0 0 0 0 0 0 0 0 0 0 0 0 0 0 0 0 0 0 0 0 0 0 0 0 0
0 53 703 1063 861 815 814 609 646 695 407 208 81 32 3 0 0 0 0 0 0 0 0 0 0 0 0 0 0 0 0 0 0 0 0 0 0 0 0 0 0 0 0
0 0 0 629 1043 858 650 696 743 754 542 272 96 38 0 0 0 0 0 0 0 0 0 0 0 0 0 0 0 0 0 0 0 0 0 0 0 0 0 0 0 0 0
0 0 0 3 688 942 986 970 842 687 466 258 114 78 8 0 0 0 0 0 0 0 0 0 0 0 0 0 0 0 0 0 0 0 0 0 0 0 0 0 0 0 0
0 0 0 0 268 646 845 804 615 538 449 210 55 0 0 0 0 0 0 0 0 0 0 0 0 0 0 0 0 0 0 0 0 0 0 0 0 0 0 0 0 0 0
0 0 0 0 106 294 524 421 397 245 37 0 0 0 0 0 0 0 0 0 0 0 0 0 0 0 0 0 0 0 0 0 0 0 0 0 0 0 0 0 0 0 0
0 0 0 0 33 127 117 0 0 0 0 0 0 0 0 0 0 0 0 0 0 0 0 0 0 0 0 0 0 0 0 0 0 0 0 0 0 0 0 0 0 0 0
0 0 0 0 9 0 0 0 0 0 0 0 0 0 0 0 0 0 0 0 0 0 0 0 0 0 0 0 0 0 0 0 0 0 0 0 0 0 0 0 0 0 0
0 0 0 0 0 0 0 0 0 0 0 0 0 0 0 0 0 0 0 0 0 0 0 0 0 0 0 0 0 0 0 0 0 0 0 0 0 0 0 0 0 0 0
0 0 0 0 0 0 0 0 0 0 0 0 0 0 0 0 0 0 0 0 0 0 0 0 0 0 0 0 0 0 0 0 0 0 0 0 0 0 0 0 0 0 0
0 0 0 0 0 0 0 0 0 0 0 0 0 0 0 0 0 0 0 0 0 0 0 0 0 0 0 0 0 0 0 0 0 0 0 0 0 0 0 0 0 0 0
0 0 0 0 0 0 0 0 0 0 0 0 0 0 0 0 0 0 0 0 0 0 0 0 0 0 0 0 0 0 0 0 0 0 0 0 0 0 0 0 0 0 0
0 0 0 0 0 0 0 0 0 0 0 0 0 0 0 0 0 0 0 0 0 0 0 0 0 0 0 0 0 0 0 0 0 0 0 0 0 0 0 0 0 0 0

GFSSE_con_sbcape_042.txt.gz
CAPE
251 1009 1950 1855 1067 780 336 103 7 23 51 89 47 35 32 9 0 0 0 0 0 0 9 0 0 0 91 85 50 25 1 0 0 0 0 0 0 0 0 0 0 0 0
511 940 2192 1789 1188 627 333 118 69 50 3 10 23 47 60 39 2 5 0 0 0 0 30 40 91 107 68 67 27 26 10 0 0 0 0 0 0 0 0 2 0 0 0
673 904 1387 1526 1316 830 292 88 58 17 0 0 15 8 63 38 3 0 0 1 0 0 4 0 10 28 34 28 28 26 9 0 0 0 0 0 0 0 0 1 0 0 0
752 1170 1080 1646 1389 665 328 93 32 1 0 0 0 5 1 0 0 0 0 0 0 0 0 0 0 2 1 4 3 2 0 0 0 0 0 0 0 0 0 0 4 3 14
954 1089 1209 1578 1282 807 321 99 38 1 0 0 0 0 0 0 0 0 0 0 0 0 0 0 0 0 0 0 0 0 0 0 0 0 0 0 0 0 0 0 2 6 71
969 971 1459 1610 1434 1057 696 150 72 25 0 0 0 4 0 0 0 0 0 0 0 0 0 0 0 0 0 0 0 0 0 0 0 14 12 4 0 0 1 0 0 0 1
1056 895 1346 1767 1552 1192 589 308 124 78 19 0 0 2 7 11 7 9 1 0 0 0 0 0 0 0 0 0 13 15 26 9 10 21 13 9 7 0 13 21 8 0 11
1191 1016 1126 1560 1600 1350 949 582 298 147 71 4 0 0 3 9 54 11 12 1 0 0 0 0 0 0 0 0 0 0 2 0 2 7 5 7 0 0 63 91 102 135 82
1234 1124 1037 1203 1298 1183 1131 964 738 334 175 42 0 6 14 22 25 38 31 4 0 0 0 0 2 0 0 0 0 0 0 0 2 15 1 9 0 38 177 238 247 318 342
1284 1106 1056 1106 1071 1118 1052 968 866 672 427 174 43 61 21 1 111 192 69 30 0 0 0 5 4 0 1 1 0 0 0 0 25 13 14 6 6 58 137 130 86 88 144
1233 1152 1034 1275 1133 1125 1136 967 773 574 322 108 33 51 9 4 62 57 0 16 24 0 0 8 8 16 4 0 0 0 0 19 16 17 17 0 0 0 0 0 0 0 4
1153 1351 1221 1310 1361 1193 1098 1264 992 686 420 168 6 18 16 0 0 0 0 0 0 0 0 0 0 0 0 15 23 0 2 0 0 0 0 0 0 0 0 0 0 0 0
986 1271 1341 1391 1530 1494 1383 1272 1206 960 578 366 60 13 4 0 0 0 0 0 0 0 5 0 6 10 1 0 0 0 0 0 0 0 0 0 0 0 0 0 0 0 0
691 1055 1307 1412 1519 1316 1274 1374 1242 1065 718 525 186 15 11 7 3 0 1 0 0 0 8 16 0 0 0 0 0 0 0 0 0 0 0 0 0 0 0 0 0 0 0
408 714 1119 1439 1499 1421 1286 1183 1283 1146 833 651 295 72 61 65 53 12 0 4 7 3 0 0 0 0 0 0 0 0 0 0 0 0 0 0 0 0 0 0 0 0 0
173 187 453 1240 1485 1485 1284 1171 1167 1206 909 827 394 138 106 85 36 7 0 0 0 0 0 0 0 0 0 0 0 0 0 0 0 0 0 0 0 0 0 0 0 0 0
0 0 0 152 1002 1435 1463 1106 1576 1159 994 949 536 265 86 101 36 0 0 0 0 0 0 0 0 0 0 0 0 0 0 0 0 0 0 0 0 0 0 0 0 0 0
0 0 0 0 12 881 1344 1635 1487 1254 1127 1104 663 337 219 19 0 0 0 0 0 0 0 0 0 0 0 0 0 0 0 0 0 0 0 0 0 0 0 0 0 0 0
0 0 0 0 0 248 1026 1351 1404 1238 1192 1186 816 398 13 0 0 0 0 0 0 0 0 0 0 0 0 0 0 0 0 0 0 0 0 0 0 0 0 0 0 0 0
0 0 0 0 4 275 730 1187 1333 1237 1285 918 305 0 0 0 0 0 0 0 0 0 0 0 0 0 0 0 0 0 0 0 0 0 0 0 0 0 0 0 0 0 0
0 0 0 0 83 418 668 935 1181 596 5 0 0 0 0 0 0 0 0 0 0 0 0 0 0 0 0 0 0 0 0 0 0 0 0 0 0 0 0 0 0 0 0
0 0 0 2 262 525 566 416 388 8 0 0 0 0 0 0 0 0 0 0 0 0 0 0 0 0 0 0 0 0 0 0 0 0 0 0 0 0 0 0 0 0 0
0 0 0 9 345 451 297 216 0 0 0 0 0 0 0 0 0 0 0 0 0 0 0 0 0 0 0 0 0 0 0 0 0 0 0 0 0 0 0 0 0 0 0
0 0 0 6 183 218 11 0 0 0 0 0 0 0 0 0 0 0 0 0 0 0 0 0 0 0 0 0 0 0 0 0 0 0 0 0 0 0 0 0 0 0 0
0 0 0 0 4 0 0 0 0 0 0 0 0 0 0 0 0 0 0 0 0 0 0 0 0 0 0 0 0 0 0 0 0 0 0 0 0 0 0 0 0 0 0
0 0 0 0 0 0 0 0 0 0 0 0 0 0 0 0 0 0 0 0 0 0 0 0 0 0 0 0 0 0 0 0 0 0 0 0 0 0 0 0 0 0 0

GFSSE_con_sbcape_045.txt.gz
CAPE
408 1099 2127 1674 1223 855 432 246 177 176 81 27 4 12 1 0 0 0 0 0 0 3 0 1 0 0 76 63 34 28 0 0 0 0 0 0 0 0 0 0 0 0 0
713 958 2235 2018 1507 660 342 132 50 54 42 68 31 34 25 3 0 0 0 0 0 0 31 44 84 0 68 68 36 37 4 0 0 0 0 0 0 0 0 6 0 0 0
947 985 1312 1678 1425 904 364 216 111 5 0 1 6 26 69 23 0 0 0 0 0 0 0 12 36 97 73 43 23 25 6 0 0 0 0 0 0 0 0 0 0 0 0
708 1014 1085 1460 1294 763 316 208 74 1 0 2 6 33 28 0 0 0 0 0 0 0 0 0 2 7 4 1 2 0 0 0 0 0 1 0 0 0 0 0 0 3 18
783 1000 1162 1523 1261 755 293 95 37 1 0 0 1 0 0 0 0 0 0 0 0 0 0 0 0 0 0 0 0 0 0 0 0 0 0 0 0 0 0 0 0 5 5
776 1070 1245 1478 1311 925 476 96 31 0 0 0 0 2 0 0 0 0 0 0 0 0 0 0 0 0 0 0 0 0 0 0 0 18 8 7 4 0 2 1 0 0 0
783 1449 1245 1607 1355 1034 492 158 75 8 0 0 1 11 8 9 0 1 0 0 0 0 0 0 0 0 0 0 0 6 8 0 0 14 13 15 15 0 14 11 24 61 32
800 1071 1233 1414 1371 1169 804 451 221 84 8 0 0 0 17 16 21 1 0 0 0 0 0 0 0 0 0 0 0 0 0 0 0 10 12 16 0 0 71 75 129 246 287
853 832 1170 1214 1077 1122 1046 818 637 271 121 37 16 12 21 20 28 57 15 0 0 0 0 0 0 0 0 0 0 0 0 0 0 16 13 28 21 70 124 120 102 80 144
994 798 995 1134 1077 898 885 901 820 639 394 116 58 111 10 26 106 194 82 29 0 0 0 2 0 0 0 0 0 0 0 0 2 11 19 0 0 0 14 2 0 6 19
1006 873 877 1008 1006 917 960 838 762 603 397 156 38 62 4 20 100 36 11 64 17 0 0 5 0 0 0 0 0 0 0 8 6 12 6 0 0 0 0 0 0 0 0
1097 1022 907 1070 1110 1128 1155 1040 811 606 321 89 0 12 11 2 27 31 1 3 5 4 0 0 0 0 0 20 1 0 2 0 0 0 0 0 0 0 0 0 0 1 2
1006 1232 1096 1204 1143 996 968 1357 1061 849 574 286 17 0 0 0 0 0 0 0 0 0 5 0 3 3 0 0 0 0 0 0 0 0 0 0 0 0 0 0 0 0 0
707 1045 1226 1211 1329 1255 1421 998 1136 1176 720 494 193 0 5 0 0 0 1 9 7 7 26 22 0 0 0 0 0 0 0 0 0 0 0 0 0 0 0 0 0 0 0
362 715 1058 1196 1357 1540 1443 1306 1118 908 781 586 394 17 11 21 28 22 6 3 13 8 0 0 0 0 0 0 0 0 0 0 0 0 0 0 0 0 0 0 0 0 0
253 398 703 1106 1280 1468 1606 1347 1319 1089 868 738 461 149 81 107 120 60 57 1 0 0 0 0 0 0 0 0 0 0 0 0 0 0 0 0 0 0 0 0 0 0 0
1 177 212 628 1018 1311 1446 1351 1325 1233 990 834 576 253 184 192 151 70 0 0 0 0 0 0 0 0 0 0 0 0 0 0 0 0 0 0 0 0 0 0 0 0 0
0 0 0 0 393 994 1249 1585 1327 1426 1138 936 762 500 295 223 163 0 0 0 0 0 0 0 0 0 0 0 0 0 0 0 0 0 0 0 0 0 0 0 0 0 0
0 0 0 0 0 122 909 1288 1504 1451 1102 1026 909 673 419 265 12 0 0 0 0 0 0 0 0 0 0 0 0 0 0 0 0 0 0 0 0 0 0 0 0 0 0
0 0 0 0 0 0 336 1181 1397 1392 1227 1116 1034 733 615 87 0 0 0 0 0 0 0 0 0 0 0 0 0 0 0 0 0 0 0 0 0 0 0 0 0 0 0
0 0 0 0 0 13 402 986 1308 1480 1170 538 779 651 226 0 0 0 0 0 0 0 0 0 0 0 0 0 0 0 0 0 0 0 0 0 0 0 0 0 0 0 0
0 0 0 0 0 116 557 952 1141 1096 8 0 0 0 0 0 0 0 0 0 0 0 0 0 0 0 0 0 0 0 0 0 0 0 0 0 0 0 0 0 0 0 0
0 0 0 0 10 245 541 892 927 0 0 0 0 0 0 0 0 0 0 0 0 0 0 0 0 0 0 0 0 0 0 0 0 0 0 0 0 0 0 0 0 0 0
0 0 0 0 27 339 699 661 277 0 0 0 0 0 0 0 0 0 0 0 0 0 0 0 0 0 0 0 0 0 0 0 0 0 0 0 0 0 0 0 0 0 0
0 0 0 0 17 376 466 492 21 0 0 0 0 0 0 0 0 0 0 0 0 0 0 0 0 0 0 0 0 0 0 0 0 0 0 0 0 0 0 0 0 0 0
0 0 13 0 47 275 372 0 0 18 0 0 0 0 0 0 0 0 0 0 0 0 0 0 0 0 0 0 0 0 0 0 0 0 0 0 0 0 0 0 0 0 0

GFSSE_con_sbcape_048.txt.gz
CAPE
820 1460 1986 1533 1068 884 600 588 428 222 113 115 51 10 4 2 0 0 0 0 0 2 19 19 0 0 74 76 20 30 10 0 0 0 0 0 0 0 0 0 0 1 0
844 1333 1990 1928 1403 647 432 377 346 434 206 84 59 13 7 2 0 0 0 0 0 18 27 51 5 0 66 62 40 24 6 0 0 0 0 0 0 0 0 0 0 0 0
924 1327 1579 1828 1311 951 350 236 189 69 42 79 69 71 28 1 0 0 0 0 0 0 9 45 55 82 57 43 35 20 0 0 0 0 0 0 0 0 0 0 0 0 0
920 1017 1186 1560 1270 805 416 297 94 4 1 9 9 61 31 0 0 0 0 0 0 0 0 18 6 8 2 1 1 0 0 0 0 0 0 0 0 0 0 0 0 0 4
915 907 1027 1387 1224 764 410 209 41 0 0 3 4 31 0 0 0 0 0 0 0 0 0 0 0 0 0 0 0 0 0 0 0 0 0 0 0 0 0 0 0 0 0
809 904 1134 1328 1176 858 491 80 15 0 0 0 0 0 0 0 0 0 0 0 0 0 0 0 0 0 0 0 0 0 0 0 3 0 3 2 0 0 0 4 4 0 0
968 914 1009 1451 1236 766 270 97 39 0 0 0 2 0 1 1 0 0 0 0 0 0 0 0 0 0 0 0 0 0 0 0 0 0 1 0 0 5 37 48 44 127 140
1141 913 890 1119 1055 864 528 277 153 54 10 16 30 11 19 25 26 10 0 0 0 0 0 0 0 0 0 0 0 0 0 0 0 2 7 6 39 51 122 33 126 96 132
1166 1067 810 863 851 794 694 592 477 220 79 68 89 85 91 42 72 55 6 0 0 0 0 0 0 0 0 0 0 0 0 0 0 5 1 0 21 12 25 18 3 28 62
574 962 882 840 735 638 632 660 634 472 245 123 92 119 14 7 55 193 83 29 0 0 0 0 0 0 0 0 0 0 0 0 0 1 0 0 2 0 0 0 0 0 1
673 617 857 992 763 578 563 587 645 521 258 83 44 31 0 0 69 59 19 37 45 9 3 9 4 4 11 4 4 0 0 1 1 0 0 0 0 0 0 0 0 5 19
789 602 643 967 845 740 767 556 477 391 163 27 0 0 0 0 51 15 10 35 49 26 13 6 0 0 0 2 4 0 0 0 0 0 0 0 0 0 0 0 2 0 0
815 708 578 740 882 778 1036 719 627 443 219 38 0 0 0 0 0 0 0 0 0 0 0 1 0 0 0 0 0 0 0 0 0 0 0 0 0 0 0 4 0 0 0
716 884 747 833 775 1022 1154 1001 893 731 472 169 0 0 0 0 0 0 0 0 0 0 0 0 0 0 0 0 0 0 0 0 0 0 0 0 0 0 2 0 0 0 0
372 760 940 847 921 906 925 1165 959 911 606 304 209 0 0 0 0 0 0 0 0 0 0 0 0 0 0 0 0 0 0 0 0 0 0 0 0 0 0 0 0 0 0
3 530 857 911 948 1126 1090 984 977 879 612 510 278 1 0 0 0 0 0 0 0 0 0 0 0 0 0 0 0 0 0 0 0 0 0 0 0 0 0 0 0 0 0
0 36 430 826 849 1192 1199 1228 1124 967 646 561 425 68 0 5 15 1 0 0 0 0 0 0 0 0 0 0 0 0 0 0 0 0 0 0 0 0 0 0 0 0 0
0 0 0 497 807 948 1186 1195 1195 1065 716 670 556 226 88 185 31 0 0 0 0 0 0 0 0 0 0 0 0 0 0 0 0 0 0 0 0 0 0 0 0 0 0
0 0 0 0 160 666 1008 1282 1131 1144 936 823 677 388 218 207 0 0 0 0 0 0 0 0 0 0 0 0 0 0 0 0 0 0 0 0 0 0 0 0 0 0 0
0 0 0 0 0 0 563 1228 1217 1125 874 890 807 484 317 75 0 0 0 0 0 0 0 0 0 0 0 0 0 0 0 0 0 0 0 0 0 0 0 0 0 0 0
0 0 0 0 0 0 0 627 1169 1130 864 1030 802 501 321 13 0 0 0 0 0 0 0 0 0 0 0 0 0 0 0 0 0 0 0 0 0 0 0 0 0 0 0
0 0 0 0 0 0 0 94 773 64 0 0 198 265 35 0 0 0 0 0 0 0 0 0 0 0 0 0 0 0 0 0 0 0 0 0 0 0 0 0 0 0 0
0 0 0 0 0 0 0 176 0 0 0 0 0 0 0 0 0 0 0 0 0 0 0 0 0 0 0 0 0 0 0 0 0 0 0 0 0 0 0 0 0 0 0
0 0 0 0 0 0 5 169 0 0 0 0 0 0 0 0 0 0 0 0 0 0 0 0 0 0 0 0 0 0 0 0 0 0 0 0 0 0 0 0 0 0 0
0 0 0 0 0 0 31 308 0 0 0 0 0 0 0 0 0 0 0 0 0 0 0 0 0 0 0 0 0 0 0 0 0 0 0 0 0 0 0 0 0 0 0
0 0 0 0 0 0 114 184 0 0 0 0 0 0 0 0 0 0 0 0 0 0 0 0 0 0 0 0 0 0 0 0 0 0 0 0 0 0 0 0 0 0 0

GFSSE_con_sbcape_051.txt.gz
CAPE
905 1444 2002 1621 1329 1181 1094 822 576 630 262 127 25 3 1 0 0 0 0 1 2 14 12 2 0 37 62 35 23 8 5 0 0 0 0 0 0 0 0 0 0 0 0
1011 1328 1828 1718 1535 1213 904 678 831 678 527 119 33 6 8 1 0 0 0 2 16 17 26 16 0 4 71 55 44 0 0 0 0 0 0 0 0 0 0 0 0 0 0
1122 1328 1526 1674 1322 1078 818 567 538 366 311 253 137 30 12 0 1 0 0 0 8 15 32 12 18 69 76 59 43 4 0 0 0 0 0 0 0 0 0 0 0 0 0
1163 1311 1250 1387 1196 841 491 395 220 169 180 169 196 61 15 0 0 0 0 0 2 9 32 23 10 18 15 15 3 0 0 0 0 0 0 0 0 0 0 0 0 0 7
1055 1222 1066 1304 1165 817 479 288 100 65 73 45 118 31 0 0 0 0 0 0 0 0 6 2 0 0 0 0 0 0 0 0 0 4 0 0 0 0 4 0 0 0 0
843 903 1192 1309 1208 980 651 134 40 4 16 2 40 0 0 0 0 0 0 0 0 0 0 0 0 0 0 0 0 0 0 0 6 0 1 12 0 12 9 17 4 1 0
685 811 981 1292 1156 776 368 114 38 0 0 0 0 0 0 0 1 0 0 0 0 0 0 0 0 0 0 0 0 0 0 0 0 0 2 0 7 29 40 23 94 97 133
721 667 908 1000 915 707 411 301 173 36 13 2 14 5 5 3 2 0 0 0 0 0 0 0 0 0 0 0 0 0 0 0 0 1 4 16 55 63 65 51 22 30 64
687 724 845 709 585 549 434 359 212 121 96 111 103 122 130 137 62 14 0 0 0 0 0 0 0 0 0 0 0 0 0 0 0 3 0 3 40 25 8 0 1 3 1
701 687 616 548 479 403 330 430 301 147 160 216 185 129 18 1 106 91 45 0 0 0 0 0 0 0 0 0 0 0 0 0 0 0 0 7 14 7 0 0 0 27 47
824 667 599 556 459 402 313 379 423 306 145 97 45 11 0 0 72 35 0 15 29 9 6 7 7 5 13 0 0 0 0 0 0 0 0 0 0 0 0 0 12 5 6
821 715 676 577 470 443 495 375 275 198 39 7 10 0 0 0 34 0 0 15 76 50 46 31 7 0 0 0 0 0 0 0 0 0 0 0 0 0 0 9 1 0 0
247 675 901 699 527 509 590 380 309 179 24 0 0 0 0 0 39 0 0 1 0 0 0 9 0 0 0 0 0 0 0 0 0 0 0 0 0 0 18 4 0 0 0
354 212 1033 819 622 595 667 405 374 302 100 12 0 0 0 0 0 0 0 0 0 0 0 0 0 0 0 0 0 0 0 0 0 0 0 0 0 0 5 0 0 0 0
427 388 217 762 705 638 847 620 678 544 350 166 0 0 0 0 0 0 0 0 0 0 0 0 0 0 0 0 0 0 0 0 0 0 0 0 0 0 0 0 0 0 0
98 395 387 423 715 869 982 846 783 690 609 295 47 0 0 0 0 0 0 0 0 0 0 0 0 0 0 0 0 0 0 0 0 0 0 0 0 0 0 0 0 0 0
0 163 534 482 361 895 791 760 711 800 640 334 195 0 0 0 0 0 0 0 0 0 0 0 0 0 0 0 0 0 0 0 0 0 0 0 0 0 0 0 0 0 0
0 0 468 799 508 750 812 717 686 662 503 324 211 14 0 0 0 0 0 0 0 0 0 0 0 0 0 0 0 0 0 0 0 0 0 0 0 0 0 0 0 0 0
0 0 0 394 458 927 928 980 909 881 464 255 218 51 15 21 0 0 0 0 0 0 0 0 0 0 0 0 0 0 0 0 0 0 0 0 0 0 0 0 0 0 0
0 0 0 0 420 720 1086 1150 970 509 614 458 389 96 67 14 0 0 0 0 0 0 0 0 0 0 0 0 0 0 0 0 0 0 0 0 0 0 0 0 0 0 0
0 0 0 0 0 0 1096 1057 987 694 689 412 516 262 81 0 0 0 0 0 0 0 0 0 0 0 0 0 0 0 0 0 0 0 0 0 0 0 0 0 0 0 0
0 0 0 0 0 0 231 1132 1064 685 121 305 373 256 15 0 0 0 0 0 0 0 0 0 0 0 0 0 0 0 0 0 0 0 0 0 0 0 0 0 0 0 0
0 0 0 0 0 0 0 0 0 0 0 0 0 0 0 0 0 0 0 0 0 0 0 0 0 0 0 0 0 0 0 0 0 0 0 0 0 0 0 0 0 0 0
0 0 0 0 0 0 0 0 0 30 18 0 0 0 0 0 0 0 0 0 0 0 0 0 0 0 0 0 0 0 0 0 0 0 0 0 0 0 0 0 0 0 0
0 0 0 0 0 0 0 1 1 0 0 0 0 0 0 0 0 0 0 0 0 0 0 0 0 0 0 0 0 0 0 0 0 0 0 0 0 0 0 0 0 0 0
0 0 0 0 0 0 0 0 0 0 0 0 0 0 0 0 0 0 0 0 0 0 0 0 0 0 0 0 0 0 0 0 0 0 0 0 0 0 0 0 0 0 0

GFSSE_con_sbcape_054.txt.gz
CAPE
776 1255 2092 1765 1470 1439 1263 1152 1107 1008 727 410 128 29 0 0 0 0 0 0 9 3 0 0 68 73 40 20 12 0 0 0 0 0 0 0 0 0 0 0 0 0 0
961 1260 1902 1898 1793 1530 1334 1022 1007 833 442 194 63 8 2 0 0 0 2 22 17 3 7 3 8 75 57 41 3 0 0 0 0 0 0 0 0 0 0 0 0 0 0
1094 1233 1358 1771 1730 1643 1274 758 858 563 338 213 45 10 8 4 0 0 0 7 7 9 8 3 6 78 84 58 7 0 0 0 0 0 0 0 0 0 0 0 0 0 0
1036 1166 1119 1487 1460 1236 888 621 566 543 449 300 155 41 5 5 0 0 0 4 12 19 19 16 42 84 64 21 2 0 0 0 0 0 0 0 0 0 0 0 0 0 3
1103 1136 1040 1328 1328 999 840 653 558 488 425 476 219 16 0 1 0 0 0 0 11 42 33 13 12 15 3 0 0 0 0 0 1 0 0 0 0 1 5 1 0 0 0
1007 867 1124 1294 1216 1038 828 515 331 273 151 145 181 5 0 0 0 0 0 0 3 6 4 0 0 0 0 0 0 0 0 0 0 0 0 0 0 14 6 1 3 36 37
874 847 1021 1341 1152 766 497 245 154 138 84 181 59 2 0 0 0 0 0 0 0 1 2 0 1 0 0 0 0 0 0 0 0 0 1 0 1 64 53 103 65 59 107
925 885 940 1109 1065 853 482 208 177 182 73 66 17 0 0 2 1 0 0 0 0 0 0 0 0 0 0 0 0 0 0 0 0 6 5 19 59 48 44 21 37 47 41
769 715 785 738 644 554 400 340 197 163 92 91 122 103 86 77 9 0 0 0 0 1 0 0 0 0 0 0 0 0 0 0 0 2 1 17 61 32 3 1 3 6 85
569 647 649 514 402 275 227 328 200 162 190 151 239 210 133 87 88 28 0 0 0 0 0 0 0 0 0 0 0 0 0 0 0 0 0 3 20 1 0 0 32 30 28
599 644 505 374 240 174 159 189 224 203 210 212 124 53 26 11 63 40 0 0 11 0 2 1 0 4 1 0 0 0 0 0 0 0 0 0 0 0 0 15 10 5 10
597 529 490 373 319 243 280 218 125 66 31 18 20 4 0 0 40 34 0 0 66 63 65 33 28 23 0 0 0 0 0 0 0 0 0 0 0 0 21 4 0 2 2
680 583 530 376 343 320 328 250 165 64 0 0 0 0 0 0 17 0 0 0 3 5 0 25 3 0 0 0 0 0 0 0 0 0 0 0 0 1 11 4 0 0 0
710 664 607 452 355 362 362 303 243 132 9 0 0 0 0 0 3 0 0 0 0 0 0 0 0 0 0 0 0 0 0 0 0 0 0 0 0 15 4 2 0 0 0
410 706 750 593 438 412 427 311 282 206 82 3 0 0 0 0 0 0 0 0 0 0 0 0 0 0 0 0 0 0 0 0 0 0 0 0 0 0 0 0 0 0 0
140 274 875 784 615 548 573 352 308 294 169 47 0 0 0 0 0 0 0 0 0 0 0 0 0 0 0 0 0 0 0 0 0 0 0 0 0 0 0 0 0 0 0
0 133 382 923 749 571 742 523 462 484 318 183 15 0 0 0 0 0 0 0 0 0 0 0 0 0 0 0 0 0 0 0 0 0 0 0 0 0 0 0 0 0 0
0 0 101 722 799 645 888 694 616 580 526 303 84 0 0 0 0 0 0 0 0 0 0 0 0 0 0 0 0 0 0 0 0 0 0 0 0 0 0 0 0 0 0
0 0 0 251 546 776 822 758 579 597 494 168 14 0 0 0 0 0 0 0 0 0 0 0 0 0 0 0 0 0 0 0 0 0 0 0 0 0 0 0 0 0 0
0 0 0 32 271 745 707 589 594 404 444 161 32 0 0 0 0 0 0 0 0 0 0 0 0 0 0 0 0 0 0 0 0 0 0 0 0 0 0 0 0 0 0
0 0 0 0 31 552 602 652 564 671 360 256 38 1 0 0 0 0 0 0 0 0 0 0 0 0 0 0 0 0 0 0 0 0 0 0 0 0 0 0 0 0 0
0 0 0 0 0 147 776 878 732 644 477 261 62 6 0 0 0 0 0 0 0 0 0 0 0 0 0 0 0 0 0 0 0 0 0 0 0 0 0 0 0 0 0
0 0 0 0 0 0 636 358 0 0 0 0 0 19 0 0 0 0 0 0 0 0 0 0 0 0 0 0 0 0 0 0 0 0 0 0 0 0 0 0 0 0 0
0 0 0 0 0 0 3 137 189 344 192 13 39 0 0 0 0 0 0 0 0 0 0 0 0 0 0 0 0 0 0 0 0 0 0 0 0 0 0 0 0 0 0
0 0 0 0 0 0 0 52 90 297 157 0 0 0 0 0 0 0 0 0 0 0 0 0 0 0 0 0 0 0 0 0 0 0 0 0 0 0 0 0 0 0 0
0 0 0 0 0 0 0 0 77 11 0 0 0 0 0 0 0 0 0 0 0 0 0 0 0 0 0 0 0 0 0 0 0 0 0 0 0 0 0 0 0 0 0

GFSSE_con_sbcape_057.txt.gz
CAPE
364 987 2176 2031 1631 1453 1370 1390 1531 1322 822 432 183 64 7 0 0 0 0 0 0 0 2 70 49 18 19 14 0 0 0 0 0 0 0 0 0 0 1 0 0 0 0
599 1199 2091 2030 1804 1699 1674 1657 1512 1370 895 374 144 41 1 0 0 0 2 5 3 1 9 20 83 73 60 41 0 0 0 0 0 0 0 0 0 0 0 0 0 0 0
853 1228 1584 1999 1947 1835 1573 1202 1271 900 584 284 104 44 5 0 0 0 9 11 0 2 27 4 78 96 89 63 13 0 0 0 0 0 0 0 0 0 0 0 0 0 0
937 1141 1242 1862 1955 1479 946 757 677 584 325 179 82 4 4 4 0 0 4 6 4 11 10 13 52 117 73 31 4 0 0 0 0 0 0 0 0 1 0 0 0 0 0
924 955 1146 1698 1606 1343 961 800 579 522 460 302 144 28 11 5 1 0 1 6 32 43 70 59 77 46 24 7 0 0 0 1 0 0 0 0 0 3 6 0 0 0 0
866 845 1190 1451 1454 1245 1101 991 743 695 686 510 175 44 7 2 0 0 0 9 12 41 25 6 0 5 1 0 0 0 0 0 0 0 0 0 0 12 5 9 102 115 68
803 823 1020 1394 1228 951 747 658 683 380 421 489 142 47 1 0 0 0 0 1 9 8 4 0 0 0 0 0 0 0 0 0 0 0 0 0 0 86 91 66 65 65 73
816 862 902 1086 1105 986 418 555 583 400 285 394 136 54 0 0 0 0 0 0 1 5 1 0 0 0 0 0 0 0 0 0 0 0 0 4 44 37 18 38 11 16 92
772 764 812 827 781 750 602 393 387 398 370 394 236 100 95 63 0 0 0 0 1 3 2 0 0 0 0 0 0 0 0 0 0 0 0 2 91 16 4 0 23 72 34
689 663 654 604 568 334 240 308 259 262 232 268 220 158 138 79 58 0 0 6 3 1 0 0 0 0 0 0 0 0 0 0 0 0 0 0 10 6 0 9 23 17 8
511 524 509 389 207 127 137 176 213 221 180 220 207 116 71 25 52 0 0 0 8 0 0 0 0 0 0 0 0 0 0 0 0 0 0 0 0 0 9 12 1 7 5
633 665 488 248 146 102 150 117 72 84 104 89 68 34 4 5 29 36 0 5 53 58 73 27 28 27 0 0 0 0 0 0 0 0 0 0 0 9 18 2 1 1 1
611 514 438 225 171 137 149 98 42 12 7 1 0 0 0 0 12 18 0 0 1 27 4 64 12 0 0 0 0 0 0 0 0 0 0 0 0 29 6 0 0 0 0
567 553 521 302 202 156 166 144 86 33 0 0 0 0 0 0 6 0 0 0 0 0 0 0 0 0 0 0 0 0 0 0 0 0 0 0 0 9 2 0 0 0 0
673 586 535 351 230 197 172 161 122 77 13 0 0 0 0 0 0 0 0 0 0 0 0 0 0 0 0 0 0 0 0 0 0 0 0 0 0 0 0 0 0 0 0
598 704 556 469 268 217 227 165 154 123 67 3 0 0 0 0 0 0 0 0 0 0 0 0 0 0 0 0 0 0 0 0 0 0 0 0 0 0 0 0 0 0 0
1 316 680 580 389 267 298 174 148 154 108 37 0 0 0 0 0 0 0 0 0 0 0 0 0 0 0 0 0 0 0 0 0 0 0 0 0 0 0 0 0 0 0
0 0 257 856 616 414 388 212 174 191 171 89 42 0 0 0 0 0 0 0 0 0 0 0 0 0 0 0 0 0 0 0 0 0 0 0 0 0 0 0 0 0 0
0 0 0 635 855 552 417 342 299 345 301 155 70 0 0 0 0 0 0 0 0 0 0 0 0 0 0 0 0 0 0 0 0 0 0 0 0 0 0 0 0 0 0
0 0 0 5 684 685 463 491 469 420 434 194 57 1 0 0 0 0 0 0 0 0 0 0 0 0 0 0 0 0 0 0 0 0 0 0 0 0 0 0 0 0 0
0 0 0 0 88 531 516 628 509 510 428 105 119 9 0 0 0 0 0 0 0 0 0 0 0 0 0 0 0 0 0 0 0 0 0 0 0 0 0 0 0 0 0
0 0 0 0 18 160 562 616 595 624 420 297 99 0 0 0 0 0 0 0 0 0 0 0 0 0 0 0 0 0 0 0 0 0 0 0 0 0 0 0 0 0 0
0 0 0 0 0 29 418 433 1 0 0 0 0 8 0 0 0 0 0 0 0 0 0 0 0 0 0 0 0 0 0 0 0 0 0 0 0 0 0 0 0 0 0
0 0 0 0 0 0 62 282 309 236 256 143 207 105 1 0 0 0 0 0 0 0 0 0 0 0 0 0 0 0 0 0 0 0 0 0 0 0 0 0 0 0 0
0 0 0 0 0 0 0 174 241 118 97 4 0 1 0 0 0 0 0 0 0 0 0 0 0 0 0 0 0 0 0 0 0 0 0 0 0 0 0 0 0 0 0
0 0 0 0 0 0 0 0 199 260 0 0 1 0 0 0 0 0 0 0 0 0 0 0 0 0 0 0 0 0 0 0 0 0 0 0 0 0 0 0 0 0 0

GFSSE_con_sbcape_060.txt.gz
CAPE
75 759 2311 2073 1663 1616 1717 1609 1721 1238 856 583 267 133 58 13 0 0 0 2 5 25 62 68 47 50 38 2 0 0 0 0 0 0 0 0 0 1 1 0 0 0 0
214 1298 2234 2225 1998 1860 1933 1971 1564 1452 1028 501 168 82 28 1 1 4 2 25 23 0 11 91 76 72 42 9 0 0 0 0 0 0 0 0 0 0 0 0 0 0 0
609 1373 1837 2140 2088 2075 2075 1851 1682 1378 856 469 125 49 23 1 1 7 17 9 0 0 19 45 90 87 71 35 0 0 0 0 0 0 0 0 0 0 0 0 0 1 0
885 1284 1455 2090 2150 2058 1821 1549 1504 1006 617 350 124 44 6 2 0 2 3 0 2 8 13 14 100 79 66 27 0 0 0 0 0 0 0 0 0 0 0 0 0 0 0
972 1053 1381 2009 2094 1839 1640 1304 1158 856 439 258 102 41 7 5 0 1 3 3 27 16 21 13 110 86 22 4 0 0 0 0 0 0 0 0 0 5 5 0 0 0 0
768 870 1522 1897 1826 1486 1220 1024 783 671 515 392 151 37 5 7 0 0 2 12 59 119 92 54 16 13 6 0 0 0 0 0 0 0 0 0 0 22 59 85 85 101 87
767 863 1316 1710 1624 1433 1284 1136 1138 920 793 575 152 76 39 2 0 0 1 21 7 35 13 2 0 1 0 0 0 0 0 0 0 0 0 0 1 68 78 93 68 114 134
693 893 1014 1238 1279 1221 1179 1114 1032 703 735 541 180 102 23 1 0 0 0 14 17 17 7 2 0 0 0 0 0 0 0 0 0 0 0 0 28 42 33 14 27 78 35
645 731 744 764 832 894 464 806 642 559 487 717 381 176 90 32 0 0 0 0 15 18 8 0 0 0 0 0 0 0 0 0 0 0 0 0 72 26 1 85 55 35 8
633 623 565 524 540 491 379 478 517 436 383 472 296 166 115 34 16 0 0 2 3 3 0 0 0 0 1 0 0 0 0 0 0 0 0 0 20 1 18 31 20 10 5
553 530 486 376 298 185 156 185 277 279 237 236 151 89 65 10 3 0 0 16 64 19 0 0 0 6 5 0 0 0 0 0 0 0 0 1 6 8 24 5 12 9 1
561 534 480 309 177 109 140 110 80 93 60 79 77 53 13 10 15 0 0 12 90 76 51 5 27 52 0 0 0 0 0 0 0 0 0 0 0 37 4 3 3 1 0
418 443 440 218 126 107 125 44 10 13 18 32 50 26 0 0 10 10 0 1 4 21 3 24 14 0 0 0 0 0 0 0 0 0 0 0 1 22 5 0 0 0 0
488 447 344 227 111 79 71 48 3 0 0 2 6 0 0 0 1 10 0 0 0 0 0 0 0 0 0 0 0 0 0 0 0 0 0 0 5 9 1 0 0 0 0
547 478 404 229 133 81 75 74 23 0 0 0 0 0 0 0 0 0 0 0 0 0 0 0 0 0 0 0 0 0 0 0 0 0 0 0 3 0 0 0 0 0 0
676 556 386 278 192 113 114 87 66 38 0 0 0 0 0 0 0 0 0 0 0 0 0 0 0 0 0 0 0 0 0 0 0 0 0 0 0 0 0 0 0 0 0
433 646 487 434 240 146 110 69 73 72 46 0 0 0 0 0 0 0 0 0 0 0 0 0 0 0 0 0 0 0 0 0 0 0 0 0 0 0 0 0 0 0 0
0 259 551 608 415 196 156 117 111 92 81 23 0 0 0 0 0 0 0 0 0 0 0 0 0 0 0 0 0 0 0 0 0 0 0 0 0 0 0 0 0 0 0
0 0 12 585 582 364 212 170 131 91 73 33 5 0 0 0 0 0 0 0 0 0 0 0 0 0 0 0 0 0 0 0 0 0 0 0 0 0 0 0 0 0 0
0 0 0 37 671 500 320 208 178 188 113 50 48 25 0 0 0 0 0 0 0 0 0 0 0 0 0 0 0 0 0 0 0 0 0 0 0 0 0 0 0 0 0
0 0 0 0 152 565 361 492 485 393 297 183 89 68 0 0 0 0 0 0 0 0 0 0 0 0 0 0 0 0 0 0 0 0 0 0 0 0 0 0 0 0 0
0 0 0 0 0 241 479 516 591 568 301 369 117 39 0 0 0 0 0 0 0 0 0 0 0 0 0 0 0 0 0 0 0 0 0 0 0 0 0 0 0 0 0
0 0 0 0 0 0 373 434 1 8 0 29 81 92 0 0 0 0 0 0 0 0 0 0 0 0 0 0 0 0 0 0 0 0 0 0 0 0 0 0 0 0 0
0 0 0 0 0 0 1 251 337 406 419 266 369 267 36 0 0 0 0 0 0 0 0 0 0 0 0 0 0 0 0 0 0 0 0 0 0 0 0 0 0 0 0
0 0 0 0 0 0 0 0 123 268 230 4 75 108 18 0 0 0 0 0 0 0 0 0 0 0 0 0 0 0 0 0 0 0 0 0 0 0 0 0 0 0 0
0 0 0 0 0 0 0 0 12 148 0 0 1 0 0 0 0 0 0 0 0 0 0 0 0 0 0 0 0 0 0 0 0 0 0 0 0 0 0 0 0 0 0

GFSSE_con_sbcape_063.txt.gz
CAPE
228 766 2390 2257 1742 1826 1979 1895 1798 1459 1119 585 388 267 135 51 23 17 24 50 70 80 63 68 52 51 5 0 0 0 0 0 0 0 0 0 0 1 2 0 0 0 0
350 1372 2445 2280 2100 2211 2247 2121 1845 1593 1214 597 288 181 84 52 1 0 0 0 0 11 77 89 65 53 21 1 0 0 0 0 0 0 0 0 0 0 0 0 0 0 0
558 1329 1703 2270 2266 2341 2103 1815 1700 1525 1090 488 222 61 69 50 53 47 33 5 1 1 0 75 66 62 43 5 0 0 0 0 0 0 0 0 0 0 0 0 0 0 0
1084 1393 1552 2167 2273 2345 2184 1883 1715 1404 975 505 186 58 47 16 22 49 3 0 0 13 16 83 73 73 34 0 0 0 0 0 0 0 0 0 1 0 0 0 0 0 0
1373 1390 1634 2152 2315 2274 2088 1879 1725 1255 810 425 166 90 8 1 0 0 0 0 13 37 56 60 135 56 6 0 0 0 0 0 0 0 0 0 14 8 4 14 6 0 0
1351 1349 1783 2152 2263 2074 1781 1724 1442 1043 751 350 170 95 28 2 0 3 1 62 159 143 168 143 104 5 0 0 0 0 0 0 0 0 0 0 23 50 94 103 104 97 129
1156 1296 1549 2009 1949 1630 1440 1197 1018 943 895 495 130 74 7 3 2 5 1 57 112 103 70 29 2 1 0 0 0 0 0 0 0 0 5 33 46 44 67 48 103 92 49
926 1425 1403 1535 1536 1465 1336 1120 993 1029 1027 585 205 90 25 3 0 0 9 9 19 40 41 26 6 4 0 0 0 0 0 0 0 0 0 32 77 23 1 28 77 16 10
770 1264 1270 1146 1001 1022 948 875 993 991 1084 714 435 253 115 26 0 0 2 41 28 7 13 11 2 0 0 0 0 0 0 0 0 0 2 21 84 0 62 68 43 11 9
749 1067 1044 912 761 665 497 551 452 397 410 630 378 186 78 7 10 0 0 35 51 24 1 0 0 0 3 0 0 0 0 0 0 0 2 1 11 2 30 20 6 7 7
647 841 884 824 717 581 339 440 358 277 233 287 187 80 24 2 0 0 0 5 42 26 0 0 0 22 3 0 0 0 0 0 0 0 0 12 0 38 8 12 7 8 1
536 534 635 648 625 449 297 318 310 257 216 194 171 120 89 43 1 0 0 27 118 63 40 11 53 0 0 0 0 0 0 0 0 0 0 0 23 29 9 5 4 0 0
510 612 499 401 473 390 291 193 159 204 174 191 144 115 107 91 92 22 4 37 82 34 61 108 95 0 0 0 0 0 0 0 0 0 0 0 46 19 0 0 0 0 0
527 479 455 330 355 367 210 154 115 118 105 117 146 95 106 106 134 122 36 25 55 68 82 111 7 0 0 0 0 0 0 0 0 0 0 0 24 11 0 0 0 0 0
521 496 495 405 325 351 205 160 110 76 85 79 107 100 90 95 115 139 115 36 29 40 20 38 0 0 0 0 0 0 0 0 0 0 0 0 9 0 0 0 0 0 0
569 411 471 426 314 309 228 170 119 67 58 71 70 82 58 51 66 88 112 75 16 3 0 0 0 0 0 0 0 0 0 0 0 0 0 1 0 0 0 0 0 0 0
769 830 597 447 314 297 266 189 166 115 44 51 53 47 42 39 29 27 56 77 39 0 0 0 0 0 0 0 0 0 0 0 0 0 0 0 0 0 0 0 0 0 0
0 594 801 617 379 258 286 236 239 161 115 59 24 15 14 15 16 20 30 66 50 0 0 0 0 0 0 0 0 0 0 0 0 0 0 0 0 0 0 0 0 0 0
0 0 312 734 766 368 292 284 249 154 187 196 56 13 0 0 0 0 17 46 32 0 0 0 0 0 0 0 0 0 0 0 0 0 0 0 0 0 0 0 0 0 0
0 0 0 247 771 716 373 173 237 202 152 277 238 94 5 0 0 0 0 7 0 0 0 0 0 0 0 0 0 0 0 0 0 0 0 0 0 0 0 0 0 0 0
0 0 0 0 99 810 537 281 236 313 316 215 250 160 36 3 0 0 0 0 0 0 0 0 0 0 0 0 0 0 0 0 0 0 0 0 0 0 0 0 0 0 0
0 0 0 0 0 328 583 440 362 487 372 397 297 134 119 9 0 0 0 0 0 0 0 0 0 0 0 0 0 0 0 0 0 0 0 0 0 0 0 0 0 0 0
0 0 0 0 0 0 471 588 225 271 62 415 289 256 132 67 4 1 0 0 0 0 0 0 0 0 0 0 0 0 0 0 0 0 0 0 0 0 0 0 0 0 0
0 0 0 0 0 0 14 431 401 283 384 407 437 484 231 28 15 0 0 0 0 0 0 0 0 0 0 0 0 0 0 0 0 0 0 0 0 0 0 0 0 0 0
0 0 0 0 0 0 0 7 365 349 427 536 454 380 291 15 1 0 0 0 0 0 0 0 0 0 0 0 0 0 0 0 0 0 0 0 0 0 0 0 0 0 0
0 0 0 0 0 0 0 0 115 321 409 139 125 348 372 37 0 0 0 0 0 0 0 0 0 0 0 0 0 0 0 0 0 0 0 0 0 0 0 0 0 0 0

GFSSE_con_sbcape_066.txt.gz
CAPE
616 1617 2630 2313 1891 2040 1979 1985 2004 1700 1092 947 888 801 662 488 382 308 248 217 101 84 54 37 26 7 0 0 0 0 0 0 0 0 0 0 0 1 0 0 0 0 3
682 1556 2506 2473 2277 2355 2286 2120 2004 1682 1342 814 460 305 131 51 6 1 1 6 40 63 73 47 37 4 0 0 0 0 0 0 0 0 0 0 0 0 0 0 0 0 0
670 1564 1752 2373 2337 2479 2374 2211 1975 1652 1012 666 388 198 175 112 5 15 3 1 0 2 80 69 51 24 4 0 0 0 0 0 0 0 0 0 0 0 0 0 0 0 0
1180 1396 1466 2272 2465 2369 2140 2026 1893 1494 904 585 246 95 52 37 66 61 4 0 0 0 9 96 60 42 0 0 0 0 0 0 0 0 2 0 0 0 0 0 0 0 0
1185 1442 1650 2358 2560 2440 2197 2019 1774 1563 999 554 230 76 8 3 15 2 0 0 3 80 58 138 111 8 0 0 0 0 0 0 0 0 8 17 12 2 13 8 0 0 0
1286 1526 1751 2300 2493 2395 2214 1938 1794 1435 955 454 142 62 5 3 2 0 0 79 160 117 61 144 39 0 0 0 0 0 0 0 0 9 27 10 70 106 98 151 112 119 185
1193 1391 1649 2340 2398 2294 2045 1899 1286 1024 868 425 143 69 3 1 0 0 0 103 111 174 156 85 3 0 0 0 0 0 0 0 5 28 46 88 48 36 28 102 50 30 8
1272 1227 1479 1859 1902 1787 1661 1420 1007 798 761 492 162 81 38 0 0 0 4 104 117 106 76 40 12 0 0 0 0 0 0 0 5 12 29 44 45 1 33 61 11 8 6
1256 1158 1031 1410 1082 927 931 854 745 688 1022 606 401 210 59 26 1 0 9 12 39 73 50 21 19 0 0 0 0 0 0 0 17 16 25 42 27 61 119 52 18 9 5
1066 1166 1088 1016 912 759 471 548 632 663 850 510 340 197 54 0 0 0 41 100 44 37 12 0 0 0 0 0 0 0 0 0 17 19 26 39 4 52 37 12 2 5 6
805 1021 1011 918 795 488 434 468 323 249 350 351 185 34 4 0 0 0 0 24 104 44 0 0 2 20 0 0 0 0 0 7 6 7 14 18 7 26 11 4 2 3 1
664 803 951 861 644 477 313 332 436 244 218 156 224 96 72 0 0 0 0 24 82 98 67 12 89 0 0 0 0 0 4 1 1 0 2 0 39 11 1 2 0 0 0
670 757 681 808 813 570 360 212 220 207 151 139 151 136 76 4 0 0 0 9 18 0 1 30 70 0 1 0 0 0 0 0 0 0 0 0 36 6 0 0 0 0 0
741 698 627 757 651 611 439 243 119 108 119 116 128 103 90 43 65 23 0 0 6 0 3 32 44 15 4 0 0 0 0 0 0 0 0 0 40 1 0 0 0 0 0
775 685 635 545 474 730 597 370 135 98 86 63 86 92 73 62 76 133 90 7 0 0 12 44 37 2 4 0 0 0 0 0 0 0 0 0 31 0 0 0 0 0 0
611 712 672 616 508 582 771 556 265 139 92 45 60 77 56 56 80 172 191 133 20 2 10 39 29 0 0 0 0 0 0 0 0 0 0 4 0 0 0 0 0 0 0
1139 1023 900 675 495 607 832 767 517 286 153 116 79 62 65 98 144 150 173 189 159 9 8 21 28 0 0 0 0 0 0 0 0 0 0 0 0 0 0 0 0 0 0
0 517 1060 930 746 713 670 930 769 564 326 191 130 87 64 76 115 132 121 126 161 125 21 2 1 0 0 0 0 0 0 0 0 0 0 0 0 0 0 0 0 0 0
0 0 0 499 1029 959 777 819 790 769 632 459 278 160 120 89 96 103 83 93 131 146 81 12 0 0 0 0 0 0 0 0 0 0 0 0 0 0 0 0 0 0 0
0 0 0 0 268 873 640 653 554 452 576 729 647 429 231 154 125 100 70 62 74 165 106 65 0 0 0 0 0 0 0 0 0 0 0 0 0 0 0 0 0 0 0
0 0 0 0 0 211 990 545 452 436 398 388 570 795 569 350 134 129 103 74 41 112 174 110 0 0 0 0 0 0 0 0 0 0 0 0 0 0 0 0 0 0 0
0 0 0 0 0 0 196 728 793 708 674 559 450 394 616 601 378 223 167 190 83 66 152 147 1 0 0 0 0 0 0 0 0 0 0 0 0 0 0 0 0 0 0
0 0 0 0 0 0 0 80 409 495 813 663 577 603 507 438 670 428 285 420 214 74 110 121 6 0 0 0 0 0 0 0 0 0 0 0 0 0 0 0 0 0 0
0 0 0 0 0 0 0 0 106 225 387 483 698 772 879 433 294 511 466 473 264 147 88 84 0 0 0 0 0 0 0 0 0 0 0 0 0 0 0 0 0 0 0
0 0 0 0 0 0 0 0 4 112 128 389 628 736 777 638 265 131 160 310 253 121 52 14 0 0 0 0 0 0 0 0 0 0 0 0 0 0 0 0 0 0 0
0 0 0 0 0 0 0 0 0 0 73 334 563 694 850 732 287 74 42 69 113 71 32 36 1 0 0 0 0 0 0 0 0 0 0 0 0 0 0 0 0 0 0

GFSSE_con_sbcape_069.txt.gz
CAPE
873 1719 2648 2482 2248 2078 2061 1975 2025 1855 1673 1362 1130 922 805 653 569 382 253 125 148 83 48 5 8 1 0 0 0 0 0 0 0 0 0 0 2 0 0 0 0 7 15
1071 1650 2464 2445 2484 2388 2378 2220 2079 1842 1636 1229 979 704 496 344 212 146 158 167 116 93 51 42 8 0 0 0 0 0 0 0 0 0 0 0 0 0 0 0 0 0 0
1307 1541 1776 2427 2514 2458 2224 2173 1934 1627 1357 883 544 172 116 26 0 0 1 0 21 88 67 51 31 11 0 0 0 0 0 0 0 0 0 0 0 0 0 0 0 0 0
1146 1337 1293 2373 2550 2532 2284 2093 1908 1325 1045 753 487 287 165 97 63 60 5 0 0 0 63 74 45 0 0 0 0 0 0 0 0 0 5 0 0 0 0 0 0 0 0
1322 1060 1665 2337 2536 2455 2246 2134 1945 1537 1029 606 309 130 10 41 69 1 0 0 0 0 49 115 40 0 0 0 0 0 0 0 0 9 21 45 42 31 41 0 0 35 62
1122 1312 1730 2443 2535 2367 2248 2052 1761 1627 841 524 226 25 11 5 2 0 0 25 104 175 123 114 2 0 0 0 0 0 0 0 0 29 38 52 74 113 138 161 91 117 165
1077 1929 1591 2473 2492 2424 2231 1917 1682 1195 971 487 156 16 3 0 0 0 15 128 124 132 155 33 0 0 0 0 0 0 0 0 5 31 45 41 16 13 88 66 14 11 8
1147 1531 1332 1992 2246 2201 2053 1863 1400 824 767 618 287 22 2 0 0 0 22 155 149 129 74 31 4 0 0 0 0 0 0 0 10 18 29 13 26 24 64 14 6 7 5
1148 1357 1400 1175 1333 1509 1390 1266 844 573 710 519 318 180 6 0 0 0 4 105 146 109 44 24 0 0 0 0 0 0 0 0 20 11 36 11 102 105 49 9 5 2 4
1155 1112 1007 965 802 862 587 602 515 539 522 375 257 137 31 0 0 0 6 30 103 70 18 2 0 0 0 0 0 0 0 0 20 11 29 1 21 50 12 1 0 3 5
1116 994 1040 1136 718 736 521 324 328 375 359 204 125 1 0 0 0 0 0 54 100 57 1 0 0 0 0 0 0 0 0 8 15 14 21 0 27 17 3 0 0 1 1
995 1080 923 722 526 330 231 378 257 274 341 329 191 48 36 0 0 0 0 2 90 77 38 0 53 33 0 0 0 0 0 7 6 4 3 0 18 9 2 0 0 0 0
683 1053 919 708 522 276 204 205 208 211 130 120 161 119 39 0 0 0 0 0 12 0 1 5 53 0 0 1 0 0 2 8 2 0 0 0 14 9 0 0 0 0 0
646 713 698 757 611 396 274 159 142 153 132 96 116 130 74 9 0 0 0 0 0 0 0 0 7 0 1 0 0 0 0 0 0 0 0 0 29 1 0 0 0 0 0
952 733 632 693 685 564 367 307 129 85 81 69 75 84 67 29 24 5 0 0 0 0 0 3 30 24 5 0 0 0 0 0 0 0 0 0 21 0 0 0 0 0 0
822 868 670 659 489 643 653 663 357 134 84 48 38 72 49 31 25 59 87 23 0 0 0 11 18 8 1 1 0 0 0 0 0 0 0 0 4 0 0 0 0 0 0
866 831 991 834 607 655 793 823 693 379 163 111 46 46 45 21 52 51 155 204 133 9 0 1 14 0 0 0 0 0 0 0 0 0 0 0 0 0 0 0 0 0 0
717 1025 988 918 863 725 668 984 896 752 412 237 141 78 70 39 70 134 170 179 174 149 11 0 7 1 0 0 0 0 0 0 0 0 0 0 0 0 0 0 0 0 0
0 15 515 1135 1082 1023 962 870 1136 952 809 570 340 237 150 99 90 141 170 151 94 187 83 31 15 0 0 0 0 0 0 0 0 0 0 0 0 0 0 0 0 0 0
0 0 0 4 417 1163 1251 860 919 1002 1133 876 727 505 318 256 144 190 202 162 143 190 129 147 55 1 0 0 0 0 0 0 0 0 0 0 0 0 0 0 0 0 0
0 0 0 0 0 40 422 916 712 590 704 1042 1146 918 738 473 355 329 337 221 209 189 202 101 131 10 0 0 0 0 0 0 0 0 0 0 0 0 0 0 0 0 0
0 0 0 0 0 0 10 858 574 472 359 516 667 854 1002 937 733 468 478 430 365 292 264 128 91 54 0 0 0 0 0 0 0 0 0 0 0 0 0 0 0 0 0
0 0 0 0 0 0 0 6 830 725 1090 942 660 609 416 819 1109 895 562 551 559 435 340 378 158 78 0 0 0 0 0 0 0 0 0 0 0 0 0 0 0 0 0
0 0 0 0 0 0 0 0 0 342 534 696 806 696 520 552 568 671 878 624 573 570 483 326 351 193 0 0 0 0 0 0 0 0 0 0 0 0 0 0 0 0 0
0 0 0 0 0 0 0 0 0 0 153 304 303 361 702 986 647 365 433 495 567 517 536 297 288 265 0 0 0 0 0 0 0 0 0 0 0 0 0 0 0 0 0
0 0 0 0 0 0 0 0 0 0 0 100 174 322 484 710 996 540 263 317 282 330 277 239 176 107 3 1 0 0 0 0 0 0 0 0 0 0 0 0 0 0 0

GFSSE_con_sbcape_072.txt.gz
CAPE
1332 1945 2550 2666 2477 2461 2454 2301 2180 1951 1786 1337 1058 895 773 611 422 270 164 187 97 68 8 10 7 1 0 0 1 0 0 0 0 0 0 1 0 0 0 0 16 3 51
1490 1830 2492 2607 2551 2491 2319 2302 2096 1935 1563 1271 932 716 587 431 321 240 193 170 57 41 45 12 4 0 0 0 0 0 0 0 0 0 0 0 0 0 0 0 0 0 0
1398 1784 2143 2497 2438 2389 2243 2233 1990 1842 1676 1457 746 333 182 58 1 0 0 7 42 55 35 26 2 0 0 0 0 0 0 0 0 0 0 0 0 0 0 0 0 1 0
1445 1348 1689 2423 2457 2391 2205 2047 1824 1654 1356 1039 540 403 198 49 77 44 5 0 0 44 62 41 0 0 0 0 0 0 0 0 0 4 1 0 0 0 0 0 0 0 0
1071 920 1712 2360 2451 2408 2248 2031 1839 1654 1194 823 546 188 80 196 38 0 0 0 2 64 88 49 0 0 0 0 0 0 0 0 4 8 24 20 15 97 46 146 177 200 176
811 1367 1867 2316 2463 2292 2104 2015 1823 1510 933 566 162 26 20 11 0 0 0 33 79 275 149 16 2 0 0 0 0 0 0 0 4 33 21 35 15 148 209 89 21 61 73
1300 1411 1809 2393 2432 2345 2237 1880 1643 1408 1002 672 201 4 2 4 0 0 25 96 217 243 113 0 1 0 1 0 0 0 0 0 0 14 6 0 0 97 62 6 4 5 7
1512 1228 1571 2109 2167 2143 2027 1735 1450 884 703 476 20 4 3 1 1 3 57 272 221 180 36 2 5 0 1 0 0 0 0 0 1 20 14 7 89 66 24 9 5 4 5
1305 1144 1288 1535 1733 1658 1560 1433 965 744 572 355 185 85 1 1 0 5 148 287 146 124 84 11 0 0 0 0 0 0 0 0 2 12 7 18 193 81 16 9 3 3 9
1306 1210 972 886 1137 1130 847 746 443 495 328 269 168 68 0 0 0 0 14 179 188 133 100 18 0 0 0 0 0 0 0 0 0 0 2 14 101 26 6 2 1 2 3
1120 987 898 663 651 676 336 313 273 223 157 127 48 1 0 0 0 0 0 53 141 103 37 0 0 1 0 0 0 0 0 0 0 0 0 155 2 13 3 1 0 1 1
966 858 729 734 442 343 336 115 162 212 146 111 44 0 0 0 0 0 0 3 106 88 42 35 46 52 0 0 0 0 0 0 0 0 0 123 4 8 4 0 0 0 0
799 866 876 772 389 208 177 114 101 144 177 154 84 13 14 0 0 0 0 0 0 3 0 13 64 3 0 0 0 0 0 0 0 0 0 79 8 5 0 0 0 0 0
642 667 701 567 259 118 76 83 95 118 76 57 101 43 17 0 0 0 0 0 0 0 0 0 0 0 0 0 0 0 0 0 0 0 0 9 6 4 0 0 0 0 0
662 667 578 550 427 142 92 67 38 67 64 39 33 48 17 0 0 0 0 0 0 0 0 0 0 0 0 0 0 0 0 0 0 0 0 0 0 0 0 0 0 0 0
658 596 603 541 499 405 152 114 97 40 26 20 17 31 21 1 0 0 0 0 0 0 0 0 0 0 0 0 0 0 0 0 0 0 0 0 0 0 0 0 0 0 0
549 671 586 659 549 409 414 412 246 101 41 20 0 1 5 0 0 0 4 0 0 0 0 0 0 0 0 0 0 0 0 0 0 0 0 0 0 0 0 0 0 0 0
537 577 645 736 558 485 436 490 440 320 120 51 0 0 0 0 0 0 2 12 16 21 0 0 0 0 0 0 0 0 0 0 0 0 0 0 0 0 0 0 0 0 0
7 334 599 790 647 507 524 454 686 525 384 168 84 10 0 0 0 0 27 29 35 22 16 0 0 0 0 0 0 0 0 0 0 0 0 0 0 0 0 0 0 0 0
0 0 0 264 723 689 641 588 583 657 685 389 264 135 77 0 0 0 32 38 21 19 28 5 0 0 0 0 0 0 0 0 0 0 0 0 0 0 0 0 0 0 0
0 0 0 0 0 323 838 561 546 636 432 476 521 401 213 102 18 13 20 42 27 19 37 33 11 0 0 0 0 0 0 0 0 0 0 0 0 0 0 0 0 0 0
0 0 0 0 0 0 0 693 481 455 403 397 246 439 476 308 126 67 45 58 49 39 35 47 42 16 0 0 0 0 0 0 0 0 0 0 0 0 0 0 0 0 0
0 0 0 0 0 0 0 9 401 256 186 194 246 424 382 329 334 212 98 87 91 65 35 23 16 29 7 0 0 0 0 0 0 0 0 0 0 0 0 0 0 0 0
0 0 0 0 0 0 0 0 43 386 311 454 381 351 302 297 299 289 290 176 125 136 121 37 24 29 0 0 0 0 0 0 0 0 0 0 0 0 0 0 0 0 0
0 0 0 0 0 0 0 0 0 0 0 93 177 319 270 251 240 244 346 129 322 265 315 190 94 67 50 0 0 0 0 0 0 0 0 0 0 0 0 0 0 0 0
0 0 0 0 0 0 0 0 0 0 0 0 0 0 0 6 341 308 226 212 167 148 244 252 181 69 55 2 0 0 0 0 0 0 0 0 0 0 0 0 0 0 0

GFSSE_con_sbcape_075.txt.gz
CAPE
1348 2087 2630 2635 2625 2630 2475 2379 2104 1887 1620 1366 1101 848 732 510 232 233 226 88 118 25 12 7 2 0 0 0 0 0 0 0 0 0 0 0 0 1 3 0 0 18 54
1575 2017 2460 2555 2581 2537 2406 2317 2070 1786 1667 1486 1016 808 641 489 361 256 239 60 46 43 8 5 1 0 0 0 0 0 0 0 0 0 0 0 0 0 0 0 0 0 0
1702 1980 2163 2451 2441 2412 2353 2193 2013 1754 1645 1504 917 604 346 148 12 0 32 129 64 27 9 2 0 0 0 0 0 0 0 0 0 0 0 0 0 0 0 0 0 1 2
1681 1829 1982 2326 2420 2398 2272 2099 2001 1853 1646 1320 1003 353 192 65 70 30 3 0 64 75 33 0 0 0 0 0 0 0 0 2 1 0 0 0 0 0 0 11 16 47 1
1365 1672 1975 2284 2397 2340 2086 1929 1829 1688 1510 1324 1065 603 383 252 13 0 0 0 28 126 57 4 0 0 0 0 0 0 0 5 23 10 6 6 16 99 164 160 123 201 229
1106 1449 2061 2273 2405 2173 1961 1875 1823 1285 1344 844 509 149 56 10 0 0 0 0 245 226 74 7 3 0 0 0 0 0 1 12 2 0 1 31 19 136 45 7 8 66 158
1138 1548 1928 2275 2336 2164 2043 1885 1521 1471 1097 541 78 5 7 2 0 0 0 253 357 199 20 9 5 0 0 0 0 0 0 2 0 0 0 1 14 19 6 6 5 6 8
1287 1486 1790 2022 2033 2081 2022 1633 1476 1166 604 306 29 1 3 1 0 16 17 203 440 86 0 11 4 0 0 0 0 0 0 0 2 2 0 0 125 12 6 8 1 5 4
1263 1401 1643 1710 1756 1786 1530 1388 1138 769 520 203 104 29 0 6 0 65 154 353 247 102 95 2 0 0 0 0 0 0 0 0 0 0 6 9 145 11 2 6 5 6 8
1072 1226 1211 1301 1419 1293 1003 767 569 496 258 176 64 8 0 0 0 57 157 220 266 218 97 66 0 0 0 0 0 0 0 0 0 0 0 50 54 7 4 1 3 3 2
926 797 865 895 904 842 664 376 231 165 92 71 22 0 0 0 0 0 13 118 157 174 102 33 20 40 40 0 0 0 0 0 0 0 0 169 25 6 3 0 1 1 0
948 744 717 542 526 486 448 141 97 95 58 32 6 0 0 0 0 0 0 68 147 102 84 71 83 81 7 0 0 0 0 0 0 0 0 127 1 4 2 0 0 0 0
633 722 549 268 455 219 185 63 70 69 61 46 11 0 0 0 0 0 0 1 2 1 2 42 72 10 0 0 0 0 0 0 0 0 23 105 0 1 1 0 0 0 0
551 481 566 478 335 56 88 51 53 70 84 68 29 0 0 0 0 0 0 0 0 0 0 0 0 0 0 0 0 0 0 0 0 0 13 45 31 3 0 0 0 0 0
504 487 421 344 195 51 81 36 42 62 63 45 55 21 0 0 0 0 0 0 0 0 0 0 0 0 0 0 0 0 0 0 0 0 0 2 27 0 0 0 0 0 0
460 444 446 419 276 32 8 0 0 0 22 0 29 33 0 0 0 0 0 0 0 0 0 0 0 0 0 0 0 0 0 0 0 0 0 0 0 0 0 0 0 0 0
377 396 369 425 382 197 201 35 0 0 0 0 0 0 0 0 0 0 0 0 0 0 0 0 0 0 0 0 0 0 0 0 0 0 0 0 0 0 0 0 0 0 0
301 497 458 604 489 318 187 205 137 2 0 0 0 0 0 0 0 0 0 0 0 0 0 0 0 0 0 0 0 0 0 0 0 0 0 0 0 0 0 0 0 0 0
256 354 531 547 497 421 286 215 220 372 0 0 0 0 0 0 0 0 0 0 0 0 0 0 0 0 0 0 0 0 0 0 0 0 0 0 0 0 0 0 0 0 0
9 204 299 573 464 372 318 243 214 334 511 95 0 0 0 0 0 0 0 0 0 0 0 0 0 0 0 0 0 0 0 0 0 0 0 0 0 0 0 0 0 0 0
0 0 0 37 638 465 350 264 251 348 271 235 202 29 0 0 0 0 0 0 0 0 0 0 0 0 0 0 0 0 0 0 0 0 0 0 0 0 0 0 0 0 0
0 0 0 0 0 212 568 467 199 184 167 218 145 246 266 140 0 0 0 0 0 0 0 0 0 0 0 0 0 0 0 0 0 0 0 0 0 0 0 0 0 0 0
0 0 0 0 0 0 0 262 116 154 35 118 108 204 137 134 146 76 0 0 0 0 0 0 0 0 0 0 0 0 0 0 0 0 0 0 0 0 0 0 0 0 0
0 0 0 0 0 0 0 0 148 123 210 55 78 104 78 65 36 20 53 39 0 0 0 0 0 0 0 0 0 0 0 0 0 0 0 0 0 0 0 0 0 0 0
0 0 0 0 0 0 0 0 0 0 0 0 60 109 64 19 79 81 63 45 43 0 0 0 0 0 0 0 0 0 0 0 0 0 0 0 0 0 0 0 0 0 0
0 0 0 0 0 0 0 0 0 0 0 0 0 0 7 0 0 0 0 25 2 13 90 120 56 0 4 26 0 0 0 0 0 0 0 0 0 0 0 0 0 0 0

GFSSE_con_sbcape_078.txt.gz
CAPE
906 1931 2656 2770 2559 2512 2178 1997 2085 1875 1707 1086 836 684 375 292 346 251 64 6 13 15 9 4 3 3 1 0 0 0 0 0 0 0 0 8 7 19 18 14 10 14 23
1452 2030 2523 2726 2699 2589 2435 2151 1908 1772 1554 1500 1001 766 592 401 340 229 83 33 31 8 4 2 0 0 0 0 0 0 0 0 0 0 0 0 0 0 0 0 0 0 0
1739 1944 2188 2558 2527 2510 2254 2208 2010 1863 1683 1496 1000 832 535 329 253 305 173 64 32 8 4 1 0 0 0 0 0 0 0 0 0 0 0 0 0 1 0 0 0 1 2
1679 1858 1966 2415 2503 2437 2343 2121 1967 1855 1776 1531 1021 439 184 52 33 7 22 137 46 22 1 0 0 0 0 0 0 2 0 0 0 0 0 0 0 5 13 41 82 20 5
1632 1723 1911 2312 2425 2286 2144 2074 1962 1928 1748 1536 1121 835 475 209 2 0 0 37 166 43 1 0 0 0 0 0 0 3 7 16 15 0 0 0 20 146 169 151 192 154 158
1520 1568 2021 2268 2376 2214 2108 2095 2003 1766 1553 1202 1086 802 203 2 0 0 0 197 305 71 4 0 0 0 0 0 0 0 7 10 0 0 4 76 18 105 11 5 7 112 163
1402 1663 1961 2246 2245 2143 2021 1914 1675 1410 1094 754 323 154 15 2 0 0 3 124 262 111 22 0 0 0 0 0 0 0 0 3 0 0 0 8 0 6 4 5 7 3 12
1350 1676 1876 2010 2023 1993 1966 1722 1455 1013 545 139 1 0 3 1 1 0 109 193 276 40 16 0 0 0 0 0 0 0 0 0 0 0 0 0 56 6 6 3 4 4 5
1352 1537 1678 1783 1740 1711 1650 1418 1353 768 387 115 21 8 14 4 57 0 110 488 326 123 134 76 28 0 0 0 0 0 0 0 0 0 0 0 94 5 3 2 3 4 4
1317 1481 1493 1457 1538 1376 1107 917 766 397 184 94 71 7 0 0 91 92 179 391 253 184 122 105 64 31 0 0 0 0 0 0 0 0 0 22 28 5 3 1 2 2 1
1293 1240 1280 1274 1194 1000 868 538 327 164 51 44 15 0 0 0 0 30 98 171 235 216 112 59 58 73 47 2 0 0 0 0 0 0 0 185 25 2 2 0 1 0 0
875 952 1003 924 884 858 673 260 121 67 27 10 0 0 0 0 0 0 55 96 173 167 126 86 66 70 4 0 0 0 0 0 0 0 0 180 25 1 1 0 0 0 0
647 777 692 615 598 344 377 62 37 35 17 7 0 0 0 0 0 0 0 27 33 33 11 26 53 0 0 0 0 0 0 0 0 0 30 168 28 1 0 0 0 0 0
605 527 413 408 462 131 95 57 50 46 27 10 0 0 0 0 0 0 0 0 0 0 0 1 0 0 0 0 0 0 0 0 0 0 0 96 89 0 0 0 0 0 1
507 418 380 241 145 83 68 74 51 52 48 35 8 0 0 0 0 0 0 0 0 0 0 0 0 0 0 0 0 0 0 0 0 0 0 34 75 52 0 0 0 0 1
385 391 303 283 74 62 87 41 34 34 49 32 26 13 0 0 0 0 0 0 0 0 0 0 0 0 0 0 0 0 0 0 0 0 0 0 37 58 0 0 0 1 1
251 249 362 320 158 9 23 2 0 0 10 0 35 21 0 0 0 0 0 0 0 0 0 0 0 0 0 0 0 0 0 0 0 0 0 0 0 0 0 0 0 1 2
388 299 185 379 252 75 43 42 4 0 0 0 0 0 0 0 0 0 0 0 0 0 0 0 0 0 0 0 0 0 0 0 0 0 0 0 0 0 0 0 0 0 3
280 373 350 289 304 209 104 118 138 177 0 0 0 0 0 0 0 0 0 0 0 0 0 0 0 0 0 0 0 0 0 0 0 0 0 0 0 0 0 0 0 0 2
127 262 394 385 346 144 104 104 88 165 216 0 0 0 0 0 0 0 0 0 0 0 0 0 0 0 0 0 0 0 0 0 0 0 0 0 0 0 0 0 0 0 0
0 76 284 416 479 216 113 98 77 164 152 162 10 0 0 0 0 0 0 0 0 0 0 0 0 0 0 0 0 0 0 0 0 0 0 0 0 0 0 0 0 0 0
0 0 0 0 101 330 196 135 133 85 40 99 91 29 9 0 0 0 0 0 0 0 0 0 0 0 0 0 0 0 0 0 0 0 0 0 0 0 0 0 0 0 0
0 0 0 0 0 0 91 222 62 23 0 35 40 62 71 49 0 0 0 0 0 0 0 0 0 0 0 0 0 0 0 0 0 0 0 0 0 0 0 0 0 0 0
0 0 0 0 0 0 0 8 246 307 254 57 4 15 0 0 3 0 0 0 0 0 0 0 0 0 0 0 0 0 0 0 0 0 0 0 0 0 0 0 0 0 0
0 0 0 0 0 0 0 0 0 0 0 0 0 1 0 0 0 0 0 0 0 0 0 0 0 0 0 0 0 0 0 0 0 0 0 0 0 0 0 0 0 0 0
0 0 0 0 0 0 0 0 0 0 0 0 0 0 0 0 0 0 0 0 0 0 1 0 0 0 2 0 2 0 0 0 0 0 0 0 0 0 0 0 0 0 0

GFSSE_con_sbcape_081.txt.gz
CAPE
718 1874 2512 2486 2348 1943 1833 1604 1729 1657 1255 778 562 466 490 350 195 15 4 5 13 12 7 6 3 1 0 0 0 0 0 1 2 1 6 15 16 35 40 27 10 0 0
1096 1960 2571 2669 2563 2243 2203 2202 1991 1809 1605 1341 810 494 368 353 228 27 5 7 5 4 2 0 0 0 0 0 0 0 0 0 0 0 0 0 0 0 0 0 0 0 0
1596 1930 2280 2550 2511 2492 2344 2089 1896 1748 1608 1456 894 723 560 458 420 95 67 6 2 3 1 0 0 0 0 0 0 0 0 0 0 0 0 0 0 0 0 0 0 1 1
1595 1887 2131 2443 2514 2454 2307 2114 1895 1555 1413 1433 950 606 314 172 232 304 197 20 0 0 0 0 0 0 0 0 0 0 0 0 0 0 0 0 0 11 57 68 67 7 1
1564 1731 2003 2340 2470 2335 2168 2131 2009 1875 1713 1440 1059 583 209 192 1 0 184 203 23 0 0 0 0 0 0 0 0 0 5 5 0 0 0 4 41 100 108 226 186 214 265
1462 1508 2056 2269 2373 2249 2147 2065 1955 1868 1398 1231 1106 912 315 1 0 0 8 454 121 24 0 0 0 0 0 0 0 41 50 0 0 0 0 21 0 21 3 4 20 117 266
1455 1569 1814 2257 2280 2240 2158 2061 1930 1796 1439 1249 862 333 24 0 0 0 51 307 104 0 0 0 0 0 0 0 0 0 6 0 0 0 0 0 0 2 8 7 4 2 9
1187 1667 1848 2021 1962 2091 2118 1999 1800 1194 609 204 86 51 0 0 0 0 29 330 93 53 0 0 0 0 0 0 0 0 7 0 0 0 0 0 40 5 2 3 4 4 2
1363 1587 1734 1768 1746 1726 1711 1508 1229 658 333 170 55 14 38 47 47 55 106 319 156 134 81 59 0 0 0 0 0 0 0 0 0 0 0 0 28 3 2 3 4 4 4
1399 1504 1526 1440 1433 1375 1197 1049 799 365 133 94 71 24 2 0 66 84 168 441 277 183 187 132 48 1 0 0 0 0 0 0 0 0 0 1 17 1 2 1 2 1 1
1196 1101 1258 1295 1192 1045 840 684 331 100 49 41 18 0 0 0 0 0 96 193 198 197 133 66 69 51 0 0 0 0 0 0 0 0 0 141 7 2 1 0 0 0 0
1141 889 1038 1156 1096 889 822 345 75 37 12 4 0 0 0 0 0 9 69 140 203 150 107 77 51 48 0 0 0 0 0 0 0 0 0 186 41 1 0 0 0 0 0
1018 649 790 946 895 770 693 197 34 15 4 0 0 0 0 0 0 0 8 47 51 58 34 43 35 8 0 0 0 0 0 0 0 0 0 201 61 22 0 0 0 0 0
666 770 792 784 612 266 96 55 31 24 5 0 0 0 0 0 0 0 0 0 7 2 0 2 2 0 0 0 0 0 0 0 0 0 0 99 176 30 0 0 0 0 0
597 584 494 391 438 152 84 52 31 28 18 2 0 0 0 0 0 0 0 0 0 0 0 0 0 0 0 0 0 0 0 0 0 0 0 37 95 124 8 0 0 0 1
550 442 347 265 250 80 131 65 51 26 24 8 0 0 0 0 0 0 0 0 0 0 0 0 0 0 0 0 0 0 0 0 0 0 0 0 34 143 39 0 0 0 0
484 429 307 274 92 117 73 42 33 22 20 4 2 0 0 0 0 0 0 0 0 0 0 0 0 0 0 0 0 0 0 0 0 0 0 0 0 40 76 0 0 1 2
345 390 345 441 177 56 137 14 0 0 0 0 0 0 0 0 0 0 0 0 0 0 0 0 0 0 0 0 0 0 0 0 0 0 0 0 0 0 0 49 18 0 2
343 272 258 271 258 32 30 22 11 0 0 0 0 0 0 0 0 0 0 0 0 0 0 0 0 0 0 0 0 0 0 0 0 0 0 0 0 0 0 0 0 3 1
214 237 234 168 280 171 62 37 57 76 0 0 0 0 0 0 0 0 0 0 0 0 0 0 0 0 0 0 0 0 0 0 0 0 0 0 0 0 0 0 0 0 0
19 131 283 310 251 120 89 70 40 110 111 33 0 0 0 0 0 0 0 0 0 0 0 0 0 0 0 0 0 0 0 0 0 0 0 0 0 0 0 0 0 0 0
0 0 85 250 272 168 82 50 54 45 35 95 38 0 0 0 0 0 0 0 0 0 0 0 0 0 0 0 0 0 0 0 0 0 0 0 0 0 0 0 0 0 0
0 0 0 0 0 75 85 55 0 0 3 7 9 46 42 1 0 0 0 0 0 0 0 0 0 0 0 0 0 0 0 0 0 0 0 0 0 0 0 0 0 0 0
0 0 0 0 0 0 0 98 179 255 141 10 2 0 0 0 0 0 0 0 0 0 0 0 0 0 0 0 0 0 0 0 0 0 0 0 0 0 0 0 0 0 0
0 0 0 0 0 0 0 0 0 63 31 0 0 0 0 0 0 0 0 0 0 0 0 0 0 0 0 4 0 0 0 0 0 0 0 0 0 0 0 0 0 0 0
0 0 0 0 0 0 0 0 0 0 0 0 0 0 0 0 0 0 0 0 0 0 0 0 0 0 0 0 0 0 0 0 0 0 0 0 0 0 0 0 0 0 0

GFSSE_con_sbcape_084.txt.gz
CAPE
277 1587 2325 2406 1802 1924 1753 1627 1603 1376 1176 870 702 543 331 147 14 2 5 6 7 8 5 5 4 1 0 0 0 1 2 4 8 4 3 17 44 46 32 4 0 0 0
968 1795 2423 2485 2132 2145 2064 2005 1814 1627 1372 1062 606 494 367 149 1 3 4 4 4 3 2 1 0 0 1 0 0 0 0 0 0 0 0 0 0 1 0 0 0 0 2
1451 1859 2080 2451 2208 2279 2258 2043 1905 1743 1586 1299 656 519 436 289 50 62 2 1 2 1 0 0 0 0 2 1 0 0 0 0 0 0 0 0 0 0 1 0 0 0 1
1618 1873 2034 2393 2305 2451 2295 1992 1874 1650 1409 1318 883 691 546 558 158 168 2 0 1 0 0 0 0 1 0 0 0 0 0 0 0 0 0 0 0 99 92 84 56 38 1
1583 1811 1994 2379 2520 2457 2224 1975 1886 1753 1595 1392 1052 604 236 205 262 373 61 0 0 0 0 0 0 2 1 0 0 0 0 0 0 0 1 13 46 104 241 256 216 300 48
1492 1623 2088 2325 2457 2335 2227 2101 1931 1702 1293 949 815 565 342 44 3 144 363 249 12 0 0 0 0 0 0 0 59 93 39 29 0 0 0 6 0 4 3 4 3 202 206
1348 1574 1906 2291 2341 2278 2201 2104 1975 1753 1425 1018 697 532 91 0 0 42 383 197 0 0 0 0 0 0 0 0 8 68 7 0 0 0 0 0 0 3 7 4 2 4 8
1359 1508 1826 1993 2074 2121 2078 1984 1847 1649 1308 1211 500 111 30 0 0 0 229 135 38 0 0 0 0 0 0 0 0 27 0 0 0 0 0 0 50 4 5 3 4 5 2
1330 1387 1620 1648 1747 1860 1843 1748 1424 824 525 388 169 106 46 38 38 1 194 288 87 62 47 0 0 0 0 0 0 0 0 0 0 0 0 0 65 3 3 3 2 2 3
1280 1372 1450 1416 1444 1350 1290 1047 655 388 229 153 64 25 16 31 56 153 144 408 289 232 141 68 22 0 0 0 0 0 0 0 0 0 0 0 0 1 2 1 0 0 0
1001 1055 1171 1227 1071 958 790 603 239 80 48 33 15 0 0 0 5 46 98 237 189 220 142 77 57 37 0 0 0 0 0 0 0 0 0 62 29 0 0 0 0 0 0
819 1036 1087 1105 991 813 790 334 51 30 9 0 0 0 0 0 0 10 33 155 171 136 97 69 44 38 0 0 0 0 0 0 0 0 0 130 50 28 0 0 0 0 0
607 774 1056 956 825 763 611 117 35 7 0 0 0 0 0 0 0 1 15 51 47 45 29 40 29 3 0 0 0 0 0 0 0 0 0 116 105 62 0 0 0 0 0
935 632 893 927 794 559 240 105 38 6 0 0 0 0 0 0 0 0 3 8 11 8 2 0 0 0 0 0 0 0 0 0 0 0 0 25 201 73 28 0 0 0 0
800 712 740 782 542 259 106 54 31 17 9 0 0 0 0 0 0 0 0 0 0 0 0 0 0 0 0 0 0 0 0 0 0 0 0 0 74 186 63 1 0 0 0
439 574 635 548 463 150 88 44 46 25 20 1 0 0 0 0 0 0 0 0 0 0 0 0 0 0 0 0 0 0 0 0 0 0 0 0 9 129 144 40 1 0 0
485 404 409 444 288 176 104 35 26 25 17 2 0 0 0 0 0 0 0 0 0 0 0 0 0 0 0 0 0 0 0 0 0 0 0 0 0 25 145 82 15 1 0
448 455 362 557 247 212 114 34 20 14 10 3 0 0 0 0 0 0 0 0 0 0 0 0 0 0 0 0 0 0 0 0 0 0 0 0 0 0 3 170 175 13 0
317 350 373 366 209 112 116 37 12 1 0 0 0 0 0 0 0 0 0 0 0 0 0 0 0 0 0 0 0 0 0 0 0 0 0 0 0 0 0 0 16 43 65
198 233 304 272 307 68 32 17 11 0 0 0 0 0 0 0 0 0 0 0 0 0 0 0 0 0 0 0 0 0 0 0 0 0 0 0 0 0 0 0 0 0 0
84 168 251 310 306 197 74 45 51 126 64 0 0 0 0 0 0 0 0 0 0 0 0 0 0 0 0 0 0 0 0 0 0 0 0 0 0 0 0 0 0 0 0
21 90 144 211 203 239 184 85 81 63 76 95 20 0 0 0 0 0 0 0 0 0 0 0 0 0 0 0 0 0 0 0 0 0 0 0 0 0 0 0 0 0 0
0 0 2 94 190 167 128 73 43 29 17 32 59 55 0 0 0 0 0 0 0 0 0 0 0 0 0 0 0 0 0 0 0 0 0 0 0 0 0 0 0 0 0
0 0 0 0 0 0 25 110 106 166 178 80 29 7 0 0 0 0 0 0 0 0 0 0 0 0 0 0 0 0 0 0 0 0 0 0 0 0 0 0 0 0 0
0 0 0 0 0 0 0 0 0 62 44 0 0 0 0 0 0 0 0 0 0 0 0 0 0 0 0 0 0 0 0 0 0 0 0 0 0 0 0 0 0 0 0
0 0 0 0 0 0 0 0 0 0 0 0 0 0 0 0 0 0 0 0 0 0 0 0 0 0 0 0 0 0 0 0 0 0 0 0 0 0 0 0 0 0 0

GFSSE_con_sbcape_087.txt.gz
CAPE
826 1623 2234 2186 1963 2017 1856 1666 1682 1523 1315 906 328 289 119 33 8 4 2 0 0 0 7 8 5 3 2 2 3 4 6 5 3 0 0 37 44 19 1 0 0 0 0
1100 1693 2140 2195 2221 2157 2076 1879 1684 1502 1353 1050 386 360 116 31 4 8 8 4 4 3 1 1 1 3 0 0 0 0 0 0 0 0 0 0 1 0 0 0 0 1 0
1407 1727 1965 2149 2200 2193 2147 1971 1734 1524 1360 1170 769 373 212 87 42 5 6 7 2 1 0 0 5 3 2 1 0 0 0 0 0 0 0 0 0 1 2 1 0 0 0
1515 1787 1907 2110 2219 2285 2191 1999 1845 1739 1489 1252 1032 641 439 189 134 3 2 4 0 0 0 2 2 0 0 0 0 0 0 0 0 0 3 0 103 118 165 227 175 11 2
1755 1832 1983 2113 2217 2375 2108 2025 1971 1718 1621 1429 1173 978 661 347 347 27 3 1 0 0 0 2 6 6 3 2 1 0 0 0 5 14 86 67 74 116 112 58 268 113 109
1793 1866 2133 2221 2471 2255 2003 1819 1962 1758 1384 996 977 709 311 216 441 260 0 0 0 0 0 3 4 0 0 63 76 42 65 28 21 11 7 5 5 6 7 0 17 245 261
1602 1900 2158 2421 2388 2340 2131 2069 1976 1817 1427 848 572 473 154 38 107 511 157 58 0 0 0 0 1 0 0 35 81 54 15 0 22 3 0 1 5 4 4 1 0 0 0
1526 1890 1948 2130 2153 2198 2182 2038 1941 1682 1363 1140 947 290 43 0 12 341 170 98 19 0 0 0 0 0 0 0 51 0 0 0 0 0 0 2 19 2 3 2 2 3 2
1594 1735 1870 1807 1804 1864 1813 1799 1636 1361 1062 643 401 150 25 5 0 98 472 213 68 65 9 0 0 0 0 0 30 0 0 0 0 0 0 1 42 2 2 1 1 2 4
1660 1629 1713 1838 1761 1661 1599 1182 765 577 439 309 213 50 20 19 36 96 234 266 284 197 123 86 0 0 0 0 0 0 0 0 0 28 1 3 4 1 0 0 0 0 0
1377 1522 1547 1651 1644 1536 1399 846 299 145 73 37 11 0 1 39 41 65 95 228 235 234 130 79 36 8 0 0 0 0 0 0 0 16 5 35 5 0 0 0 0 0 0
1108 898 1091 1269 1518 1379 1113 635 186 54 22 13 15 11 2 24 18 46 54 147 159 145 114 75 51 11 0 0 0 0 0 0 0 0 18 41 26 8 0 0 0 0 0
932 994 986 1038 1418 1248 1017 454 122 54 25 13 9 1 1 6 27 42 82 158 152 52 59 46 35 16 0 0 0 0 0 0 0 0 1 30 115 51 0 0 0 0 0
613 1012 1133 1084 1204 1200 846 439 128 52 27 14 6 0 0 7 21 53 92 111 117 81 54 40 26 16 2 0 0 0 0 0 0 0 0 2 144 95 32 0 0 0 0
749 679 1004 1039 1175 1081 725 456 139 55 28 20 7 1 0 1 7 16 41 45 55 45 33 24 12 6 2 0 0 0 0 0 0 0 0 0 10 150 75 17 0 0 0
827 743 729 1011 857 856 628 379 211 65 39 25 11 7 0 0 0 0 3 6 15 16 17 4 0 0 0 0 0 0 0 0 0 0 0 0 0 66 141 72 23 0 0
554 566 751 747 670 943 660 395 226 74 53 34 21 5 0 0 0 0 0 0 0 0 0 0 0 0 0 0 0 0 0 0 0 0 0 0 0 0 61 137 81 24 3
588 609 524 568 599 734 693 350 240 161 117 72 38 13 0 0 0 0 0 0 0 0 0 0 0 0 0 0 0 0 0 0 0 0 0 0 0 0 0 98 222 57 26
625 597 518 555 502 540 491 353 240 166 148 142 81 64 35 0 0 0 0 0 0 0 0 0 0 0 0 0 0 0 0 0 0 0 0 0 0 0 0 0 4 75 120
382 438 586 519 398 276 258 190 148 95 110 104 113 105 91 58 2 0 0 0 0 0 0 0 0 0 0 0 0 0 0 0 0 0 0 0 0 0 0 0 0 0 0
150 203 326 419 263 100 109 184 209 320 185 90 54 67 53 77 31 0 0 0 0 0 0 0 0 0 0 0 0 0 0 0 0 0 0 0 0 0 0 0 0 0 0
36 97 187 287 387 417 143 116 132 164 160 334 104 12 0 9 26 8 0 0 0 0 0 0 0 0 0 0 0 0 0 0 0 0 0 0 0 0 0 0 0 0 0
0 0 78 155 233 358 281 145 94 79 79 133 201 138 14 0 0 0 0 0 0 0 0 0 0 0 0 0 0 0 0 0 0 0 0 0 0 0 0 0 0 0 0
0 0 0 12 123 151 178 296 351 451 331 242 229 139 117 9 0 0 0 0 0 0 0 0 0 0 0 0 0 0 0 0 0 9 0 0 0 0 0 0 0 0 0
0 0 0 0 0 0 1 119 311 307 218 104 78 83 55 44 31 1 0 0 0 0 0 0 0 0 0 0 0 0 0 0 0 0 0 0 0 0 0 0 0 0 0
0 0 0 0 0 0 0 0 0 18 38 27 23 13 11 1 0 0 1 1 0 0 0 0 0 0 0 0 0 0 0 0 0 1 2 0 0 0 0 0 0 0 0

GFSSE_con_sbcape_090.txt.gz
CAPE
1444 1398 2242 2313 1881 1915 1833 1614 1756 1536 1263 643 390 148 69 31 9 14 22 82 129 138 69 12 8 8 4 3 5 4 5 6 0 0 8 54 3 1 0 0 15 0 3
1493 1369 2205 2293 2244 2110 2064 1916 1705 1471 1104 899 334 138 82 18 18 8 2 0 0 1 3 8 2 0 0 0 0 0 0 0 0 0 0 0 1 0 0 0 1 0 0
1474 1353 1431 2224 2230 2237 2068 1891 1744 1575 1227 1076 488 190 155 24 10 7 4 1 2 1 4 10 7 3 1 0 0 0 0 0 0 0 0 42 23 82 95 2 1 0 0
1444 1570 1097 2110 2194 2159 2093 1940 1804 1645 1435 1212 987 420 259 42 4 7 2 0 0 1 6 6 3 2 1 1 0 0 0 0 0 5 99 41 60 153 151 247 64 37 60
1562 1538 1464 2064 2229 2174 2021 1996 1881 1690 1525 1411 1273 1011 684 190 42 33 1 0 0 4 6 9 8 5 1 1 1 0 2 12 43 62 38 30 25 5 15 220 187 216 235
1536 1645 1720 1952 2344 2259 2019 2009 1765 1814 1366 1027 1082 820 795 597 174 78 0 0 0 12 7 7 4 15 78 59 45 72 56 33 16 42 25 13 3 3 1 0 4 10 193
1386 1731 1917 2044 2438 2278 2124 1999 2008 1795 1269 786 526 404 308 415 529 127 0 0 0 0 3 2 1 2 77 82 88 88 36 0 19 9 12 6 5 3 2 0 0 0 0
1300 1765 1943 2116 2205 2204 2124 2093 2000 1743 1421 1043 944 252 72 115 513 169 32 0 0 0 1 1 0 0 61 77 42 13 0 0 1 2 3 1 3 2 0 0 0 0 1
1586 1771 1902 1866 1782 1831 1926 1914 1810 1711 1347 1000 632 365 62 18 199 471 184 89 7 0 0 0 0 0 16 76 0 0 0 0 1 3 2 6 2 2 0 0 0 1 0
1435 1500 1603 1733 1785 1616 1522 1458 1320 1069 738 675 412 82 0 7 35 277 253 245 212 82 35 0 1 9 0 0 0 0 0 0 2 5 8 2 2 0 0 0 0 0 1
1460 1303 1316 1675 1578 1449 1220 1056 539 344 238 152 45 0 0 0 0 40 272 139 282 216 99 39 24 20 0 0 0 0 0 9 13 21 27 14 7 0 0 0 0 0 0
1318 1308 1467 1653 1591 1418 1042 1043 704 344 205 122 46 15 0 0 6 0 122 127 205 181 170 110 41 1 0 0 2 0 11 9 7 18 48 30 26 5 0 0 0 0 0
1332 1115 1543 1387 1468 1330 1139 924 618 403 224 70 3 0 0 11 8 7 90 319 166 75 126 76 52 41 6 0 0 0 0 1 1 9 13 12 114 39 0 0 0 0 0
1091 1247 1116 1297 1547 1310 1138 969 659 448 234 87 29 0 0 8 24 6 43 120 139 112 117 125 90 61 25 0 0 0 0 0 0 0 7 0 50 132 49 0 0 0 0
962 1003 1168 1139 1517 1401 1164 928 734 482 257 148 66 12 0 1 26 51 82 86 115 111 89 73 44 34 34 16 0 0 0 0 0 0 0 0 0 63 114 41 0 0 0
1008 996 1219 1227 1316 1392 1246 1051 793 521 339 213 138 69 22 1 2 23 50 58 57 45 40 34 11 0 0 0 0 0 0 0 0 0 0 0 0 0 98 92 56 7 0
1257 1248 880 1250 1216 1362 1237 1104 957 755 434 290 221 149 68 39 23 17 0 6 15 4 0 10 1 0 0 0 0 0 0 0 0 0 0 0 0 0 1 134 126 58 16
1255 1255 1275 1162 1409 1278 1269 1214 1103 957 581 437 316 267 145 74 62 38 24 0 0 0 0 0 0 0 0 0 0 0 0 0 0 0 0 0 0 0 0 50 177 173 49
1061 1095 1212 1285 1201 1291 1527 1336 1125 1018 834 681 570 451 293 158 99 84 59 23 0 0 0 3 0 0 0 0 0 0 0 0 0 0 0 1 0 0 0 0 2 66 137
1080 1158 1172 1173 1398 1213 1363 1110 1131 1105 947 866 807 665 537 341 195 141 124 103 48 21 23 0 0 0 0 0 0 0 0 0 7 30 42 27 11 0 0 0 0 0 0
1030 1182 1179 1100 996 1055 796 546 643 1022 958 822 756 732 693 628 428 335 247 167 120 73 51 22 0 0 0 0 0 0 0 9 14 47 44 36 0 0 0 0 0 0 0
767 1079 1148 1030 958 937 989 726 653 776 699 1140 961 589 657 590 564 417 338 293 184 85 62 22 0 3 0 0 0 1 43 103 67 28 3 0 0 0 0 0 0 0 0
0 276 588 707 646 841 685 430 406 319 194 375 647 622 434 309 263 236 268 265 214 104 105 71 26 9 28 6 0 21 0 7 0 1 0 0 0 0 0 0 0 0 0
0 0 0 223 571 536 684 525 556 672 688 590 838 890 867 253 162 121 124 129 168 91 79 181 76 39 9 50 4 0 10 7 13 9 0 0 0 0 0 0 0 0 0
0 0 0 0 154 417 641 668 929 893 1072 981 500 412 600 607 514 218 73 54 34 27 29 57 32 19 27 67 158 45 3 1 0 1 7 22 0 0 0 0 0 0 0
0 0 0 0 0 0 10 268 643 853 807 531 507 488 725 678 523 420 375 307 211 110 54 56 54 34 57 41 86 119 26 27 14 3 8 3 19 0 0 0 0 0 0

GFSSE_con_sbcape_093.txt.gz
CAPE
1437 1314 2297 2084 1923 1971 1920 1669 1670 1419 889 409 167 62 28 37 94 199 317 372 474 308 110 30 9 8 10 9 7 14 5 1 0 0 0 0 0 0 0 3 15 1 13
1280 1061 2143 2127 2119 2131 2047 1949 1711 1448 1130 630 136 51 18 17 32 24 26 28 15 6 8 5 1 0 0 1 0 0 0 0 0 0 0 0 57 78 0 0 0 0 0
1156 959 1659 2101 2152 2203 2097 1822 1586 1332 1132 782 252 55 26 24 23 11 3 1 3 9 8 4 1 0 0 0 0 0 0 0 0 3 31 60 59 395 101 3 53 20 10
1059 983 1300 2141 2173 2103 1890 1730 1603 1383 1147 946 605 348 22 20 17 2 2 2 6 9 8 5 6 8 5 0 0 0 0 5 6 54 20 28 8 106 173 150 173 243 178
1172 896 1351 2005 2214 2092 1956 1864 1566 1504 1346 1205 954 803 320 50 29 0 0 2 8 10 11 10 6 5 4 2 4 73 82 101 83 13 3 5 4 4 41 42 52 225 230
1397 846 1321 1887 2187 2133 2032 1994 1689 1552 1216 1027 1067 994 666 186 62 0 0 6 20 27 15 10 76 86 65 59 92 80 69 79 96 6 6 0 0 2 1 2 0 2 67
1589 1546 1260 2009 2237 2186 2090 2008 1679 1638 1438 1032 781 587 653 321 93 0 0 2 14 15 9 7 59 90 77 80 90 61 0 8 5 2 0 0 1 0 0 1 1 2 3
1651 1833 1334 1790 2039 2089 2099 1957 1809 1785 1369 1093 809 309 286 599 148 0 0 0 2 8 8 5 3 74 59 47 40 9 0 0 0 1 0 0 5 0 0 0 0 0 0
1579 1657 1449 1558 1520 1744 1726 1855 1821 1494 1128 986 695 392 242 421 438 60 96 14 0 1 0 0 0 13 34 0 0 0 0 0 0 1 5 0 2 1 0 0 0 0 0
1454 1785 1312 1421 1438 1487 1352 1492 1356 1119 752 673 487 111 0 0 357 405 182 158 63 25 17 6 0 0 14 11 0 0 0 0 2 5 2 0 1 0 0 0 0 0 0
1342 1579 1234 1217 1427 1480 1164 1112 932 579 330 153 34 0 0 0 56 187 93 141 169 79 26 0 3 0 0 0 0 0 0 3 3 6 27 26 8 0 0 0 0 0 0
1257 1202 1091 1691 1407 1261 1112 884 883 564 299 170 61 1 0 0 0 312 145 95 184 146 98 32 12 0 0 0 0 0 4 0 0 2 17 42 11 0 0 0 0 0 0
1289 1435 1247 1444 1496 1196 1149 930 736 436 312 172 21 0 0 0 0 109 318 165 135 69 94 58 19 14 0 0 0 0 0 0 0 0 1 22 54 19 0 0 0 0 0
1313 1482 1548 1554 1445 1155 1167 916 696 473 247 91 3 0 0 0 0 0 81 298 218 112 124 115 82 48 25 0 0 0 0 0 0 0 0 0 7 80 39 0 0 0 0
1406 1362 1512 1379 1600 1214 824 797 648 502 288 168 29 0 0 1 10 2 29 89 107 109 130 103 47 44 37 19 0 0 0 0 0 0 0 0 0 4 86 40 0 0 0
1315 1199 1328 1308 1305 1085 922 822 672 449 385 348 120 30 0 0 5 35 66 70 72 69 52 48 26 3 2 0 0 0 0 0 0 0 0 0 0 0 27 103 75 5 0
1324 1268 1184 1260 1350 1257 944 822 697 451 394 409 243 140 58 19 9 22 22 41 31 22 1 13 8 0 0 0 0 0 0 0 0 0 0 0 0 0 0 101 121 114 25
1264 1233 1204 1213 1322 1322 1131 911 981 693 553 583 422 330 257 137 75 72 64 9 0 5 9 9 0 0 0 0 0 0 0 0 0 0 0 0 0 0 0 31 146 180 144
1157 1235 1435 1336 1306 1311 1201 1242 1204 900 703 629 514 479 428 225 150 129 102 55 1 0 13 26 3 0 0 0 0 0 0 6 0 1 0 6 25 0 4 3 11 97 153
1113 1107 1246 1698 1473 1286 1511 1332 1172 1155 1006 786 611 476 421 368 281 204 167 140 67 44 27 34 35 29 0 0 0 0 0 37 60 63 39 28 29 19 0 21 16 0 2
1029 1128 1256 1421 1551 1390 1423 1409 1027 845 930 1001 1117 959 879 614 505 376 336 294 247 138 96 87 65 48 58 18 20 26 32 54 53 82 103 80 60 0 0 0 0 13 17
1101 1206 1218 1091 1162 1557 1388 1291 1191 1200 1318 1249 1093 890 931 917 865 642 610 558 455 424 281 231 140 91 55 68 52 139 73 203 88 35 93 16 0 0 0 0 0 0 0
1013 1110 1166 914 941 1156 1216 1031 795 705 661 894 1111 1069 713 412 779 821 752 738 705 554 396 369 242 123 128 117 47 86 31 48 43 3 0 0 0 0 0 0 0 0 0
0 194 972 989 764 916 1011 844 718 696 704 659 869 993 934 543 376 265 283 398 511 514 458 410 341 252 192 183 82 8 84 100 84 22 6 0 0 0 0 0 0 0 0
0 0 0 245 763 846 916 840 669 685 1013 607 615 482 629 846 308 173 189 178 203 267 309 275 345 319 209 198 239 185 24 41 0 4 15 24 0 0 0 0 0 0 0
0 0 0 0 51 394 741 637 534 505 503 654 480 459 763 823 831 587 541 279 219 199 194 194 229 278 238 227 260 264 13 3 2 3 3 1 27 0 0 0 0 0 0

GFSSE_con_sbcape_096.txt.gz
CAPE
1385 1725 2394 2438 2391 2256 2007 1655 1501 694 135 142 48 31 110 311 467 548 556 413 590 400 25 10 10 9 4 9 11 5 32 10 0 2 44 95 46 1 0 4 0 0 22
1363 1597 2200 2332 2263 2111 2017 1812 1442 1118 718 419 22 18 33 73 108 145 170 111 39 9 6 3 3 2 1 0 0 0 0 0 2 17 95 48 203 22 4 0 123 1 3
1241 1491 1814 2109 2094 2122 2011 1608 1366 1126 789 540 200 23 23 21 15 11 14 18 9 6 3 3 0 0 0 0 0 0 22 28 37 72 16 0 105 242 177 169 259 124 5
1218 1149 1437 2144 2261 2243 1927 1551 1436 1186 886 730 346 185 18 9 6 7 9 12 12 10 10 11 8 1 3 4 19 72 95 105 52 51 1 0 0 238 172 198 218 177 23
978 969 1412 2028 2232 1981 1707 1596 1465 1321 1115 957 534 355 224 7 2 5 12 11 8 12 9 8 12 7 4 72 124 109 100 103 73 0 0 0 0 11 30 15 47 115 193
792 1304 1553 1937 1894 1776 1715 1681 1660 1550 1369 1204 786 630 427 9 0 6 10 19 24 19 20 72 86 60 75 95 84 76 11 71 3 0 0 0 0 0 4 7 8 8 8
879 1155 1586 2093 2030 1904 1716 1629 1523 1651 1523 1280 1028 774 262 24 0 2 5 85 37 22 27 104 77 85 92 89 57 0 7 8 0 0 0 0 0 0 0 0 0 6 9
1190 1042 1349 1798 1826 1872 1824 1530 1483 1555 1499 1240 959 711 578 51 0 0 1 28 19 10 6 52 66 61 59 44 0 0 0 0 0 0 0 0 0 0 0 0 0 0 0
1305 1047 1235 1469 1512 1716 1611 1546 1532 1372 1057 849 681 760 775 244 131 0 0 65 5 2 1 18 74 41 0 0 0 0 0 0 0 0 0 0 1 0 0 0 0 0 0
1446 1166 1187 1198 1284 1302 1140 1368 1081 714 611 583 296 63 156 156 140 193 15 45 93 71 63 52 17 54 16 0 0 0 0 0 0 0 0 0 0 0 0 0 0 0 0
1362 1084 1288 1104 1121 1195 955 891 707 373 220 56 0 0 0 116 71 26 7 28 59 67 60 34 4 0 0 0 0 0 0 0 0 0 0 24 0 0 0 0 0 0 0
1544 1213 1126 956 1085 1217 878 527 496 168 17 0 0 0 0 0 137 119 42 59 97 70 49 39 20 1 0 0 0 0 0 0 0 0 0 25 8 0 0 0 0 0 0
1197 1092 1315 1252 1184 989 701 480 528 181 94 17 0 0 0 0 41 126 45 75 58 58 54 26 3 0 0 0 0 0 0 0 0 0 0 47 0 0 0 0 0 0 0
1288 1331 1088 1468 1119 893 794 659 443 218 156 6 0 0 0 0 0 99 64 83 72 58 85 37 15 8 4 0 0 0 0 0 0 0 0 0 46 42 1 0 0 0 0
1353 1251 1389 1400 1153 962 811 662 445 252 81 13 0 0 0 0 0 0 69 86 67 55 76 57 43 11 13 0 0 0 0 0 0 0 0 0 0 21 53 19 0 0 0
1406 1181 1388 1328 1163 878 625 642 399 351 122 39 2 0 0 0 0 0 2 61 44 60 56 36 16 2 0 0 0 0 0 0 0 0 0 0 0 0 27 60 75 2 0
1245 1221 1253 1178 1155 862 676 540 498 343 253 170 47 13 0 0 0 7 15 19 16 9 1 0 0 0 0 0 0 0 0 0 0 0 0 0 0 0 0 43 107 147 25
1209 1175 1204 1368 1290 1128 807 706 606 429 266 256 160 56 37 13 13 13 11 4 6 0 0 0 0 0 0 0 0 0 0 0 0 0 0 0 0 0 0 15 206 210 158
1284 1249 1172 1106 1253 1237 1101 841 685 586 462 395 319 171 138 79 48 41 39 3 0 0 0 0 0 0 0 0 0 0 0 0 0 0 0 0 0 0 0 0 1 81 126
1126 1252 1222 1147 1213 1220 1084 927 841 815 639 502 341 274 247 157 92 76 53 28 0 0 0 0 0 0 0 0 0 0 0 0 0 0 0 0 0 0 0 0 0 0 12
1004 1095 1248 1259 1215 1268 1273 934 815 594 711 720 440 371 326 267 180 140 122 86 41 0 0 0 0 0 0 0 0 0 0 0 0 0 0 0 0 0 0 0 0 0 0
912 964 1190 1354 1246 1207 1031 1079 790 607 491 386 506 585 561 579 459 271 211 205 134 95 67 55 21 11 0 0 0 0 0 0 0 0 0 0 0 0 0 0 0 0 0
894 1045 1135 1156 1149 1235 1129 912 590 406 497 513 493 394 378 411 310 403 331 229 236 182 156 126 77 27 10 0 0 0 0 0 0 0 0 0 0 0 0 0 0 0 0
960 1024 1048 789 909 1106 1031 771 488 506 383 337 398 432 334 300 238 214 193 212 199 160 159 81 81 34 24 45 14 12 0 0 5 0 0 0 0 0 0 0 0 0 0
0 54 622 816 792 872 767 645 489 374 207 178 278 377 519 427 283 163 166 184 194 167 178 179 131 105 67 57 58 21 2 0 0 0 0 0 0 0 0 0 0 0 0
0 0 0 333 576 691 483 158 20 83 73 196 208 245 327 413 380 223 170 134 119 156 148 99 120 141 81 93 93 85 24 9 8 0 0 0 0 0 0 0 0 0 0

GFSSE_con_sbcape_099.txt.gz
CAPE
1264 1952 2475 2558 2412 1962 1794 1426 300 91 175 46 92 533 681 742 770 688 586 503 571 207 10 9 4 7 15 15 31 0 0 24 94 129 139 172 69 2 0 0 0 5 235
1382 1782 2409 2343 2285 2042 1803 1281 598 532 474 235 25 206 370 454 458 427 290 50 9 5 5 3 3 3 0 0 0 9 9 22 126 119 115 66 159 215 195 86 107 3 154
1437 1653 1798 2144 2054 1975 1588 1284 994 754 429 344 186 17 83 111 84 87 27 7 5 4 2 2 0 0 0 0 35 94 107 143 60 0 0 0 68 350 314 216 203 3 4
1475 1430 1508 1937 1998 1766 1489 1264 1051 868 568 360 306 79 10 9 11 21 14 12 10 8 5 3 3 1 7 62 142 150 105 15 0 0 0 0 14 125 242 306 223 235 165
1291 1323 1506 1916 2017 1797 1484 1244 1131 1007 645 496 329 126 9 7 12 14 11 11 12 13 12 8 10 40 150 192 179 85 39 1 0 0 0 0 0 9 51 19 9 123 132
1094 1258 1744 2016 2007 1568 1385 1483 1365 1243 865 651 523 150 7 4 9 11 14 31 60 74 29 16 59 101 123 124 63 7 57 0 0 0 0 0 0 0 2 7 10 7 8
973 1172 1567 1951 1701 1551 1677 1455 1433 1341 1124 797 729 19 0 3 8 17 21 59 71 370 120 106 102 133 103 74 0 2 0 0 0 0 0 0 0 0 0 1 4 8 8
990 1134 1392 1475 1517 1543 1529 1434 1344 1316 1171 983 918 136 0 0 8 22 26 88 74 72 67 58 80 92 73 23 0 0 0 0 0 0 0 0 0 0 0 0 0 1 2
1047 1221 1365 1215 1285 1402 1275 1310 1407 1439 1151 1052 907 471 96 11 27 13 91 109 6 8 69 84 47 29 11 0 0 0 0 0 0 0 0 0 0 0 0 0 0 0 1
1083 1292 1217 1157 1287 1132 978 1058 966 775 574 608 492 190 21 13 3 69 60 95 79 38 50 100 63 22 0 0 0 0 0 0 0 0 0 0 0 0 0 0 0 0 0
1112 1114 1038 1052 1074 899 893 639 344 157 60 12 15 66 11 6 0 0 0 31 85 83 62 28 35 32 6 0 0 0 0 0 0 0 0 6 0 0 0 0 0 0 0
1118 1101 1049 997 965 790 826 309 177 25 0 0 0 0 0 7 0 0 0 9 60 59 64 52 20 9 0 0 0 0 0 0 0 0 0 9 0 0 0 0 0 0 0
1004 1194 1025 957 987 755 439 255 89 0 0 0 0 0 0 1 0 0 0 11 6 15 16 16 4 0 0 0 0 0 0 0 0 0 0 3 0 0 0 0 0 0 0
1137 1063 1022 1028 952 559 351 367 161 37 0 0 0 0 0 0 30 31 2 5 20 20 16 6 0 0 0 0 0 0 0 0 0 0 0 0 51 34 0 0 0 0 0
1152 1174 1193 934 877 590 518 549 214 86 46 0 0 0 0 0 6 23 16 20 15 18 36 16 17 11 0 0 0 0 0 0 0 0 0 0 14 96 60 2 0 0 0
1092 1258 1244 1023 975 900 572 514 216 106 3 0 0 0 0 0 0 0 22 35 24 22 27 14 0 0 0 0 0 0 0 0 0 0 0 0 0 9 71 80 60 1 0
1046 1091 1168 1049 880 677 684 560 253 192 34 0 0 0 0 0 0 0 14 21 10 13 23 4 0 0 0 0 0 0 0 0 0 0 0 0 0 0 1 35 116 164 30
857 1019 984 1166 962 798 656 572 431 182 77 35 0 0 0 0 0 0 0 0 0 0 0 0 0 0 0 0 0 0 0 0 0 0 0 0 0 0 0 14 225 192 169
1144 901 1107 1189 995 866 790 725 623 517 204 110 43 2 0 0 0 0 0 0 0 0 0 0 0 0 0 0 0 0 0 0 0 0 0 0 0 0 0 0 1 82 119
1067 1042 1016 991 962 988 809 757 730 673 472 216 158 83 49 23 18 10 10 2 0 0 0 0 0 0 0 0 0 0 0 0 0 0 0 0 0 0 0 0 0 1 15
1098 1018 1124 1046 1032 896 852 729 691 765 652 459 362 222 151 114 52 41 40 18 0 0 0 0 0 0 0 0 0 0 0 0 0 0 0 0 0 0 0 0 0 0 0
809 1107 925 1039 1078 1119 1098 776 658 416 379 441 418 288 233 184 98 66 72 68 33 1 0 0 0 0 0 0 0 0 0 0 0 0 0 0 0 0 0 0 0 0 0
638 673 1057 1131 1095 1016 1002 405 320 244 261 387 328 271 171 177 204 123 52 91 97 62 34 18 6 4 1 0 0 0 0 0 0 0 0 0 0 0 0 0 0 0 0
658 620 947 942 1044 1028 709 726 588 509 376 320 309 203 178 151 153 153 155 122 110 114 132 67 46 23 8 10 0 0 0 0 0 0 0 0 0 0 0 0 0 0 0
533 493 564 630 939 956 827 473 333 293 114 110 92 121 120 114 150 142 91 91 150 115 110 109 134 82 46 20 16 4 3 0 0 0 0 0 0 0 0 0 0 0 0
0 0 53 412 654 579 493 301 187 17 22 63 54 60 47 132 183 172 111 72 42 63 71 108 106 105 116 88 51 26 15 4 9 1 0 0 0 0 0 0 0 0 0

GFSSE_con_sbcape_102.txt.gz
CAPE
1286 1491 2301 2219 2115 1663 940 295 144 290 333 693 904 1054 1013 1066 851 701 572 458 436 67 8 12 21 163 32 56 71 156 39 194 30 6 66 207 93 2 3 32 136 113 288
1462 1726 2199 2211 2065 1693 1170 249 188 466 452 617 803 991 958 858 684 335 168 31 7 5 5 9 12 15 2 26 39 101 58 66 94 96 90 48 242 213 31 21 200 127 313
1638 1820 1819 2107 1929 1618 1127 738 641 431 382 565 539 709 738 561 244 75 8 4 5 4 2 0 0 0 26 160 169 57 65 0 0 0 0 0 130 321 109 44 157 61 230
1570 1658 1698 1883 1862 1492 1215 820 642 534 384 368 282 313 259 154 39 7 7 5 3 1 2 0 0 59 184 235 262 0 0 0 0 0 0 0 3 257 241 245 201 199 231
1281 1278 1494 1900 1641 1461 1199 1041 810 537 484 277 263 238 286 82 11 9 9 10 10 8 5 6 133 223 247 261 144 0 0 0 0 0 0 0 0 44 33 6 30 129 146
1170 1144 1483 1663 1590 1346 1234 1176 898 747 336 15 22 113 164 16 11 11 10 14 92 98 86 99 201 200 133 128 149 0 0 0 0 0 0 0 0 4 8 8 12 9 12
1138 1183 1372 1719 1434 1485 1445 1327 1005 759 570 23 4 6 12 10 11 7 6 54 133 300 140 160 160 158 65 77 1 0 0 0 0 0 0 0 0 1 1 3 6 8 7
1180 1215 1313 1484 1283 1476 1439 1435 1197 952 962 479 29 6 11 14 12 12 83 333 309 154 147 155 146 93 13 4 20 0 0 0 0 0 0 0 0 0 0 1 2 3 5
1078 1054 1185 995 1103 1125 1166 1170 1105 979 961 618 114 24 35 62 67 22 88 194 183 112 101 122 71 34 0 0 0 6 0 0 0 0 0 0 0 0 0 0 0 1 3
1022 1120 965 845 839 854 974 1053 1007 878 670 615 112 5 0 7 43 119 85 115 160 231 148 71 28 0 0 0 0 0 0 0 0 0 0 0 0 0 0 0 0 0 2
1107 1099 948 898 833 727 753 824 655 390 385 253 14 0 0 0 0 0 2 58 103 119 131 76 42 19 0 0 0 0 0 0 0 0 0 0 0 0 0 0 0 0 0
1139 1098 1009 933 812 740 693 235 37 16 5 7 0 0 0 0 0 0 0 18 91 69 56 38 28 9 0 0 0 0 0 0 0 0 0 0 0 0 0 0 0 0 0
1134 1129 1023 857 769 702 303 126 0 0 0 0 0 0 0 0 0 0 0 0 0 2 11 20 2 0 0 0 0 0 0 0 0 0 0 0 0 0 0 0 0 0 0
1184 1160 1046 916 773 485 251 111 4 0 0 0 0 0 0 0 0 0 0 0 0 0 0 0 0 0 0 0 0 0 0 0 0 0 0 0 52 0 0 0 0 0 0
1184 1073 1054 991 680 363 292 172 57 0 0 0 0 0 0 0 5 0 0 0 0 0 0 0 0 0 0 0 0 0 0 0 0 0 0 0 2 125 18 0 0 0 0
1166 1034 1070 1051 644 395 421 281 149 56 18 0 0 0 0 1 22 11 1 2 0 0 0 0 0 0 0 0 0 0 0 0 0 0 0 0 0 38 182 92 24 1 0
1145 1102 1084 1058 717 497 573 360 182 119 22 0 0 0 0 0 0 0 8 3 8 2 3 0 0 0 0 0 0 0 0 0 0 0 0 0 0 0 22 65 137 143 48
821 999 1100 1073 832 691 597 381 185 120 0 0 0 0 0 0 0 0 8 7 4 2 0 0 0 0 0 0 0 0 0 0 0 0 0 0 0 0 0 15 238 217 168
916 912 1066 973 867 811 651 512 324 229 18 0 0 0 0 0 0 0 0 0 0 0 0 0 0 0 0 0 0 0 0 0 0 0 0 0 0 0 0 0 0 68 170
880 1037 1129 1123 997 638 461 508 388 335 128 20 0 0 0 0 0 0 0 0 0 0 0 0 0 0 0 0 0 0 0 0 0 0 0 0 0 0 0 0 0 0 14
751 826 864 938 733 794 733 581 699 580 414 294 125 42 14 4 0 0 0 0 0 0 0 0 0 0 0 0 0 0 0 0 0 0 0 0 0 0 0 0 0 0 0
956 947 777 819 870 956 868 641 542 451 436 480 419 297 159 99 20 6 6 0 0 0 0 0 0 0 0 0 0 0 0 0 0 0 0 0 0 0 0 0 0 0 0
863 930 931 900 974 986 820 292 160 272 262 342 356 395 284 231 133 69 21 17 6 0 0 0 0 2 3 0 0 0 0 0 0 0 0 0 0 0 0 0 0 0 0
626 686 875 857 929 933 664 690 606 760 641 441 493 194 198 207 182 151 117 65 74 36 22 12 9 9 0 1 0 1 0 0 10 2 0 0 0 0 0 0 0 0 0
316 516 671 739 786 675 641 609 498 326 255 191 245 230 150 117 106 55 93 81 71 51 46 39 57 38 13 25 15 3 12 0 0 0 26 0 0 0 0 0 0 0 0
9 63 318 481 718 644 533 209 305 195 62 93 24 62 91 113 102 119 85 49 27 13 13 31 43 60 73 52 50 40 27 14 11 20 8 0 0 0 0 0 0 0 0

GFSSE_con_sbcape_105.txt.gz
CAPE
940 1380 1936 1921 1546 1128 259 282 235 440 1113 1237 1113 1192 1164 999 919 671 541 310 46 60 48 37 58 40 132 157 40 21 12 20 95 109 120 122 10 53 200 289 297 138 331
1154 1506 1833 1911 1654 772 268 320 341 720 1018 1186 1449 1188 1162 1020 674 480 152 43 8 8 17 75 16 125 169 193 41 86 134 157 105 77 76 138 142 2 9 140 402 224 241
1332 1549 1452 1856 1615 1065 678 212 268 434 937 1161 1210 993 900 687 455 75 12 4 6 8 17 26 84 170 241 138 103 5 68 40 0 0 0 17 97 263 205 158 452 259 211
1484 1413 1388 1756 1557 1089 371 238 285 327 819 1083 1030 949 664 319 29 7 5 4 4 2 3 42 191 278 122 11 88 0 0 0 0 0 0 0 4 117 116 160 191 239 164
1403 1324 1389 1679 1511 1140 729 563 531 444 513 784 972 904 350 50 10 5 4 4 9 14 111 200 274 88 94 191 0 0 0 0 0 0 0 0 0 9 9 10 6 16 26
1333 1283 1376 1478 1446 1186 870 723 540 244 145 200 565 621 413 9 10 8 7 13 90 185 377 252 201 0 228 123 0 0 0 0 0 0 0 0 0 7 6 5 5 5 5
1103 1200 1251 1419 1368 1258 1077 838 635 274 48 36 176 96 16 11 11 12 8 62 115 258 329 250 138 0 161 31 0 0 0 0 0 0 0 0 0 2 2 3 3 5 5
1010 936 991 1049 1180 1315 1130 894 650 346 118 46 159 59 11 11 9 10 42 185 213 213 241 235 134 9 18 21 0 0 0 0 0 0 0 0 0 0 0 0 2 3 4
985 882 852 764 1001 1053 1023 793 823 567 170 85 87 44 22 18 79 313 411 411 246 260 269 226 127 0 16 21 0 0 0 0 0 0 0 0 2 0 0 0 1 1 4
956 794 824 831 845 844 857 710 742 571 126 31 25 21 12 6 22 180 154 238 260 270 205 143 31 0 6 17 9 0 0 0 0 0 0 0 0 0 0 0 0 1 2
916 1000 711 702 715 722 710 672 572 466 94 8 0 0 1 0 0 0 0 80 232 221 119 49 16 0 0 0 0 0 0 0 0 0 0 0 0 0 0 0 0 0 1
994 1069 825 662 600 654 726 509 237 274 39 0 0 0 0 0 0 0 0 33 108 122 134 86 33 0 0 0 0 0 0 0 0 0 0 0 0 0 0 0 0 0 0
960 1115 984 694 616 572 319 69 6 15 10 0 0 0 0 0 0 0 0 0 0 2 1 1 0 0 0 0 0 0 0 0 0 0 0 0 0 0 0 0 0 0 0
1158 1218 1088 763 698 398 203 45 0 0 0 0 0 0 0 0 0 0 0 0 0 0 0 0 0 0 0 0 0 0 0 0 0 0 0 0 39 0 0 0 0 0 0
1171 1228 1038 840 725 282 174 22 0 0 0 0 0 0 0 0 0 0 0 0 0 0 0 0 0 0 0 0 0 0 0 0 0 0 0 0 36 121 9 0 0 0 0
1134 1326 1157 926 666 295 196 65 0 0 0 0 0 0 0 0 0 0 0 0 0 0 0 0 0 0 0 0 0 0 0 0 0 0 0 0 0 81 256 99 19 1 0
1166 1215 1172 964 593 302 224 113 49 9 0 0 0 0 0 0 7 0 0 0 0 0 0 0 0 0 0 0 0 0 0 0 0 0 0 0 0 0 33 160 174 114 86
1012 1124 1169 1064 636 426 350 181 121 73 30 9 0 0 0 0 12 7 0 1 0 0 0 0 0 0 0 0 0 0 0 0 0 0 0 0 0 0 0 20 172 244 177
1059 891 1059 991 714 537 450 246 125 98 22 1 0 0 0 0 0 0 12 19 8 5 0 0 0 0 0 0 0 0 0 0 0 0 0 0 0 0 0 0 0 17 101
759 827 1051 988 801 535 399 212 139 88 3 0 0 0 0 0 0 0 0 0 0 0 0 0 0 0 0 0 0 0 0 0 0 0 0 0 0 0 0 0 0 0 0
394 696 969 730 776 612 457 386 257 228 23 0 0 0 0 0 0 0 0 0 0 0 0 0 0 0 0 0 0 0 0 0 0 0 0 0 0 0 0 0 0 0 0
619 576 591 721 497 466 496 519 306 321 230 110 52 23 7 0 0 0 0 0 0 0 0 0 0 0 0 0 1 0 0 0 0 0 0 0 0 0 0 0 0 0 0
295 355 708 588 724 788 500 123 127 125 126 261 272 272 188 110 19 10 0 0 0 0 0 0 0 0 0 0 0 16 5 10 0 0 0 0 0 0 0 0 0 0 0
466 579 680 593 773 545 321 377 307 538 520 425 367 240 251 261 172 112 35 41 47 22 0 0 2 0 0 4 0 1 0 0 10 13 0 0 0 0 0 0 0 0 0
340 542 475 561 439 331 427 340 339 383 321 150 131 274 225 181 156 158 124 59 64 68 87 63 40 1 3 13 5 2 1 1 0 18 8 0 0 0 0 0 0 0 0
34 145 299 440 534 291 457 345 317 304 198 198 180 210 62 49 12 46 9 53 83 92 73 49 53 81 40 39 34 24 11 8 2 11 28 0 0 0 0 0 0 0 0

GFSSE_con_sbcape_108.txt.gz
CAPE
560 1173 1752 1826 1021 695 626 504 584 1088 957 1474 1441 1129 1041 1169 811 566 775 318 395 201 164 88 76 103 21 11 13 35 185 195 242 59 144 139 307 217 336 304 257 52 164
781 1325 1838 1717 1289 973 456 397 959 1553 1367 1605 1632 1057 1103 955 692 350 60 30 44 82 24 146 207 316 98 14 142 236 200 177 185 187 180 0 1 78 252 219 333 66 138
1200 1368 1356 1625 1045 885 356 397 1013 1196 1635 1722 1706 1411 893 780 498 133 9 9 11 70 35 88 239 200 133 10 72 107 80 64 2 4 9 14 57 420 260 193 363 157 107
1268 1273 1265 1478 1056 734 314 349 997 1066 1301 1401 1405 1354 1056 580 132 8 8 9 18 133 209 261 285 116 141 87 3 5 0 0 0 0 0 0 2 66 159 87 57 18 14
1248 1190 1261 1348 1128 807 541 499 864 1029 1119 1089 1116 1055 822 194 21 5 6 12 87 298 508 294 175 88 13 1 0 0 0 0 0 0 0 0 0 4 6 0 0 0 6
1191 1159 1378 1335 1166 890 709 686 701 893 897 931 1065 790 507 20 6 5 8 37 191 510 446 112 110 123 0 0 0 0 0 0 0 0 0 0 0 4 5 5 5 5 5
1157 1240 1148 1387 1241 973 882 683 685 793 659 936 825 512 102 10 8 10 9 110 361 609 281 82 114 95 28 0 0 0 0 0 0 0 0 0 0 2 3 4 4 5 6
1003 983 1007 999 982 886 671 568 499 525 585 676 569 107 20 10 9 8 18 246 541 357 195 70 75 63 21 0 0 0 0 0 0 0 0 0 3 1 3 3 4 4 5
977 789 693 657 707 642 648 446 279 260 279 223 190 92 17 15 46 42 207 424 538 475 401 183 51 41 31 3 0 0 0 0 0 0 0 0 6 1 1 2 3 5 5
718 620 509 563 713 412 352 382 156 60 64 75 29 12 5 8 99 416 244 382 534 489 385 270 84 34 37 16 0 0 0 0 0 0 0 0 1 1 0 1 2 2 3
613 524 519 567 597 426 285 366 168 24 13 11 8 0 0 0 0 0 26 96 235 319 167 69 22 16 9 0 0 0 0 0 0 0 0 0 0 0 0 0 1 1 2
637 637 572 501 531 442 425 293 95 0 0 0 0 0 0 0 0 0 0 75 179 125 93 46 0 0 0 0 0 0 0 0 0 0 0 0 0 0 0 0 0 0 0
694 695 613 457 487 395 351 257 195 9 0 0 0 0 0 0 0 0 0 0 0 0 0 0 0 0 0 0 0 0 0 0 0 0 0 0 0 0 0 0 0 0 0
668 734 642 456 452 215 138 58 29 17 0 0 0 0 0 0 1 1 0 0 0 0 0 0 0 0 0 0 0 0 0 0 0 0 0 0 0 0 0 0 0 0 0
570 674 770 504 419 206 151 0 0 0 1 0 0 0 0 0 0 0 0 0 0 0 0 0 0 0 0 0 0 0 0 0 0 0 0 0 1 69 4 0 0 0 0
544 790 892 578 527 215 136 0 0 0 0 0 0 0 0 0 0 0 0 0 0 0 0 0 0 0 0 0 0 0 0 0 0 0 0 0 0 37 203 81 25 11 1
218 850 958 701 637 315 122 0 0 0 0 0 0 0 0 0 0 0 0 0 0 0 0 0 0 0 0 0 0 0 0 0 0 0 0 0 0 0 14 220 167 130 91
700 1033 1028 875 831 432 207 32 0 0 0 0 0 0 0 0 0 0 0 0 0 0 0 0 0 0 0 0 0 0 0 0 0 0 0 0 0 0 0 14 101 197 171
901 1098 1035 856 779 490 210 66 23 3 0 0 0 0 0 0 11 15 1 0 0 0 0 0 0 0 0 0 0 0 0 0 0 0 0 0 0 0 0 0 0 3 54
1039 1101 1077 888 858 513 251 161 67 18 0 0 0 0 0 0 0 4 7 2 0 0 0 0 0 0 0 0 0 0 0 0 0 0 0 0 0 0 0 0 0 0 2
691 854 1118 917 786 410 297 189 151 115 0 0 0 0 0 0 0 0 0 0 0 0 0 0 0 0 0 0 0 0 0 0 0 0 0 0 0 0 0 0 0 0 0
309 365 317 524 572 420 333 300 207 175 59 29 0 0 0 0 0 0 0 0 0 0 0 0 0 0 0 0 0 0 0 2 0 0 0 0 0 0 0 0 0 0 0
358 318 336 193 421 323 197 120 103 93 107 80 36 8 0 0 0 0 0 0 0 0 0 0 0 0 0 0 0 0 0 18 1 0 0 0 0 0 0 0 0 0 0
354 245 335 161 182 318 265 387 155 212 251 133 112 59 34 14 7 0 0 0 0 0 0 0 0 0 3 13 1 2 2 5 27 5 0 0 0 0 0 0 0 0 0
70 223 224 172 88 40 253 183 49 153 295 180 132 151 147 98 56 11 13 1 7 22 33 32 33 8 0 1 1 1 1 1 1 3 1 0 0 0 0 0 0 0 0
4 55 105 293 147 62 116 81 96 119 135 68 90 199 201 37 27 36 47 80 44 45 66 32 27 36 10 12 1 17 3 0 1 12 15 0 0 0 0 0 0 0 0

GFSSE_con_sbcape_111.txt.gz
CAPE
847 1168 1750 1844 1039 722 843 752 1216 1730 1974 1831 1654 1096 1074 1148 811 997 720 414 483 838 192 110 18 143 17 76 224 233 226 7 1 0 133 366 530 393 311 197 273 33 22
851 1255 1787 1639 1286 1297 1246 1285 1204 1434 1784 1672 1571 1342 1057 1048 842 719 542 196 378 38 156 115 79 83 97 301 283 281 230 176 61 0 0 0 258 487 199 174 392 26 15
1077 1314 1373 1532 1444 1290 1210 1524 1426 1380 1776 1660 1593 1303 1062 956 465 174 493 513 304 341 311 345 175 15 106 158 122 140 143 92 7 0 31 169 197 370 199 213 191 20 10
1218 1379 1207 1329 1328 1147 1202 1420 1770 1838 1921 1706 1532 1315 1499 805 202 179 238 436 426 582 406 330 210 138 5 22 60 41 4 0 0 0 0 0 2 14 17 11 12 6 5
1321 1347 1107 1119 1186 987 1265 1645 1669 1874 1920 1489 1233 1156 1222 690 64 11 205 458 418 730 619 284 139 86 2 1 2 1 0 0 0 0 0 0 3 11 8 3 3 4 6
1258 1326 1179 1136 1091 934 1229 1607 1615 1617 1422 1267 1053 947 755 382 14 13 218 286 640 604 418 326 46 1 0 0 0 0 0 0 0 0 0 1 3 7 5 5 7 7 6
1123 1308 1046 1211 1095 978 1142 1521 1510 1457 1309 1097 1062 717 296 119 16 13 127 446 677 397 254 184 57 0 0 0 0 0 0 0 0 0 0 1 3 7 6 5 6 6 6
1215 1195 1022 899 903 936 1000 1303 1256 1279 1240 1101 850 502 137 55 26 13 233 635 651 210 237 247 55 0 0 0 0 0 0 0 0 0 0 1 7 3 4 6 5 5 5
1195 1112 979 666 563 575 616 816 961 990 966 833 640 335 108 35 41 36 432 700 606 290 236 274 127 24 0 0 0 0 0 0 0 0 0 1 7 3 4 3 3 3 4
1060 1017 795 565 359 342 287 304 378 443 411 323 116 13 6 7 10 184 238 423 517 404 160 158 142 67 0 0 0 0 0 0 0 0 0 2 4 2 2 3 2 2 3
901 779 714 535 423 265 63 38 35 31 5 4 1 0 6 12 22 6 32 151 266 331 139 93 25 20 11 0 0 0 0 0 0 0 0 2 1 1 0 1 1 1 1
772 688 703 541 320 275 116 42 14 7 5 8 5 7 24 76 60 9 12 53 148 125 58 24 0 0 0 0 0 0 0 0 0 0 0 1 0 0 0 0 0 0 0
673 693 606 448 268 254 183 130 28 10 4 2 1 4 13 12 18 21 95 99 70 0 19 1 0 0 0 0 0 0 0 0 0 0 0 0 0 0 0 0 0 0 0
632 732 650 559 283 301 380 90 14 7 1 2 2 2 6 7 10 12 12 9 2 0 0 0 0 0 0 0 0 0 0 0 0 0 0 0 0 0 0 0 0 0 0
745 767 741 705 511 255 70 73 46 5 3 3 3 3 3 4 3 2 1 0 0 0 0 0 0 0 0 0 0 0 0 0 0 0 0 0 0 2 0 0 0 0 0
606 999 810 711 659 319 77 6 6 2 2 2 4 2 0 0 0 0 0 0 0 0 0 0 0 0 0 0 0 0 0 0 0 0 0 0 0 5 120 48 23 1 0
716 1139 767 860 605 406 144 48 0 0 1 0 0 0 0 0 0 0 0 0 0 0 0 0 0 0 0 0 0 0 0 0 0 0 0 0 0 0 2 181 155 119 79
756 1083 961 885 596 415 130 56 5 16 2 0 0 0 0 0 0 0 0 0 0 0 1 2 2 9 2 0 0 0 0 0 0 0 0 0 0 0 0 0 43 116 106
701 1115 1002 898 649 378 111 39 3 0 1 1 0 0 0 0 1 0 0 7 2 4 12 17 14 18 17 1 0 0 0 0 0 0 0 0 0 0 0 0 0 0 24
599 1141 1151 1000 682 427 149 54 15 7 0 0 0 0 8 18 49 60 35 25 17 22 23 15 33 0 3 0 0 0 0 0 0 0 0 0 0 0 0 0 0 0 0
981 1221 1086 979 753 424 245 116 57 36 4 0 0 0 0 8 24 85 109 80 35 56 53 18 2 4 0 0 0 0 0 0 0 0 0 6 2 0 0 0 0 0 3
568 1171 1056 846 683 409 380 259 259 199 23 30 0 0 0 0 0 2 23 20 41 39 9 0 0 0 0 0 5 0 12 0 0 0 0 0 0 0 0 0 0 0 0
230 586 1024 879 716 485 375 211 163 123 83 56 14 5 0 0 0 0 0 1 0 0 3 1 0 0 12 0 0 31 6 0 0 0 0 0 0 0 0 0 0 0 0
85 274 356 261 122 278 168 173 147 210 223 223 141 60 23 1 0 0 0 0 0 0 0 0 0 0 11 14 6 2 3 40 18 45 0 0 0 0 0 0 0 0 0
220 268 158 93 51 20 100 129 75 67 140 127 120 103 46 16 9 0 15 12 20 6 0 2 0 10 26 73 85 9 25 22 3 19 5 1 0 0 0 0 0 0 0
31 120 142 74 109 166 96 59 6 6 71 316 233 210 107 105 43 44 15 54 72 45 62 51 47 32 74 48 79 97 35 4 17 13 6 1 0 0 0 0 0 0 0

GFSSE_con_sbcape_114.txt.gz
CAPE
828 1313 1740 1604 1510 1264 1163 1721 2308 2083 2100 2077 1658 1118 1060 834 664 564 723 705 985 787 33 313 24 10 137 297 102 3 3 28 33 153 412 460 475 308 236 378 171 8 9
883 1354 1822 1807 1423 1601 1577 1779 2209 2229 1996 1990 1823 1089 991 975 933 651 883 761 570 276 78 16 35 211 344 400 166 75 5 0 0 26 139 228 269 386 171 32 74 6 4
933 1353 1579 1523 864 1528 1614 1667 2017 2012 1941 1931 1901 1650 1006 869 753 695 839 575 734 767 282 155 168 357 262 203 235 214 203 146 0 5 255 135 117 218 11 2 9 6 6
1027 1291 1273 1470 1468 1616 1653 1540 1850 1999 1904 1851 1864 1703 1265 1042 809 754 716 397 822 668 716 218 85 159 120 118 6 16 1 0 0 1 8 10 10 9 11 6 3 6 8
1130 1193 1224 1548 1566 1586 1752 1589 1662 2072 1947 1849 1566 1260 1239 1009 730 556 709 575 1027 867 692 436 7 7 9 9 9 1 0 0 0 0 0 2 1 8 6 4 5 8 8
1054 1121 1282 1450 1504 1600 1821 1750 1852 2091 1981 1516 1266 1163 998 762 583 653 690 900 752 554 489 115 6 2 0 1 0 0 0 0 0 0 0 0 2 7 7 7 7 9 9
1141 1308 1176 1437 1436 1747 1984 1890 1991 1942 1596 1285 1162 1153 827 564 509 597 710 778 645 592 238 6 0 0 0 0 0 0 0 0 0 0 0 0 4 6 7 7 8 9 9
1196 1225 1078 1027 1140 1621 1927 1801 1691 1554 1461 1362 1168 906 574 393 398 388 798 651 503 434 174 5 0 0 0 0 0 0 0 0 0 0 0 0 13 8 7 6 6 5 6
1207 1247 1084 852 646 1103 1498 1443 1407 1344 1132 1023 791 472 235 125 166 277 776 554 463 505 304 136 0 0 0 0 0 0 0 0 0 0 0 1 11 5 5 3 2 2 4
1263 1142 952 474 150 1103 1358 997 984 900 787 690 327 74 8 6 22 391 398 366 358 354 299 193 32 0 0 0 0 0 0 0 0 0 0 1 5 5 5 4 2 3 1
1098 1152 1003 366 44 66 1089 707 529 518 304 65 0 0 4 3 50 193 111 187 165 189 242 233 83 0 0 0 0 0 0 0 0 0 0 7 2 2 3 3 2 2 2
820 1066 815 211 44 11 273 508 647 379 267 52 2 10 0 0 17 132 67 79 147 75 75 57 11 0 0 0 0 0 0 0 0 0 0 5 1 1 0 1 1 1 1
432 1121 719 205 151 21 16 575 621 198 146 50 23 1 2 5 21 128 119 77 80 0 1 0 0 0 0 0 0 0 0 0 0 0 0 0 0 0 0 0 0 0 0
314 742 694 319 152 14 10 11 86 251 112 19 8 6 15 23 18 27 58 95 19 35 1 0 0 0 0 0 0 0 0 0 0 0 0 0 1 0 0 0 0 0 0
123 492 588 388 111 40 4 1 4 7 9 3 3 14 10 21 22 84 97 144 58 29 3 0 0 0 0 0 0 0 0 0 0 0 2 0 0 1 0 0 0 0 0
163 406 697 539 77 225 115 3 0 1 2 4 4 18 35 17 9 8 10 35 11 0 0 0 0 0 0 0 0 0 0 0 0 0 0 0 0 3 53 6 2 1 0
0 572 775 626 200 270 246 167 6 0 0 4 3 9 22 17 8 1 0 0 0 0 0 0 0 0 1 11 11 0 0 0 0 0 0 0 0 0 8 185 121 116 58
0 470 1040 743 452 233 212 166 64 0 0 0 4 5 5 1 0 0 0 0 0 0 0 0 0 8 72 66 51 24 10 0 0 0 0 0 0 0 1 19 113 162 169
0 167 810 780 647 449 427 298 220 159 6 0 0 0 0 0 0 0 0 0 0 4 21 40 62 90 108 82 25 12 0 0 0 0 0 0 0 0 22 4 0 16 85
7 159 935 755 685 719 709 633 437 435 361 197 10 0 0 0 0 0 0 10 37 65 70 63 80 82 102 59 0 0 5 0 0 0 0 0 0 0 16 21 43 13 0
196 478 695 886 785 632 368 302 296 229 237 248 347 301 173 113 111 93 106 112 139 159 143 127 166 157 111 32 41 27 10 0 3 0 6 0 8 29 57 75 104 53 38
299 399 838 839 538 605 632 476 367 291 230 190 242 251 216 209 243 254 263 234 206 214 237 175 128 85 217 79 44 31 60 37 0 0 0 1 1 5 15 0 7 17 0
157 322 555 640 628 610 656 534 389 380 244 218 254 141 81 97 118 173 176 205 223 206 193 227 265 331 275 27 0 95 97 94 74 5 0 0 0 0 0 0 0 0 0
182 245 365 602 578 655 1012 544 445 364 334 213 357 315 113 30 46 81 53 58 132 177 166 151 173 215 9 6 9 39 142 158 91 40 0 0 0 0 0 0 0 0 0
156 7 224 309 387 336 711 321 317 582 693 610 510 342 220 100 97 48 51 103 59 102 32 2 0 1 9 91 178 108 65 81 45 44 10 0 0 0 0 0 0 0 0
5 26 81 112 108 143 127 110 136 123 127 192 356 355 258 167 108 53 65 63 51 37 4 22 76 37 57 110 145 147 101 53 43 63 18 3 1 0 0 0 0 0 0

GFSSE_con_sbcape_117.txt.gz
CAPE
974 1455 2019 2055 1718 1804 2424 2482 2222 2252 2193 1947 1364 958 697 684 753 590 596 539 322 789 259 10 6 99 10 11 136 140 169 246 353 320 446 402 440 242 36 77 9 0 7
1133 1220 1787 1967 1905 1985 2515 2401 2204 1952 2150 1944 1442 889 859 777 788 627 720 532 528 538 215 42 329 380 282 8 6 2 0 4 196 387 166 110 185 49 1 0 17 8 11
1228 1076 1252 1799 1890 1881 2312 2365 2323 2201 2160 1988 1600 1472 1025 822 630 882 923 874 830 360 165 421 390 358 336 285 231 231 102 0 9 203 216 16 13 16 3 5 15 11 14
1208 1162 995 1583 1831 1924 2041 2445 2292 2185 2135 1989 1725 1409 1374 1147 1068 806 1203 1291 1064 774 570 406 391 398 291 124 10 0 0 0 0 12 11 0 0 7 7 10 14 12 15
1263 1332 1149 1476 1583 1880 1894 2240 2299 2123 2046 1975 1707 1414 1290 1262 994 1004 870 823 681 677 423 192 213 203 141 9 5 0 0 0 0 0 0 0 0 7 11 9 8 11 16
1281 1194 1258 1449 1361 1741 1691 1945 2258 2085 1904 1749 1450 1245 1033 1092 1070 871 960 816 631 733 344 9 8 8 5 2 0 0 0 0 0 0 0 0 1 6 7 6 8 7 9
1248 1210 1232 1562 1572 1809 1786 1674 2016 2019 1783 1600 1372 1193 1144 1060 1018 1038 982 781 695 543 173 4 1 0 0 0 0 0 0 0 0 0 0 1 4 6 9 8 10 9 12
1184 1408 1284 1202 1335 1645 1786 1604 2014 1817 1587 1365 1182 1074 1029 800 921 1065 873 791 617 261 1 0 0 0 0 0 0 0 0 0 0 0 0 2 13 8 7 5 7 6 10
1293 1223 1253 1095 934 1493 1581 1673 1768 1620 1334 956 948 835 560 542 643 919 721 666 669 319 53 0 0 0 0 0 0 0 0 0 0 0 0 1 14 7 5 5 5 4 5
1336 1046 1186 963 640 810 1472 1232 1226 1128 826 640 512 171 39 87 281 633 309 453 469 305 118 1 0 0 0 0 0 0 0 0 0 0 0 3 9 7 5 4 3 3 3
1150 973 1010 740 263 435 1121 1067 754 686 439 169 2 0 7 7 41 186 21 174 295 299 202 80 20 0 0 0 0 0 0 0 0 0 0 8 3 3 2 1 2 1 0
1166 878 857 556 78 292 916 1055 931 760 425 50 1 0 1 1 91 264 28 66 180 202 202 123 28 0 0 0 0 0 0 0 0 0 0 5 1 1 1 1 1 1 0
623 837 684 535 31 185 733 1017 814 687 218 23 0 5 0 1 123 204 77 10 9 5 39 22 0 0 2 0 0 0 0 0 0 0 0 3 1 1 0 0 0 0 0
104 371 248 254 22 42 484 749 597 543 146 4 5 0 0 7 210 129 91 24 3 0 0 0 0 0 0 0 0 0 0 0 0 1 0 0 1 0 0 0 0 0 0
171 71 213 36 72 11 260 568 568 202 53 140 113 0 6 18 47 72 70 94 34 36 0 0 0 0 0 0 0 0 0 0 0 0 1 0 0 0 0 0 0 0 0
42 257 20 183 317 25 14 358 572 243 107 32 13 11 15 18 30 83 79 182 99 53 2 0 0 0 0 0 0 0 0 0 0 0 2 0 0 16 19 2 1 0 0
3 406 137 251 126 38 7 9 26 146 34 8 9 19 15 19 67 149 136 121 72 26 0 0 0 0 0 0 0 0 0 0 0 0 0 0 0 0 31 132 137 92 33
42 197 272 193 177 69 13 20 17 18 17 8 5 22 32 19 55 59 74 44 12 0 0 0 0 0 18 55 64 34 11 5 0 0 0 0 0 0 0 70 156 201 191
0 42 256 300 189 334 302 113 16 3 10 5 4 13 15 12 12 18 8 3 0 0 0 0 0 8 98 86 59 37 10 0 0 0 0 0 0 0 24 7 22 59 101
59 14 54 341 334 465 426 207 100 3 1 7 7 3 6 3 0 1 0 0 0 1 35 59 66 102 111 131 35 1 1 0 0 0 0 0 0 0 4 76 12 5 0
83 7 110 443 395 490 307 292 290 135 10 0 0 0 0 0 0 0 0 0 18 66 72 69 112 142 172 124 79 50 20 12 0 0 0 0 11 26 29 76 106 81 1
48 31 15 423 511 410 261 315 405 692 512 291 69 0 0 0 0 0 36 74 108 144 108 201 273 317 349 314 100 188 131 76 0 0 0 0 0 5 3 0 7 39 64
0 80 43 85 424 379 340 434 458 452 551 506 456 447 257 178 185 167 190 152 249 256 334 418 357 427 383 398 63 182 91 163 143 3 0 0 0 0 0 0 0 0 0
0 0 167 131 248 429 487 325 334 319 339 334 330 246 206 210 346 344 355 330 368 376 410 376 420 624 531 190 58 80 180 166 129 70 3 0 0 0 0 0 0 0 0
31 38 114 141 209 386 331 389 512 401 316 247 423 272 207 170 166 210 155 131 171 330 450 415 222 69 41 130 286 328 105 100 97 76 61 6 0 0 0 0 0 0 0
111 96 59 55 86 353 306 272 359 574 572 334 409 328 205 154 126 100 129 154 201 253 176 44 16 84 132 213 335 265 211 163 83 31 10 21 17 1 0 0 0 0 0

GFSSE_con_sbcape_120.txt.gz
CAPE
1383 1655 2375 2332 2499 2682 2554 2596 2484 2186 1760 1815 996 997 849 668 783 450 389 267 298 566 32 6 9 21 219 259 232 303 370 423 336 279 364 332 86 8 1 4 16 2 14
1527 1673 2179 2234 2445 2617 2538 2472 2399 2148 1890 1773 1620 907 695 853 822 647 595 424 490 169 34 353 161 21 104 46 47 100 219 236 234 208 26 2 8 4 5 13 25 11 17
1327 1457 1798 2064 2213 2503 2430 2354 2213 2214 1911 1763 1546 1230 947 879 802 894 688 894 809 138 424 368 213 56 84 110 190 225 118 164 230 289 0 0 0 10 10 13 32 18 16
1156 1209 1298 1930 2082 2494 2431 2367 2256 2294 1943 1713 1489 1624 1430 1122 1014 794 1072 841 762 573 421 445 508 371 236 122 0 0 0 9 11 97 0 0 0 11 15 17 21 16 18
995 916 1071 1816 1972 2348 2400 2368 2289 2235 1912 1695 1495 1404 1496 1257 1135 1160 975 1023 1004 601 548 480 512 231 17 1 0 0 0 6 7 0 0 0 0 11 11 11 14 12 17
1087 764 1278 1662 1913 2049 2229 2177 2228 2117 1983 1781 1496 1333 1282 1292 1005 1268 950 884 594 481 356 190 141 57 6 0 0 0 0 0 0 0 0 0 0 8 8 7 11 13 15
1204 1091 1131 1531 1833 1837 1952 2070 2168 2051 1939 1688 1598 1447 1026 1249 1123 1050 698 756 502 288 52 16 8 3 0 0 0 0 0 0 0 0 0 0 1 8 9 7 11 11 13
1276 1245 1132 1193 1237 1616 1864 2023 2074 1932 1761 1584 1471 1248 820 936 1173 928 696 707 475 63 3 0 0 0 0 0 0 0 0 0 0 0 0 0 13 8 6 5 5 8 6
1356 1272 1143 995 992 1305 1455 1664 1785 1701 1523 1338 1128 819 610 617 983 911 704 479 290 43 2 0 0 0 0 0 0 0 0 0 0 0 0 0 15 5 5 4 4 5 4
1422 1319 1076 943 825 830 1174 1241 1584 1352 1128 962 641 295 279 437 485 548 403 293 205 0 0 0 0 0 0 0 0 0 0 0 0 0 0 2 9 6 5 4 3 3 3
1175 1246 1082 941 767 656 857 1214 1065 870 625 348 95 7 14 133 138 77 103 136 126 12 6 0 0 0 0 0 0 0 0 0 0 0 0 10 10 6 4 3 2 2 2
964 1035 1022 890 619 448 810 905 800 509 169 31 0 2 1 1 22 14 13 57 137 62 41 18 0 0 0 0 0 0 0 0 0 0 0 4 3 2 2 1 1 0 1
648 972 959 833 433 281 597 866 572 315 56 1 0 0 0 0 17 14 9 14 1 35 21 2 0 0 0 0 0 0 0 0 0 0 0 0 1 1 0 1 0 0 0
0 0 751 556 527 336 783 715 425 268 14 0 0 0 0 2 29 14 2 0 0 0 0 0 0 0 0 0 0 0 0 0 0 0 0 0 0 0 0 0 0 0 0
0 0 19 204 47 100 676 638 529 238 29 2 11 0 0 3 23 17 1 0 0 0 0 0 0 0 0 0 0 0 0 0 0 0 0 0 0 3 0 0 0 0 0
1 0 0 118 1 0 437 580 504 231 53 8 24 0 0 9 17 16 3 0 0 0 0 0 0 0 0 0 0 0 0 0 0 0 0 0 0 1 12 0 0 0 0
16 0 0 1 9 1 102 494 368 219 144 43 42 6 5 1 6 3 7 3 0 0 0 0 0 0 0 0 0 0 0 0 0 0 0 0 0 0 48 68 93 76 73
90 0 0 68 0 0 5 371 297 196 114 1 2 0 8 8 12 0 4 45 1 0 0 0 0 0 0 1 11 0 0 0 0 0 0 0 0 0 3 110 213 209 217
116 11 0 36 0 15 15 2 127 222 0 0 1 0 1 4 5 6 8 0 0 0 0 0 0 0 5 21 9 0 0 0 0 0 0 0 0 0 0 5 39 101 125
102 3 0 1 39 18 14 0 0 0 0 0 0 0 0 11 3 0 0 0 0 0 0 0 0 4 41 32 16 0 0 0 0 0 0 0 0 0 0 1 4 3 16
193 61 2 73 7 70 25 13 0 0 0 0 0 5 0 0 0 0 0 0 0 0 0 0 13 39 61 21 2 0 0 0 0 0 0 0 0 0 0 0 16 0 0
168 136 16 1 128 119 55 23 0 0 0 0 0 1 0 0 0 0 0 0 0 0 15 17 53 72 66 26 0 0 1 0 0 0 0 0 0 0 0 0 0 0 0
206 119 17 1 181 212 107 100 56 1 0 0 0 0 0 0 0 0 0 0 7 41 50 65 109 106 68 1 0 1 0 0 4 0 0 0 0 0 0 0 0 0 0
139 96 2 16 83 187 119 120 137 31 7 3 0 0 0 0 0 0 15 35 90 112 126 136 127 113 91 0 0 1 0 8 21 4 0 0 0 0 0 0 0 0 0
49 59 90 49 0 1 169 222 198 136 122 166 124 132 41 80 117 125 107 143 148 153 162 131 29 3 0 21 31 27 14 0 6 0 0 0 0 0 0 0 0 0 0
69 3 108 71 24 21 76 278 162 169 118 162 142 100 82 90 74 41 40 73 111 134 87 21 8 11 11 44 59 47 5 0 1 0 0 0 0 0 0 0 0 0 0